<?xml version="1.0" encoding="UTF-8" standalone="no" ?>
<gpx xmlns="http://www.topografix.com/GPX/1/1" xmlns:xsi="http://www.w3.org/2001/XMLSchema-instance" xsi:schemaLocation="http://www.topografix.com/GPX/1/1 http://www.topografix.com/GPX/1/1/gpx.xsd" version="1.1" creator="VisuGPX - https://www.visugpx.com">
  <metadata>
    <name>St Christol - Cassagnoles- Ales - St Christol Les Ales</name>
  </metadata>
  <trk>
    <name><![CDATA[2019-10-13-11-17-29 on AllTrails]]></name>
    <trkseg>
      <trkpt lat="44.06181" lon="4.09268">
        <ele>130</ele>
        <time>2019-10-13T11:17:29Z</time>
      </trkpt>
      <trkpt lat="44.06163" lon="4.09277">
        <ele>130</ele>
        <time>2019-10-13T11:17:33Z</time>
      </trkpt>
      <trkpt lat="44.06145" lon="4.09286">
        <ele>130</ele>
        <time>2019-10-13T11:17:37Z</time>
      </trkpt>
      <trkpt lat="44.06124" lon="4.09296">
        <ele>129</ele>
        <time>2019-10-13T11:17:42Z</time>
      </trkpt>
      <trkpt lat="44.06103" lon="4.09305">
        <ele>128</ele>
        <time>2019-10-13T11:17:47Z</time>
      </trkpt>
      <trkpt lat="44.06078" lon="4.09321">
        <ele>127</ele>
        <time>2019-10-13T11:17:53Z</time>
      </trkpt>
      <trkpt lat="44.0607" lon="4.09333">
        <ele>127</ele>
        <time>2019-10-13T11:17:56Z</time>
      </trkpt>
      <trkpt lat="44.06076" lon="4.09362">
        <ele>126</ele>
        <time>2019-10-13T11:18:02Z</time>
      </trkpt>
      <trkpt lat="44.06086" lon="4.09384">
        <ele>125</ele>
        <time>2019-10-13T11:18:08Z</time>
      </trkpt>
      <trkpt lat="44.06094" lon="4.09402">
        <ele>124</ele>
        <time>2019-10-13T11:18:15Z</time>
      </trkpt>
      <trkpt lat="44.06097" lon="4.0941">
        <ele>124</ele>
        <time>2019-10-13T11:18:18Z</time>
      </trkpt>
      <trkpt lat="44.06103" lon="4.09426">
        <ele>124</ele>
        <time>2019-10-13T11:18:25Z</time>
      </trkpt>
      <trkpt lat="44.06108" lon="4.0944">
        <ele>124</ele>
        <time>2019-10-13T11:18:31Z</time>
      </trkpt>
      <trkpt lat="44.06115" lon="4.09456">
        <ele>124</ele>
        <time>2019-10-13T11:18:38Z</time>
      </trkpt>
      <trkpt lat="44.06122" lon="4.09469">
        <ele>124</ele>
        <time>2019-10-13T11:18:41Z</time>
      </trkpt>
      <trkpt lat="44.06131" lon="4.09482">
        <ele>125</ele>
        <time>2019-10-13T11:18:47Z</time>
      </trkpt>
      <trkpt lat="44.06139" lon="4.09498">
        <ele>125</ele>
        <time>2019-10-13T11:18:54Z</time>
      </trkpt>
      <trkpt lat="44.06146" lon="4.09514">
        <ele>126</ele>
        <time>2019-10-13T11:19:01Z</time>
      </trkpt>
      <trkpt lat="44.06154" lon="4.09532">
        <ele>127</ele>
        <time>2019-10-13T11:19:08Z</time>
      </trkpt>
      <trkpt lat="44.06155" lon="4.09537">
        <ele>127</ele>
        <time>2019-10-13T11:19:10Z</time>
      </trkpt>
      <trkpt lat="44.06153" lon="4.09548">
        <ele>128</ele>
        <time>2019-10-13T11:19:15Z</time>
      </trkpt>
      <trkpt lat="44.06143" lon="4.09566">
        <ele>129</ele>
        <time>2019-10-13T11:19:20Z</time>
      </trkpt>
      <trkpt lat="44.06132" lon="4.09583">
        <ele>129</ele>
        <time>2019-10-13T11:19:23Z</time>
      </trkpt>
      <trkpt lat="44.06125" lon="4.09596">
        <ele>130</ele>
        <time>2019-10-13T11:19:25Z</time>
      </trkpt>
      <trkpt lat="44.0611" lon="4.09631">
        <ele>130</ele>
        <time>2019-10-13T11:19:30Z</time>
      </trkpt>
      <trkpt lat="44.061" lon="4.09655">
        <ele>130</ele>
        <time>2019-10-13T11:19:33Z</time>
      </trkpt>
      <trkpt lat="44.06089" lon="4.09679">
        <ele>130</ele>
        <time>2019-10-13T11:19:36Z</time>
      </trkpt>
      <trkpt lat="44.06076" lon="4.09704">
        <ele>130</ele>
        <time>2019-10-13T11:19:39Z</time>
      </trkpt>
      <trkpt lat="44.06063" lon="4.09731">
        <ele>130</ele>
        <time>2019-10-13T11:19:42Z</time>
      </trkpt>
      <trkpt lat="44.0605" lon="4.09761">
        <ele>130</ele>
        <time>2019-10-13T11:19:45Z</time>
      </trkpt>
      <trkpt lat="44.06042" lon="4.09794">
        <ele>130</ele>
        <time>2019-10-13T11:19:48Z</time>
      </trkpt>
      <trkpt lat="44.06041" lon="4.09805">
        <ele>129</ele>
        <time>2019-10-13T11:19:49Z</time>
      </trkpt>
      <trkpt lat="44.06039" lon="4.09828">
        <ele>129</ele>
        <time>2019-10-13T11:19:51Z</time>
      </trkpt>
      <trkpt lat="44.06042" lon="4.09873">
        <ele>128</ele>
        <time>2019-10-13T11:19:55Z</time>
      </trkpt>
      <trkpt lat="44.06046" lon="4.09904">
        <ele>127</ele>
        <time>2019-10-13T11:19:58Z</time>
      </trkpt>
      <trkpt lat="44.0605" lon="4.09935">
        <ele>126</ele>
        <time>2019-10-13T11:20:01Z</time>
      </trkpt>
      <trkpt lat="44.06054" lon="4.09964">
        <ele>125</ele>
        <time>2019-10-13T11:20:04Z</time>
      </trkpt>
      <trkpt lat="44.06058" lon="4.09992">
        <ele>124</ele>
        <time>2019-10-13T11:20:07Z</time>
      </trkpt>
      <trkpt lat="44.06065" lon="4.10021">
        <ele>123</ele>
        <time>2019-10-13T11:20:11Z</time>
      </trkpt>
      <trkpt lat="44.0607" lon="4.10042">
        <ele>122</ele>
        <time>2019-10-13T11:20:15Z</time>
      </trkpt>
      <trkpt lat="44.06074" lon="4.10071">
        <ele>120</ele>
        <time>2019-10-13T11:20:21Z</time>
      </trkpt>
      <trkpt lat="44.06074" lon="4.10099">
        <ele>119</ele>
        <time>2019-10-13T11:20:25Z</time>
      </trkpt>
      <trkpt lat="44.06073" lon="4.10131">
        <ele>118</ele>
        <time>2019-10-13T11:20:29Z</time>
      </trkpt>
      <trkpt lat="44.06073" lon="4.10156">
        <ele>118</ele>
        <time>2019-10-13T11:20:32Z</time>
      </trkpt>
      <trkpt lat="44.06074" lon="4.10184">
        <ele>117</ele>
        <time>2019-10-13T11:20:35Z</time>
      </trkpt>
      <trkpt lat="44.06075" lon="4.10192">
        <ele>117</ele>
        <time>2019-10-13T11:20:36Z</time>
      </trkpt>
      <trkpt lat="44.06083" lon="4.10216">
        <ele>116</ele>
        <time>2019-10-13T11:20:39Z</time>
      </trkpt>
      <trkpt lat="44.06085" lon="4.10223">
        <ele>116</ele>
        <time>2019-10-13T11:20:40Z</time>
      </trkpt>
      <trkpt lat="44.06097" lon="4.10253">
        <ele>115</ele>
        <time>2019-10-13T11:20:45Z</time>
      </trkpt>
      <trkpt lat="44.06099" lon="4.10259">
        <ele>115</ele>
        <time>2019-10-13T11:20:46Z</time>
      </trkpt>
      <trkpt lat="44.06108" lon="4.10273">
        <ele>114</ele>
        <time>2019-10-13T11:20:49Z</time>
      </trkpt>
      <trkpt lat="44.06124" lon="4.10299">
        <ele>114</ele>
        <time>2019-10-13T11:20:55Z</time>
      </trkpt>
      <trkpt lat="44.06126" lon="4.10303">
        <ele>114</ele>
        <time>2019-10-13T11:20:56Z</time>
      </trkpt>
      <trkpt lat="44.06133" lon="4.10318">
        <ele>113</ele>
        <time>2019-10-13T11:21:01Z</time>
      </trkpt>
      <trkpt lat="44.06135" lon="4.10319">
        <ele>112</ele>
        <time>2019-10-13T11:21:09Z</time>
      </trkpt>
      <trkpt lat="44.06138" lon="4.10327">
        <ele>111</ele>
        <time>2019-10-13T11:21:15Z</time>
      </trkpt>
      <trkpt lat="44.06142" lon="4.1034">
        <ele>111</ele>
        <time>2019-10-13T11:21:20Z</time>
      </trkpt>
      <trkpt lat="44.06152" lon="4.10364">
        <ele>111</ele>
        <time>2019-10-13T11:21:26Z</time>
      </trkpt>
      <trkpt lat="44.06161" lon="4.10387">
        <ele>111</ele>
        <time>2019-10-13T11:21:31Z</time>
      </trkpt>
      <trkpt lat="44.06161" lon="4.10406">
        <ele>111</ele>
        <time>2019-10-13T11:21:35Z</time>
      </trkpt>
      <trkpt lat="44.06157" lon="4.1042">
        <ele>111</ele>
        <time>2019-10-13T11:21:40Z</time>
      </trkpt>
      <trkpt lat="44.06156" lon="4.1042">
        <ele>111</ele>
        <time>2019-10-13T11:21:47Z</time>
      </trkpt>
      <trkpt lat="44.06154" lon="4.10426">
        <ele>111</ele>
        <time>2019-10-13T11:22:53Z</time>
      </trkpt>
      <trkpt lat="44.06151" lon="4.10441">
        <ele>111</ele>
        <time>2019-10-13T11:22:58Z</time>
      </trkpt>
      <trkpt lat="44.06151" lon="4.10445">
        <ele>111</ele>
        <time>2019-10-13T11:22:59Z</time>
      </trkpt>
      <trkpt lat="44.06152" lon="4.10476">
        <ele>111</ele>
        <time>2019-10-13T11:23:06Z</time>
      </trkpt>
      <trkpt lat="44.06149" lon="4.10502">
        <ele>111</ele>
        <time>2019-10-13T11:23:12Z</time>
      </trkpt>
      <trkpt lat="44.0615" lon="4.10528">
        <ele>111</ele>
        <time>2019-10-13T11:23:17Z</time>
      </trkpt>
      <trkpt lat="44.06149" lon="4.10533">
        <ele>111</ele>
        <time>2019-10-13T11:23:19Z</time>
      </trkpt>
      <trkpt lat="44.06137" lon="4.10537">
        <ele>111</ele>
        <time>2019-10-13T11:23:24Z</time>
      </trkpt>
      <trkpt lat="44.06117" lon="4.1054">
        <ele>111</ele>
        <time>2019-10-13T11:23:30Z</time>
      </trkpt>
      <trkpt lat="44.061" lon="4.10536">
        <ele>111</ele>
        <time>2019-10-13T11:23:35Z</time>
      </trkpt>
      <trkpt lat="44.06082" lon="4.10525">
        <ele>111</ele>
        <time>2019-10-13T11:23:41Z</time>
      </trkpt>
      <trkpt lat="44.06067" lon="4.10513">
        <ele>111</ele>
        <time>2019-10-13T11:23:48Z</time>
      </trkpt>
      <trkpt lat="44.06051" lon="4.10504">
        <ele>111</ele>
        <time>2019-10-13T11:23:55Z</time>
      </trkpt>
      <trkpt lat="44.06034" lon="4.10498">
        <ele>111</ele>
        <time>2019-10-13T11:24:01Z</time>
      </trkpt>
      <trkpt lat="44.06014" lon="4.10495">
        <ele>111</ele>
        <time>2019-10-13T11:24:07Z</time>
      </trkpt>
      <trkpt lat="44.05995" lon="4.10488">
        <ele>111</ele>
        <time>2019-10-13T11:24:13Z</time>
      </trkpt>
      <trkpt lat="44.05979" lon="4.10482">
        <ele>111</ele>
        <time>2019-10-13T11:24:19Z</time>
      </trkpt>
      <trkpt lat="44.05958" lon="4.10484">
        <ele>111</ele>
        <time>2019-10-13T11:24:25Z</time>
      </trkpt>
      <trkpt lat="44.0594" lon="4.10488">
        <ele>111</ele>
        <time>2019-10-13T11:24:30Z</time>
      </trkpt>
      <trkpt lat="44.05924" lon="4.10498">
        <ele>111</ele>
        <time>2019-10-13T11:24:35Z</time>
      </trkpt>
      <trkpt lat="44.05905" lon="4.10501">
        <ele>111</ele>
        <time>2019-10-13T11:24:40Z</time>
      </trkpt>
      <trkpt lat="44.05886" lon="4.10502">
        <ele>111</ele>
        <time>2019-10-13T11:24:45Z</time>
      </trkpt>
      <trkpt lat="44.05882" lon="4.10503">
        <ele>111</ele>
        <time>2019-10-13T11:24:46Z</time>
      </trkpt>
      <trkpt lat="44.05867" lon="4.10512">
        <ele>111</ele>
        <time>2019-10-13T11:24:51Z</time>
      </trkpt>
      <trkpt lat="44.05864" lon="4.10512">
        <ele>111</ele>
        <time>2019-10-13T11:24:52Z</time>
      </trkpt>
      <trkpt lat="44.05854" lon="4.10509">
        <ele>111</ele>
        <time>2019-10-13T11:24:55Z</time>
      </trkpt>
      <trkpt lat="44.0585" lon="4.10499">
        <ele>111</ele>
        <time>2019-10-13T11:24:59Z</time>
      </trkpt>
      <trkpt lat="44.0585" lon="4.10496">
        <ele>111</ele>
        <time>2019-10-13T11:25:00Z</time>
      </trkpt>
      <trkpt lat="44.0585" lon="4.10494">
        <ele>111</ele>
        <time>2019-10-13T11:25:01Z</time>
      </trkpt>
      <trkpt lat="44.05844" lon="4.10489">
        <ele>111</ele>
        <time>2019-10-13T11:25:05Z</time>
      </trkpt>
      <trkpt lat="44.05842" lon="4.10489">
        <ele>111</ele>
        <time>2019-10-13T11:25:06Z</time>
      </trkpt>
      <trkpt lat="44.05827" lon="4.10494">
        <ele>111</ele>
        <time>2019-10-13T11:25:11Z</time>
      </trkpt>
      <trkpt lat="44.05805" lon="4.10496">
        <ele>111</ele>
        <time>2019-10-13T11:25:17Z</time>
      </trkpt>
      <trkpt lat="44.05791" lon="4.10499">
        <ele>111</ele>
        <time>2019-10-13T11:25:21Z</time>
      </trkpt>
      <trkpt lat="44.05779" lon="4.10506">
        <ele>111</ele>
        <time>2019-10-13T11:25:25Z</time>
      </trkpt>
      <trkpt lat="44.05767" lon="4.10516">
        <ele>112</ele>
        <time>2019-10-13T11:25:29Z</time>
      </trkpt>
      <trkpt lat="44.05764" lon="4.10519">
        <ele>112</ele>
        <time>2019-10-13T11:25:30Z</time>
      </trkpt>
      <trkpt lat="44.05747" lon="4.10523">
        <ele>112</ele>
        <time>2019-10-13T11:25:35Z</time>
      </trkpt>
      <trkpt lat="44.05729" lon="4.10528">
        <ele>112</ele>
        <time>2019-10-13T11:25:40Z</time>
      </trkpt>
      <trkpt lat="44.0571" lon="4.10535">
        <ele>113</ele>
        <time>2019-10-13T11:25:45Z</time>
      </trkpt>
      <trkpt lat="44.0569" lon="4.10546">
        <ele>113</ele>
        <time>2019-10-13T11:25:50Z</time>
      </trkpt>
      <trkpt lat="44.05673" lon="4.10556">
        <ele>113</ele>
        <time>2019-10-13T11:25:54Z</time>
      </trkpt>
      <trkpt lat="44.05655" lon="4.10564">
        <ele>113</ele>
        <time>2019-10-13T11:25:58Z</time>
      </trkpt>
      <trkpt lat="44.05638" lon="4.10573">
        <ele>113</ele>
        <time>2019-10-13T11:26:02Z</time>
      </trkpt>
      <trkpt lat="44.0562" lon="4.1058">
        <ele>113</ele>
        <time>2019-10-13T11:26:06Z</time>
      </trkpt>
      <trkpt lat="44.05603" lon="4.10588">
        <ele>113</ele>
        <time>2019-10-13T11:26:10Z</time>
      </trkpt>
      <trkpt lat="44.05583" lon="4.10594">
        <ele>113</ele>
        <time>2019-10-13T11:26:15Z</time>
      </trkpt>
      <trkpt lat="44.05563" lon="4.10598">
        <ele>113</ele>
        <time>2019-10-13T11:26:20Z</time>
      </trkpt>
      <trkpt lat="44.05555" lon="4.106">
        <ele>113</ele>
        <time>2019-10-13T11:26:22Z</time>
      </trkpt>
      <trkpt lat="44.0553" lon="4.10608">
        <ele>113</ele>
        <time>2019-10-13T11:26:28Z</time>
      </trkpt>
      <trkpt lat="44.05509" lon="4.10618">
        <ele>113</ele>
        <time>2019-10-13T11:26:33Z</time>
      </trkpt>
      <trkpt lat="44.05491" lon="4.10626">
        <ele>113</ele>
        <time>2019-10-13T11:26:37Z</time>
      </trkpt>
      <trkpt lat="44.05473" lon="4.10634">
        <ele>113</ele>
        <time>2019-10-13T11:26:41Z</time>
      </trkpt>
      <trkpt lat="44.05456" lon="4.10643">
        <ele>113</ele>
        <time>2019-10-13T11:26:45Z</time>
      </trkpt>
      <trkpt lat="44.05439" lon="4.10653">
        <ele>113</ele>
        <time>2019-10-13T11:26:49Z</time>
      </trkpt>
      <trkpt lat="44.05422" lon="4.10667">
        <ele>113</ele>
        <time>2019-10-13T11:26:53Z</time>
      </trkpt>
      <trkpt lat="44.05418" lon="4.1067">
        <ele>113</ele>
        <time>2019-10-13T11:26:54Z</time>
      </trkpt>
      <trkpt lat="44.05414" lon="4.10672">
        <ele>113</ele>
        <time>2019-10-13T11:26:55Z</time>
      </trkpt>
      <trkpt lat="44.05384" lon="4.10684">
        <ele>113</ele>
        <time>2019-10-13T11:27:02Z</time>
      </trkpt>
      <trkpt lat="44.05362" lon="4.10694">
        <ele>113</ele>
        <time>2019-10-13T11:27:07Z</time>
      </trkpt>
      <trkpt lat="44.05344" lon="4.10702">
        <ele>113</ele>
        <time>2019-10-13T11:27:11Z</time>
      </trkpt>
      <trkpt lat="44.05325" lon="4.10712">
        <ele>113</ele>
        <time>2019-10-13T11:27:15Z</time>
      </trkpt>
      <trkpt lat="44.05321" lon="4.10714">
        <ele>113</ele>
        <time>2019-10-13T11:27:16Z</time>
      </trkpt>
      <trkpt lat="44.05309" lon="4.10724">
        <ele>112</ele>
        <time>2019-10-13T11:27:19Z</time>
      </trkpt>
      <trkpt lat="44.05287" lon="4.10741">
        <ele>112</ele>
        <time>2019-10-13T11:27:25Z</time>
      </trkpt>
      <trkpt lat="44.05269" lon="4.1076">
        <ele>111</ele>
        <time>2019-10-13T11:27:30Z</time>
      </trkpt>
      <trkpt lat="44.05254" lon="4.10781">
        <ele>111</ele>
        <time>2019-10-13T11:27:35Z</time>
      </trkpt>
      <trkpt lat="44.05251" lon="4.10785">
        <ele>111</ele>
        <time>2019-10-13T11:27:36Z</time>
      </trkpt>
      <trkpt lat="44.05242" lon="4.10806">
        <ele>111</ele>
        <time>2019-10-13T11:27:40Z</time>
      </trkpt>
      <trkpt lat="44.05225" lon="4.10827">
        <ele>111</ele>
        <time>2019-10-13T11:27:45Z</time>
      </trkpt>
      <trkpt lat="44.05207" lon="4.10838">
        <ele>111</ele>
        <time>2019-10-13T11:27:49Z</time>
      </trkpt>
      <trkpt lat="44.05202" lon="4.1084">
        <ele>111</ele>
        <time>2019-10-13T11:27:50Z</time>
      </trkpt>
      <trkpt lat="44.05168" lon="4.10859">
        <ele>111</ele>
        <time>2019-10-13T11:27:58Z</time>
      </trkpt>
      <trkpt lat="44.05149" lon="4.10868">
        <ele>111</ele>
        <time>2019-10-13T11:28:02Z</time>
      </trkpt>
      <trkpt lat="44.0514" lon="4.10873">
        <ele>111</ele>
        <time>2019-10-13T11:28:04Z</time>
      </trkpt>
      <trkpt lat="44.05132" lon="4.1088">
        <ele>111</ele>
        <time>2019-10-13T11:28:06Z</time>
      </trkpt>
      <trkpt lat="44.05124" lon="4.10888">
        <ele>110</ele>
        <time>2019-10-13T11:28:08Z</time>
      </trkpt>
      <trkpt lat="44.05115" lon="4.10894">
        <ele>110</ele>
        <time>2019-10-13T11:28:10Z</time>
      </trkpt>
      <trkpt lat="44.05095" lon="4.10897">
        <ele>110</ele>
        <time>2019-10-13T11:28:14Z</time>
      </trkpt>
      <trkpt lat="44.0507" lon="4.10895">
        <ele>109</ele>
        <time>2019-10-13T11:28:19Z</time>
      </trkpt>
      <trkpt lat="44.05065" lon="4.10894">
        <ele>109</ele>
        <time>2019-10-13T11:28:20Z</time>
      </trkpt>
      <trkpt lat="44.05051" lon="4.10892">
        <ele>109</ele>
        <time>2019-10-13T11:28:23Z</time>
      </trkpt>
      <trkpt lat="44.05032" lon="4.10887">
        <ele>109</ele>
        <time>2019-10-13T11:28:27Z</time>
      </trkpt>
      <trkpt lat="44.05022" lon="4.10887">
        <ele>109</ele>
        <time>2019-10-13T11:28:29Z</time>
      </trkpt>
      <trkpt lat="44.05008" lon="4.10883">
        <ele>109</ele>
        <time>2019-10-13T11:28:32Z</time>
      </trkpt>
      <trkpt lat="44.04985" lon="4.10877">
        <ele>109</ele>
        <time>2019-10-13T11:28:37Z</time>
      </trkpt>
      <trkpt lat="44.04981" lon="4.10879">
        <ele>109</ele>
        <time>2019-10-13T11:28:38Z</time>
      </trkpt>
      <trkpt lat="44.04976" lon="4.10881">
        <ele>109</ele>
        <time>2019-10-13T11:28:39Z</time>
      </trkpt>
      <trkpt lat="44.04958" lon="4.10881">
        <ele>109</ele>
        <time>2019-10-13T11:28:43Z</time>
      </trkpt>
      <trkpt lat="44.04944" lon="4.1088">
        <ele>109</ele>
        <time>2019-10-13T11:28:46Z</time>
      </trkpt>
      <trkpt lat="44.04925" lon="4.10885">
        <ele>109</ele>
        <time>2019-10-13T11:28:50Z</time>
      </trkpt>
      <trkpt lat="44.04911" lon="4.10891">
        <ele>109</ele>
        <time>2019-10-13T11:28:53Z</time>
      </trkpt>
      <trkpt lat="44.04876" lon="4.1091">
        <ele>110</ele>
        <time>2019-10-13T11:29:01Z</time>
      </trkpt>
      <trkpt lat="44.04855" lon="4.10913">
        <ele>110</ele>
        <time>2019-10-13T11:29:06Z</time>
      </trkpt>
      <trkpt lat="44.04835" lon="4.10916">
        <ele>111</ele>
        <time>2019-10-13T11:29:11Z</time>
      </trkpt>
      <trkpt lat="44.04813" lon="4.10918">
        <ele>111</ele>
        <time>2019-10-13T11:29:16Z</time>
      </trkpt>
      <trkpt lat="44.04809" lon="4.10918">
        <ele>111</ele>
        <time>2019-10-13T11:29:17Z</time>
      </trkpt>
      <trkpt lat="44.04804" lon="4.10919">
        <ele>111</ele>
        <time>2019-10-13T11:29:18Z</time>
      </trkpt>
      <trkpt lat="44.04786" lon="4.10918">
        <ele>111</ele>
        <time>2019-10-13T11:29:22Z</time>
      </trkpt>
      <trkpt lat="44.04772" lon="4.10916">
        <ele>112</ele>
        <time>2019-10-13T11:29:25Z</time>
      </trkpt>
      <trkpt lat="44.04763" lon="4.10917">
        <ele>112</ele>
        <time>2019-10-13T11:29:27Z</time>
      </trkpt>
      <trkpt lat="44.04753" lon="4.10917">
        <ele>112</ele>
        <time>2019-10-13T11:29:29Z</time>
      </trkpt>
      <trkpt lat="44.04734" lon="4.10912">
        <ele>112</ele>
        <time>2019-10-13T11:29:33Z</time>
      </trkpt>
      <trkpt lat="44.0471" lon="4.10899">
        <ele>113</ele>
        <time>2019-10-13T11:29:39Z</time>
      </trkpt>
      <trkpt lat="44.04706" lon="4.10897">
        <ele>113</ele>
        <time>2019-10-13T11:29:40Z</time>
      </trkpt>
      <trkpt lat="44.04688" lon="4.10891">
        <ele>113</ele>
        <time>2019-10-13T11:29:44Z</time>
      </trkpt>
      <trkpt lat="44.04683" lon="4.1089">
        <ele>113</ele>
        <time>2019-10-13T11:29:45Z</time>
      </trkpt>
      <trkpt lat="44.0466" lon="4.10897">
        <ele>113</ele>
        <time>2019-10-13T11:29:50Z</time>
      </trkpt>
      <trkpt lat="44.04656" lon="4.10899">
        <ele>113</ele>
        <time>2019-10-13T11:29:51Z</time>
      </trkpt>
      <trkpt lat="44.04651" lon="4.10898">
        <ele>113</ele>
        <time>2019-10-13T11:29:52Z</time>
      </trkpt>
      <trkpt lat="44.04642" lon="4.10899">
        <ele>113</ele>
        <time>2019-10-13T11:29:54Z</time>
      </trkpt>
      <trkpt lat="44.04628" lon="4.10896">
        <ele>113</ele>
        <time>2019-10-13T11:29:57Z</time>
      </trkpt>
      <trkpt lat="44.04612" lon="4.10892">
        <ele>113</ele>
        <time>2019-10-13T11:30:01Z</time>
      </trkpt>
      <trkpt lat="44.04593" lon="4.10882">
        <ele>113</ele>
        <time>2019-10-13T11:30:06Z</time>
      </trkpt>
      <trkpt lat="44.0459" lon="4.1088">
        <ele>113</ele>
        <time>2019-10-13T11:30:07Z</time>
      </trkpt>
      <trkpt lat="44.04572" lon="4.10873">
        <ele>113</ele>
        <time>2019-10-13T11:30:12Z</time>
      </trkpt>
      <trkpt lat="44.04552" lon="4.10869">
        <ele>113</ele>
        <time>2019-10-13T11:30:17Z</time>
      </trkpt>
      <trkpt lat="44.0454" lon="4.10869">
        <ele>113</ele>
        <time>2019-10-13T11:30:20Z</time>
      </trkpt>
      <trkpt lat="44.04528" lon="4.10875">
        <ele>113</ele>
        <time>2019-10-13T11:30:23Z</time>
      </trkpt>
      <trkpt lat="44.04504" lon="4.10889">
        <ele>113</ele>
        <time>2019-10-13T11:30:29Z</time>
      </trkpt>
      <trkpt lat="44.04484" lon="4.10899">
        <ele>113</ele>
        <time>2019-10-13T11:30:34Z</time>
      </trkpt>
      <trkpt lat="44.04465" lon="4.10913">
        <ele>113</ele>
        <time>2019-10-13T11:30:39Z</time>
      </trkpt>
      <trkpt lat="44.04445" lon="4.10924">
        <ele>113</ele>
        <time>2019-10-13T11:30:44Z</time>
      </trkpt>
      <trkpt lat="44.04432" lon="4.1093">
        <ele>112</ele>
        <time>2019-10-13T11:30:47Z</time>
      </trkpt>
      <trkpt lat="44.04413" lon="4.10945">
        <ele>112</ele>
        <time>2019-10-13T11:30:52Z</time>
      </trkpt>
      <trkpt lat="44.04396" lon="4.10965">
        <ele>111</ele>
        <time>2019-10-13T11:30:57Z</time>
      </trkpt>
      <trkpt lat="44.04389" lon="4.10974">
        <ele>111</ele>
        <time>2019-10-13T11:30:59Z</time>
      </trkpt>
      <trkpt lat="44.04382" lon="4.10981">
        <ele>111</ele>
        <time>2019-10-13T11:31:01Z</time>
      </trkpt>
      <trkpt lat="44.04374" lon="4.10988">
        <ele>111</ele>
        <time>2019-10-13T11:31:03Z</time>
      </trkpt>
      <trkpt lat="44.0435" lon="4.10992">
        <ele>111</ele>
        <time>2019-10-13T11:31:08Z</time>
      </trkpt>
      <trkpt lat="44.04345" lon="4.10992">
        <ele>111</ele>
        <time>2019-10-13T11:31:09Z</time>
      </trkpt>
      <trkpt lat="44.04337" lon="4.10991">
        <ele>111</ele>
        <time>2019-10-13T11:31:11Z</time>
      </trkpt>
      <trkpt lat="44.04324" lon="4.11">
        <ele>111</ele>
        <time>2019-10-13T11:31:15Z</time>
      </trkpt>
      <trkpt lat="44.04322" lon="4.11005">
        <ele>111</ele>
        <time>2019-10-13T11:31:16Z</time>
      </trkpt>
      <trkpt lat="44.04312" lon="4.11027">
        <ele>111</ele>
        <time>2019-10-13T11:31:21Z</time>
      </trkpt>
      <trkpt lat="44.04301" lon="4.11049">
        <ele>110</ele>
        <time>2019-10-13T11:31:26Z</time>
      </trkpt>
      <trkpt lat="44.04284" lon="4.11066">
        <ele>110</ele>
        <time>2019-10-13T11:31:31Z</time>
      </trkpt>
      <trkpt lat="44.04266" lon="4.11083">
        <ele>109</ele>
        <time>2019-10-13T11:31:36Z</time>
      </trkpt>
      <trkpt lat="44.04252" lon="4.11098">
        <ele>109</ele>
        <time>2019-10-13T11:31:40Z</time>
      </trkpt>
      <trkpt lat="44.04236" lon="4.11112">
        <ele>109</ele>
        <time>2019-10-13T11:31:44Z</time>
      </trkpt>
      <trkpt lat="44.04233" lon="4.11116">
        <ele>109</ele>
        <time>2019-10-13T11:31:45Z</time>
      </trkpt>
      <trkpt lat="44.04219" lon="4.11134">
        <ele>109</ele>
        <time>2019-10-13T11:31:49Z</time>
      </trkpt>
      <trkpt lat="44.04215" lon="4.11139">
        <ele>109</ele>
        <time>2019-10-13T11:31:50Z</time>
      </trkpt>
      <trkpt lat="44.04196" lon="4.11159">
        <ele>109</ele>
        <time>2019-10-13T11:31:55Z</time>
      </trkpt>
      <trkpt lat="44.0418" lon="4.11175">
        <ele>109</ele>
        <time>2019-10-13T11:31:59Z</time>
      </trkpt>
      <trkpt lat="44.04176" lon="4.1118">
        <ele>108</ele>
        <time>2019-10-13T11:32:00Z</time>
      </trkpt>
      <trkpt lat="44.04163" lon="4.112">
        <ele>108</ele>
        <time>2019-10-13T11:32:04Z</time>
      </trkpt>
      <trkpt lat="44.04156" lon="4.1121">
        <ele>108</ele>
        <time>2019-10-13T11:32:06Z</time>
      </trkpt>
      <trkpt lat="44.04122" lon="4.11252">
        <ele>107</ele>
        <time>2019-10-13T11:32:17Z</time>
      </trkpt>
      <trkpt lat="44.0412" lon="4.11254">
        <ele>107</ele>
        <time>2019-10-13T11:32:18Z</time>
      </trkpt>
      <trkpt lat="44.04105" lon="4.11265">
        <ele>107</ele>
        <time>2019-10-13T11:32:24Z</time>
      </trkpt>
      <trkpt lat="44.04092" lon="4.11263">
        <ele>107</ele>
        <time>2019-10-13T11:32:28Z</time>
      </trkpt>
      <trkpt lat="44.04077" lon="4.11258">
        <ele>107</ele>
        <time>2019-10-13T11:32:33Z</time>
      </trkpt>
      <trkpt lat="44.04056" lon="4.11256">
        <ele>107</ele>
        <time>2019-10-13T11:32:39Z</time>
      </trkpt>
      <trkpt lat="44.04037" lon="4.11253">
        <ele>107</ele>
        <time>2019-10-13T11:32:45Z</time>
      </trkpt>
      <trkpt lat="44.04017" lon="4.11252">
        <ele>107</ele>
        <time>2019-10-13T11:32:51Z</time>
      </trkpt>
      <trkpt lat="44.03997" lon="4.11258">
        <ele>107</ele>
        <time>2019-10-13T11:32:57Z</time>
      </trkpt>
      <trkpt lat="44.03964" lon="4.11277">
        <ele>107</ele>
        <time>2019-10-13T11:33:06Z</time>
      </trkpt>
      <trkpt lat="44.03943" lon="4.11287">
        <ele>107</ele>
        <time>2019-10-13T11:33:11Z</time>
      </trkpt>
      <trkpt lat="44.03927" lon="4.11296">
        <ele>107</ele>
        <time>2019-10-13T11:33:15Z</time>
      </trkpt>
      <trkpt lat="44.03912" lon="4.11291">
        <ele>107</ele>
        <time>2019-10-13T11:33:19Z</time>
      </trkpt>
      <trkpt lat="44.0391" lon="4.11286">
        <ele>107</ele>
        <time>2019-10-13T11:33:20Z</time>
      </trkpt>
      <trkpt lat="44.03905" lon="4.11277">
        <ele>107</ele>
        <time>2019-10-13T11:33:22Z</time>
      </trkpt>
      <trkpt lat="44.03891" lon="4.11252">
        <ele>107</ele>
        <time>2019-10-13T11:33:28Z</time>
      </trkpt>
      <trkpt lat="44.03883" lon="4.11225">
        <ele>107</ele>
        <time>2019-10-13T11:33:33Z</time>
      </trkpt>
      <trkpt lat="44.0388" lon="4.1122">
        <ele>107</ele>
        <time>2019-10-13T11:33:34Z</time>
      </trkpt>
      <trkpt lat="44.03866" lon="4.11217">
        <ele>106</ele>
        <time>2019-10-13T11:33:38Z</time>
      </trkpt>
      <trkpt lat="44.03862" lon="4.11217">
        <ele>106</ele>
        <time>2019-10-13T11:33:39Z</time>
      </trkpt>
      <trkpt lat="44.03851" lon="4.11218">
        <ele>106</ele>
        <time>2019-10-13T11:33:42Z</time>
      </trkpt>
      <trkpt lat="44.03828" lon="4.11217">
        <ele>105</ele>
        <time>2019-10-13T11:33:48Z</time>
      </trkpt>
      <trkpt lat="44.03809" lon="4.11216">
        <ele>105</ele>
        <time>2019-10-13T11:33:53Z</time>
      </trkpt>
      <trkpt lat="44.03802" lon="4.11216">
        <ele>105</ele>
        <time>2019-10-13T11:33:55Z</time>
      </trkpt>
      <trkpt lat="44.0379" lon="4.11198">
        <ele>105</ele>
        <time>2019-10-13T11:34:00Z</time>
      </trkpt>
      <trkpt lat="44.03793" lon="4.11171">
        <ele>105</ele>
        <time>2019-10-13T11:34:05Z</time>
      </trkpt>
      <trkpt lat="44.03799" lon="4.11143">
        <ele>105</ele>
        <time>2019-10-13T11:34:10Z</time>
      </trkpt>
      <trkpt lat="44.03802" lon="4.11132">
        <ele>105</ele>
        <time>2019-10-13T11:34:12Z</time>
      </trkpt>
      <trkpt lat="44.03806" lon="4.1111">
        <ele>105</ele>
        <time>2019-10-13T11:34:16Z</time>
      </trkpt>
      <trkpt lat="44.03798" lon="4.11076">
        <ele>105</ele>
        <time>2019-10-13T11:34:22Z</time>
      </trkpt>
      <trkpt lat="44.03791" lon="4.11056">
        <ele>105</ele>
        <time>2019-10-13T11:34:26Z</time>
      </trkpt>
      <trkpt lat="44.03785" lon="4.11036">
        <ele>105</ele>
        <time>2019-10-13T11:34:30Z</time>
      </trkpt>
      <trkpt lat="44.03775" lon="4.1102">
        <ele>105</ele>
        <time>2019-10-13T11:34:34Z</time>
      </trkpt>
      <trkpt lat="44.03757" lon="4.11022">
        <ele>105</ele>
        <time>2019-10-13T11:34:39Z</time>
      </trkpt>
      <trkpt lat="44.03738" lon="4.1103">
        <ele>105</ele>
        <time>2019-10-13T11:34:44Z</time>
      </trkpt>
      <trkpt lat="44.0372" lon="4.11036">
        <ele>105</ele>
        <time>2019-10-13T11:34:49Z</time>
      </trkpt>
      <trkpt lat="44.0371" lon="4.11046">
        <ele>105</ele>
        <time>2019-10-13T11:34:53Z</time>
      </trkpt>
      <trkpt lat="44.03709" lon="4.11049">
        <ele>105</ele>
        <time>2019-10-13T11:34:54Z</time>
      </trkpt>
      <trkpt lat="44.03705" lon="4.11072">
        <ele>105</ele>
        <time>2019-10-13T11:35:00Z</time>
      </trkpt>
      <trkpt lat="44.03698" lon="4.11097">
        <ele>105</ele>
        <time>2019-10-13T11:35:07Z</time>
      </trkpt>
      <trkpt lat="44.03693" lon="4.11118">
        <ele>105</ele>
        <time>2019-10-13T11:35:13Z</time>
      </trkpt>
      <trkpt lat="44.03688" lon="4.11139">
        <ele>105</ele>
        <time>2019-10-13T11:35:18Z</time>
      </trkpt>
      <trkpt lat="44.03686" lon="4.11168">
        <ele>105</ele>
        <time>2019-10-13T11:35:23Z</time>
      </trkpt>
      <trkpt lat="44.03683" lon="4.11195">
        <ele>105</ele>
        <time>2019-10-13T11:35:27Z</time>
      </trkpt>
      <trkpt lat="44.03679" lon="4.11225">
        <ele>106</ele>
        <time>2019-10-13T11:35:32Z</time>
      </trkpt>
      <trkpt lat="44.03677" lon="4.11238">
        <ele>106</ele>
        <time>2019-10-13T11:35:34Z</time>
      </trkpt>
      <trkpt lat="44.03674" lon="4.1126">
        <ele>106</ele>
        <time>2019-10-13T11:35:38Z</time>
      </trkpt>
      <trkpt lat="44.03665" lon="4.11297">
        <ele>106</ele>
        <time>2019-10-13T11:35:44Z</time>
      </trkpt>
      <trkpt lat="44.03659" lon="4.11322">
        <ele>107</ele>
        <time>2019-10-13T11:35:48Z</time>
      </trkpt>
      <trkpt lat="44.03658" lon="4.11329">
        <ele>107</ele>
        <time>2019-10-13T11:35:49Z</time>
      </trkpt>
      <trkpt lat="44.03657" lon="4.11344">
        <ele>107</ele>
        <time>2019-10-13T11:35:51Z</time>
      </trkpt>
      <trkpt lat="44.03645" lon="4.11379">
        <ele>107</ele>
        <time>2019-10-13T11:35:56Z</time>
      </trkpt>
      <trkpt lat="44.03637" lon="4.11398">
        <ele>107</ele>
        <time>2019-10-13T11:35:59Z</time>
      </trkpt>
      <trkpt lat="44.03624" lon="4.1143">
        <ele>107</ele>
        <time>2019-10-13T11:36:04Z</time>
      </trkpt>
      <trkpt lat="44.03616" lon="4.11449">
        <ele>107</ele>
        <time>2019-10-13T11:36:07Z</time>
      </trkpt>
      <trkpt lat="44.03603" lon="4.11482">
        <ele>107</ele>
        <time>2019-10-13T11:36:12Z</time>
      </trkpt>
      <trkpt lat="44.03601" lon="4.11487">
        <ele>107</ele>
        <time>2019-10-13T11:36:13Z</time>
      </trkpt>
      <trkpt lat="44.03585" lon="4.11514">
        <ele>107</ele>
        <time>2019-10-13T11:36:18Z</time>
      </trkpt>
      <trkpt lat="44.03573" lon="4.11537">
        <ele>107</ele>
        <time>2019-10-13T11:36:22Z</time>
      </trkpt>
      <trkpt lat="44.03561" lon="4.11557">
        <ele>107</ele>
        <time>2019-10-13T11:36:26Z</time>
      </trkpt>
      <trkpt lat="44.03549" lon="4.11582">
        <ele>107</ele>
        <time>2019-10-13T11:36:31Z</time>
      </trkpt>
      <trkpt lat="44.03543" lon="4.11591">
        <ele>107</ele>
        <time>2019-10-13T11:36:33Z</time>
      </trkpt>
      <trkpt lat="44.03537" lon="4.11604">
        <ele>107</ele>
        <time>2019-10-13T11:36:36Z</time>
      </trkpt>
      <trkpt lat="44.03522" lon="4.11633">
        <ele>107</ele>
        <time>2019-10-13T11:36:42Z</time>
      </trkpt>
      <trkpt lat="44.03512" lon="4.11655">
        <ele>107</ele>
        <time>2019-10-13T11:36:46Z</time>
      </trkpt>
      <trkpt lat="44.03504" lon="4.11677">
        <ele>107</ele>
        <time>2019-10-13T11:36:50Z</time>
      </trkpt>
      <trkpt lat="44.03502" lon="4.11682">
        <ele>107</ele>
        <time>2019-10-13T11:36:51Z</time>
      </trkpt>
      <trkpt lat="44.03492" lon="4.11712">
        <ele>107</ele>
        <time>2019-10-13T11:36:56Z</time>
      </trkpt>
      <trkpt lat="44.03489" lon="4.11724">
        <ele>107</ele>
        <time>2019-10-13T11:36:58Z</time>
      </trkpt>
      <trkpt lat="44.0348" lon="4.11752">
        <ele>107</ele>
        <time>2019-10-13T11:37:03Z</time>
      </trkpt>
      <trkpt lat="44.03473" lon="4.11788">
        <ele>107</ele>
        <time>2019-10-13T11:37:09Z</time>
      </trkpt>
      <trkpt lat="44.03472" lon="4.11794">
        <ele>107</ele>
        <time>2019-10-13T11:37:10Z</time>
      </trkpt>
      <trkpt lat="44.03471" lon="4.118">
        <ele>107</ele>
        <time>2019-10-13T11:37:11Z</time>
      </trkpt>
      <trkpt lat="44.03466" lon="4.11831">
        <ele>107</ele>
        <time>2019-10-13T11:37:16Z</time>
      </trkpt>
      <trkpt lat="44.03464" lon="4.1185">
        <ele>107</ele>
        <time>2019-10-13T11:37:19Z</time>
      </trkpt>
      <trkpt lat="44.03459" lon="4.11885">
        <ele>107</ele>
        <time>2019-10-13T11:37:25Z</time>
      </trkpt>
      <trkpt lat="44.03458" lon="4.11891">
        <ele>107</ele>
        <time>2019-10-13T11:37:26Z</time>
      </trkpt>
      <trkpt lat="44.03457" lon="4.11922">
        <ele>107</ele>
        <time>2019-10-13T11:37:31Z</time>
      </trkpt>
      <trkpt lat="44.03457" lon="4.11928">
        <ele>107</ele>
        <time>2019-10-13T11:37:32Z</time>
      </trkpt>
      <trkpt lat="44.03457" lon="4.11941">
        <ele>107</ele>
        <time>2019-10-13T11:37:34Z</time>
      </trkpt>
      <trkpt lat="44.0345" lon="4.11975">
        <ele>108</ele>
        <time>2019-10-13T11:37:40Z</time>
      </trkpt>
      <trkpt lat="44.03446" lon="4.11988">
        <ele>108</ele>
        <time>2019-10-13T11:37:43Z</time>
      </trkpt>
      <trkpt lat="44.03441" lon="4.12018">
        <ele>110</ele>
        <time>2019-10-13T11:37:51Z</time>
      </trkpt>
      <trkpt lat="44.0344" lon="4.12041">
        <ele>110</ele>
        <time>2019-10-13T11:37:57Z</time>
      </trkpt>
      <trkpt lat="44.0344" lon="4.12067">
        <ele>110</ele>
        <time>2019-10-13T11:38:02Z</time>
      </trkpt>
      <trkpt lat="44.0344" lon="4.12094">
        <ele>111</ele>
        <time>2019-10-13T11:38:07Z</time>
      </trkpt>
      <trkpt lat="44.03439" lon="4.12119">
        <ele>111</ele>
        <time>2019-10-13T11:38:12Z</time>
      </trkpt>
      <trkpt lat="44.03438" lon="4.1215">
        <ele>112</ele>
        <time>2019-10-13T11:38:17Z</time>
      </trkpt>
      <trkpt lat="44.03437" lon="4.12169">
        <ele>112</ele>
        <time>2019-10-13T11:38:20Z</time>
      </trkpt>
      <trkpt lat="44.03434" lon="4.12199">
        <ele>112</ele>
        <time>2019-10-13T11:38:25Z</time>
      </trkpt>
      <trkpt lat="44.0343" lon="4.12234">
        <ele>113</ele>
        <time>2019-10-13T11:38:30Z</time>
      </trkpt>
      <trkpt lat="44.03428" lon="4.12261">
        <ele>114</ele>
        <time>2019-10-13T11:38:34Z</time>
      </trkpt>
      <trkpt lat="44.03424" lon="4.1229">
        <ele>114</ele>
        <time>2019-10-13T11:38:39Z</time>
      </trkpt>
      <trkpt lat="44.03422" lon="4.12307">
        <ele>114</ele>
        <time>2019-10-13T11:38:42Z</time>
      </trkpt>
      <trkpt lat="44.03416" lon="4.12329">
        <ele>115</ele>
        <time>2019-10-13T11:38:46Z</time>
      </trkpt>
      <trkpt lat="44.03412" lon="4.12345">
        <ele>115</ele>
        <time>2019-10-13T11:38:49Z</time>
      </trkpt>
      <trkpt lat="44.034" lon="4.12376">
        <ele>115</ele>
        <time>2019-10-13T11:38:56Z</time>
      </trkpt>
      <trkpt lat="44.03397" lon="4.12381">
        <ele>115</ele>
        <time>2019-10-13T11:38:57Z</time>
      </trkpt>
      <trkpt lat="44.03382" lon="4.12409">
        <ele>115</ele>
        <time>2019-10-13T11:39:03Z</time>
      </trkpt>
      <trkpt lat="44.03379" lon="4.12412">
        <ele>115</ele>
        <time>2019-10-13T11:39:04Z</time>
      </trkpt>
      <trkpt lat="44.03358" lon="4.12419">
        <ele>115</ele>
        <time>2019-10-13T11:39:09Z</time>
      </trkpt>
      <trkpt lat="44.0334" lon="4.12408">
        <ele>115</ele>
        <time>2019-10-13T11:39:14Z</time>
      </trkpt>
      <trkpt lat="44.03329" lon="4.12398">
        <ele>115</ele>
        <time>2019-10-13T11:39:17Z</time>
      </trkpt>
      <trkpt lat="44.03313" lon="4.1237">
        <ele>115</ele>
        <time>2019-10-13T11:39:23Z</time>
      </trkpt>
      <trkpt lat="44.03301" lon="4.12347">
        <ele>114</ele>
        <time>2019-10-13T11:39:28Z</time>
      </trkpt>
      <trkpt lat="44.03289" lon="4.12322">
        <ele>114</ele>
        <time>2019-10-13T11:39:33Z</time>
      </trkpt>
      <trkpt lat="44.03283" lon="4.12307">
        <ele>113</ele>
        <time>2019-10-13T11:39:36Z</time>
      </trkpt>
      <trkpt lat="44.03277" lon="4.12279">
        <ele>113</ele>
        <time>2019-10-13T11:39:42Z</time>
      </trkpt>
      <trkpt lat="44.03272" lon="4.12256">
        <ele>113</ele>
        <time>2019-10-13T11:39:48Z</time>
      </trkpt>
      <trkpt lat="44.03271" lon="4.1224">
        <ele>113</ele>
        <time>2019-10-13T11:39:53Z</time>
      </trkpt>
      <trkpt lat="44.03268" lon="4.1222">
        <ele>113</ele>
        <time>2019-10-13T11:39:59Z</time>
      </trkpt>
      <trkpt lat="44.03264" lon="4.12196">
        <ele>113</ele>
        <time>2019-10-13T11:40:06Z</time>
      </trkpt>
      <trkpt lat="44.03262" lon="4.12179">
        <ele>113</ele>
        <time>2019-10-13T11:40:11Z</time>
      </trkpt>
      <trkpt lat="44.03258" lon="4.12154">
        <ele>113</ele>
        <time>2019-10-13T11:40:17Z</time>
      </trkpt>
      <trkpt lat="44.03253" lon="4.12129">
        <ele>113</ele>
        <time>2019-10-13T11:40:23Z</time>
      </trkpt>
      <trkpt lat="44.03249" lon="4.12108">
        <ele>113</ele>
        <time>2019-10-13T11:40:28Z</time>
      </trkpt>
      <trkpt lat="44.03246" lon="4.12088">
        <ele>113</ele>
        <time>2019-10-13T11:40:33Z</time>
      </trkpt>
      <trkpt lat="44.03242" lon="4.12069">
        <ele>113</ele>
        <time>2019-10-13T11:40:38Z</time>
      </trkpt>
      <trkpt lat="44.03239" lon="4.12048">
        <ele>113</ele>
        <time>2019-10-13T11:40:43Z</time>
      </trkpt>
      <trkpt lat="44.03235" lon="4.12021">
        <ele>113</ele>
        <time>2019-10-13T11:40:49Z</time>
      </trkpt>
      <trkpt lat="44.03229" lon="4.1199">
        <ele>113</ele>
        <time>2019-10-13T11:40:56Z</time>
      </trkpt>
      <trkpt lat="44.03223" lon="4.11964">
        <ele>113</ele>
        <time>2019-10-13T11:41:02Z</time>
      </trkpt>
      <trkpt lat="44.0322" lon="4.1194">
        <ele>113</ele>
        <time>2019-10-13T11:41:07Z</time>
      </trkpt>
      <trkpt lat="44.03217" lon="4.11911">
        <ele>113</ele>
        <time>2019-10-13T11:41:13Z</time>
      </trkpt>
      <trkpt lat="44.03214" lon="4.11892">
        <ele>113</ele>
        <time>2019-10-13T11:41:18Z</time>
      </trkpt>
      <trkpt lat="44.0321" lon="4.11867">
        <ele>113</ele>
        <time>2019-10-13T11:41:23Z</time>
      </trkpt>
      <trkpt lat="44.03206" lon="4.1184">
        <ele>113</ele>
        <time>2019-10-13T11:41:28Z</time>
      </trkpt>
      <trkpt lat="44.03202" lon="4.11817">
        <ele>113</ele>
        <time>2019-10-13T11:41:32Z</time>
      </trkpt>
      <trkpt lat="44.03197" lon="4.11794">
        <ele>113</ele>
        <time>2019-10-13T11:41:36Z</time>
      </trkpt>
      <trkpt lat="44.03194" lon="4.11783">
        <ele>113</ele>
        <time>2019-10-13T11:41:38Z</time>
      </trkpt>
      <trkpt lat="44.03187" lon="4.11756">
        <ele>113</ele>
        <time>2019-10-13T11:41:43Z</time>
      </trkpt>
      <trkpt lat="44.03183" lon="4.11744">
        <ele>113</ele>
        <time>2019-10-13T11:41:45Z</time>
      </trkpt>
      <trkpt lat="44.03172" lon="4.11711">
        <ele>112</ele>
        <time>2019-10-13T11:41:51Z</time>
      </trkpt>
      <trkpt lat="44.03166" lon="4.11683">
        <ele>112</ele>
        <time>2019-10-13T11:41:56Z</time>
      </trkpt>
      <trkpt lat="44.03161" lon="4.11656">
        <ele>111</ele>
        <time>2019-10-13T11:42:01Z</time>
      </trkpt>
      <trkpt lat="44.03156" lon="4.11624">
        <ele>111</ele>
        <time>2019-10-13T11:42:07Z</time>
      </trkpt>
      <trkpt lat="44.03147" lon="4.1159">
        <ele>110</ele>
        <time>2019-10-13T11:42:13Z</time>
      </trkpt>
      <trkpt lat="44.03143" lon="4.11561">
        <ele>109</ele>
        <time>2019-10-13T11:42:18Z</time>
      </trkpt>
      <trkpt lat="44.03143" lon="4.11556">
        <ele>109</ele>
        <time>2019-10-13T11:42:19Z</time>
      </trkpt>
      <trkpt lat="44.03142" lon="4.1155">
        <ele>109</ele>
        <time>2019-10-13T11:42:20Z</time>
      </trkpt>
      <trkpt lat="44.0314" lon="4.11535">
        <ele>109</ele>
        <time>2019-10-13T11:42:23Z</time>
      </trkpt>
      <trkpt lat="44.03135" lon="4.11504">
        <ele>109</ele>
        <time>2019-10-13T11:42:30Z</time>
      </trkpt>
      <trkpt lat="44.03134" lon="4.11478">
        <ele>109</ele>
        <time>2019-10-13T11:42:37Z</time>
      </trkpt>
      <trkpt lat="44.03132" lon="4.11452">
        <ele>108</ele>
        <time>2019-10-13T11:42:44Z</time>
      </trkpt>
      <trkpt lat="44.03126" lon="4.11425">
        <ele>108</ele>
        <time>2019-10-13T11:42:51Z</time>
      </trkpt>
      <trkpt lat="44.03121" lon="4.11395">
        <ele>107</ele>
        <time>2019-10-13T11:42:58Z</time>
      </trkpt>
      <trkpt lat="44.03117" lon="4.11369">
        <ele>107</ele>
        <time>2019-10-13T11:43:04Z</time>
      </trkpt>
      <trkpt lat="44.03113" lon="4.11343">
        <ele>107</ele>
        <time>2019-10-13T11:43:10Z</time>
      </trkpt>
      <trkpt lat="44.03108" lon="4.11315">
        <ele>107</ele>
        <time>2019-10-13T11:43:16Z</time>
      </trkpt>
      <trkpt lat="44.03105" lon="4.11287">
        <ele>107</ele>
        <time>2019-10-13T11:43:22Z</time>
      </trkpt>
      <trkpt lat="44.03106" lon="4.11264">
        <ele>107</ele>
        <time>2019-10-13T11:43:27Z</time>
      </trkpt>
      <trkpt lat="44.03106" lon="4.11239">
        <ele>107</ele>
        <time>2019-10-13T11:43:32Z</time>
      </trkpt>
      <trkpt lat="44.03109" lon="4.11209">
        <ele>107</ele>
        <time>2019-10-13T11:43:38Z</time>
      </trkpt>
      <trkpt lat="44.0311" lon="4.11183">
        <ele>107</ele>
        <time>2019-10-13T11:43:43Z</time>
      </trkpt>
      <trkpt lat="44.03106" lon="4.11164">
        <ele>107</ele>
        <time>2019-10-13T11:43:47Z</time>
      </trkpt>
      <trkpt lat="44.03103" lon="4.11161">
        <ele>107</ele>
        <time>2019-10-13T11:43:48Z</time>
      </trkpt>
      <trkpt lat="44.03092" lon="4.1116">
        <ele>107</ele>
        <time>2019-10-13T11:43:51Z</time>
      </trkpt>
      <trkpt lat="44.03077" lon="4.1116">
        <ele>107</ele>
        <time>2019-10-13T11:43:57Z</time>
      </trkpt>
      <trkpt lat="44.03066" lon="4.11151">
        <ele>107</ele>
        <time>2019-10-13T11:44:01Z</time>
      </trkpt>
      <trkpt lat="44.03047" lon="4.11151">
        <ele>107</ele>
        <time>2019-10-13T11:44:06Z</time>
      </trkpt>
      <trkpt lat="44.03026" lon="4.11151">
        <ele>107</ele>
        <time>2019-10-13T11:44:11Z</time>
      </trkpt>
      <trkpt lat="44.03005" lon="4.11151">
        <ele>107</ele>
        <time>2019-10-13T11:44:16Z</time>
      </trkpt>
      <trkpt lat="44.02984" lon="4.11151">
        <ele>107</ele>
        <time>2019-10-13T11:44:21Z</time>
      </trkpt>
      <trkpt lat="44.02961" lon="4.11152">
        <ele>107</ele>
        <time>2019-10-13T11:44:26Z</time>
      </trkpt>
      <trkpt lat="44.02939" lon="4.11152">
        <ele>107</ele>
        <time>2019-10-13T11:44:31Z</time>
      </trkpt>
      <trkpt lat="44.02921" lon="4.11152">
        <ele>107</ele>
        <time>2019-10-13T11:44:35Z</time>
      </trkpt>
      <trkpt lat="44.02901" lon="4.11152">
        <ele>107</ele>
        <time>2019-10-13T11:44:39Z</time>
      </trkpt>
      <trkpt lat="44.02881" lon="4.11153">
        <ele>107</ele>
        <time>2019-10-13T11:44:43Z</time>
      </trkpt>
      <trkpt lat="44.0286" lon="4.11153">
        <ele>107</ele>
        <time>2019-10-13T11:44:47Z</time>
      </trkpt>
      <trkpt lat="44.0284" lon="4.11153">
        <ele>107</ele>
        <time>2019-10-13T11:44:51Z</time>
      </trkpt>
      <trkpt lat="44.02817" lon="4.11153">
        <ele>107</ele>
        <time>2019-10-13T11:44:55Z</time>
      </trkpt>
      <trkpt lat="44.02796" lon="4.11154">
        <ele>107</ele>
        <time>2019-10-13T11:44:59Z</time>
      </trkpt>
      <trkpt lat="44.02782" lon="4.11154">
        <ele>107</ele>
        <time>2019-10-13T11:45:02Z</time>
      </trkpt>
      <trkpt lat="44.02755" lon="4.11158">
        <ele>107</ele>
        <time>2019-10-13T11:45:07Z</time>
      </trkpt>
      <trkpt lat="44.0275" lon="4.11168">
        <ele>107</ele>
        <time>2019-10-13T11:45:10Z</time>
      </trkpt>
      <trkpt lat="44.0275" lon="4.11169">
        <ele>107</ele>
        <time>2019-10-13T11:45:11Z</time>
      </trkpt>
      <trkpt lat="44.0275" lon="4.11169">
        <ele>107</ele>
        <time>2019-10-13T11:45:24Z</time>
      </trkpt>
      <trkpt lat="44.02752" lon="4.11169">
        <ele>107</ele>
        <time>2019-10-13T11:47:21Z</time>
      </trkpt>
      <trkpt lat="44.02752" lon="4.11169">
        <ele>107</ele>
        <time>2019-10-13T11:47:23Z</time>
      </trkpt>
      <trkpt lat="44.02751" lon="4.11183">
        <ele>107</ele>
        <time>2019-10-13T11:47:27Z</time>
      </trkpt>
      <trkpt lat="44.02747" lon="4.11213">
        <ele>107</ele>
        <time>2019-10-13T11:47:31Z</time>
      </trkpt>
      <trkpt lat="44.02744" lon="4.11239">
        <ele>107</ele>
        <time>2019-10-13T11:47:34Z</time>
      </trkpt>
      <trkpt lat="44.02742" lon="4.11272">
        <ele>107</ele>
        <time>2019-10-13T11:47:38Z</time>
      </trkpt>
      <trkpt lat="44.02745" lon="4.11302">
        <ele>106</ele>
        <time>2019-10-13T11:47:42Z</time>
      </trkpt>
      <trkpt lat="44.02748" lon="4.11325">
        <ele>106</ele>
        <time>2019-10-13T11:47:45Z</time>
      </trkpt>
      <trkpt lat="44.02747" lon="4.11365">
        <ele>105</ele>
        <time>2019-10-13T11:47:50Z</time>
      </trkpt>
      <trkpt lat="44.02748" lon="4.11396">
        <ele>105</ele>
        <time>2019-10-13T11:47:54Z</time>
      </trkpt>
      <trkpt lat="44.02748" lon="4.11427">
        <ele>105</ele>
        <time>2019-10-13T11:47:58Z</time>
      </trkpt>
      <trkpt lat="44.02747" lon="4.11452">
        <ele>105</ele>
        <time>2019-10-13T11:48:01Z</time>
      </trkpt>
      <trkpt lat="44.02747" lon="4.11459">
        <ele>105</ele>
        <time>2019-10-13T11:48:02Z</time>
      </trkpt>
      <trkpt lat="44.02778" lon="4.11512">
        <ele>104</ele>
        <time>2019-10-13T11:48:11Z</time>
      </trkpt>
      <trkpt lat="44.02793" lon="4.11535">
        <ele>104</ele>
        <time>2019-10-13T11:48:15Z</time>
      </trkpt>
      <trkpt lat="44.028" lon="4.11554">
        <ele>103</ele>
        <time>2019-10-13T11:48:18Z</time>
      </trkpt>
      <trkpt lat="44.02802" lon="4.11582">
        <ele>103</ele>
        <time>2019-10-13T11:48:22Z</time>
      </trkpt>
      <trkpt lat="44.02795" lon="4.11616">
        <ele>103</ele>
        <time>2019-10-13T11:48:27Z</time>
      </trkpt>
      <trkpt lat="44.0279" lon="4.11642">
        <ele>103</ele>
        <time>2019-10-13T11:48:31Z</time>
      </trkpt>
      <trkpt lat="44.02786" lon="4.11669">
        <ele>103</ele>
        <time>2019-10-13T11:48:35Z</time>
      </trkpt>
      <trkpt lat="44.02779" lon="4.11699">
        <ele>103</ele>
        <time>2019-10-13T11:48:40Z</time>
      </trkpt>
      <trkpt lat="44.02775" lon="4.11726">
        <ele>103</ele>
        <time>2019-10-13T11:48:45Z</time>
      </trkpt>
      <trkpt lat="44.0277" lon="4.11753">
        <ele>103</ele>
        <time>2019-10-13T11:48:50Z</time>
      </trkpt>
      <trkpt lat="44.02762" lon="4.1179">
        <ele>103</ele>
        <time>2019-10-13T11:48:57Z</time>
      </trkpt>
      <trkpt lat="44.02756" lon="4.11817">
        <ele>103</ele>
        <time>2019-10-13T11:49:02Z</time>
      </trkpt>
      <trkpt lat="44.02753" lon="4.11846">
        <ele>103</ele>
        <time>2019-10-13T11:49:07Z</time>
      </trkpt>
      <trkpt lat="44.02751" lon="4.11876">
        <ele>103</ele>
        <time>2019-10-13T11:49:12Z</time>
      </trkpt>
      <trkpt lat="44.0275" lon="4.11901">
        <ele>103</ele>
        <time>2019-10-13T11:49:16Z</time>
      </trkpt>
      <trkpt lat="44.0275" lon="4.11907">
        <ele>103</ele>
        <time>2019-10-13T11:49:17Z</time>
      </trkpt>
      <trkpt lat="44.02749" lon="4.11919">
        <ele>103</ele>
        <time>2019-10-13T11:49:19Z</time>
      </trkpt>
      <trkpt lat="44.02745" lon="4.11936">
        <ele>103</ele>
        <time>2019-10-13T11:49:22Z</time>
      </trkpt>
      <trkpt lat="44.02738" lon="4.11958">
        <ele>103</ele>
        <time>2019-10-13T11:49:26Z</time>
      </trkpt>
      <trkpt lat="44.02735" lon="4.11989">
        <ele>103</ele>
        <time>2019-10-13T11:49:31Z</time>
      </trkpt>
      <trkpt lat="44.02736" lon="4.12014">
        <ele>103</ele>
        <time>2019-10-13T11:49:35Z</time>
      </trkpt>
      <trkpt lat="44.02739" lon="4.12037">
        <ele>103</ele>
        <time>2019-10-13T11:49:39Z</time>
      </trkpt>
      <trkpt lat="44.02746" lon="4.1207">
        <ele>103</ele>
        <time>2019-10-13T11:49:45Z</time>
      </trkpt>
      <trkpt lat="44.02752" lon="4.12092">
        <ele>103</ele>
        <time>2019-10-13T11:49:49Z</time>
      </trkpt>
      <trkpt lat="44.02757" lon="4.12127">
        <ele>102</ele>
        <time>2019-10-13T11:49:55Z</time>
      </trkpt>
      <trkpt lat="44.02758" lon="4.12133">
        <ele>102</ele>
        <time>2019-10-13T11:49:56Z</time>
      </trkpt>
      <trkpt lat="44.0276" lon="4.12159">
        <ele>101</ele>
        <time>2019-10-13T11:50:01Z</time>
      </trkpt>
      <trkpt lat="44.02761" lon="4.12185">
        <ele>101</ele>
        <time>2019-10-13T11:50:06Z</time>
      </trkpt>
      <trkpt lat="44.02765" lon="4.12213">
        <ele>101</ele>
        <time>2019-10-13T11:50:11Z</time>
      </trkpt>
      <trkpt lat="44.02769" lon="4.12241">
        <ele>101</ele>
        <time>2019-10-13T11:50:16Z</time>
      </trkpt>
      <trkpt lat="44.0277" lon="4.12253">
        <ele>101</ele>
        <time>2019-10-13T11:50:18Z</time>
      </trkpt>
      <trkpt lat="44.02772" lon="4.1229">
        <ele>101</ele>
        <time>2019-10-13T11:50:24Z</time>
      </trkpt>
      <trkpt lat="44.02771" lon="4.12316">
        <ele>101</ele>
        <time>2019-10-13T11:50:28Z</time>
      </trkpt>
      <trkpt lat="44.02768" lon="4.12334">
        <ele>101</ele>
        <time>2019-10-13T11:50:31Z</time>
      </trkpt>
      <trkpt lat="44.02762" lon="4.12355">
        <ele>101</ele>
        <time>2019-10-13T11:50:35Z</time>
      </trkpt>
      <trkpt lat="44.02755" lon="4.12388">
        <ele>101</ele>
        <time>2019-10-13T11:50:41Z</time>
      </trkpt>
      <trkpt lat="44.02753" lon="4.12398">
        <ele>101</ele>
        <time>2019-10-13T11:50:43Z</time>
      </trkpt>
      <trkpt lat="44.02749" lon="4.12408">
        <ele>101</ele>
        <time>2019-10-13T11:50:45Z</time>
      </trkpt>
      <trkpt lat="44.02732" lon="4.12424">
        <ele>101</ele>
        <time>2019-10-13T11:50:50Z</time>
      </trkpt>
      <trkpt lat="44.02728" lon="4.12425">
        <ele>101</ele>
        <time>2019-10-13T11:50:51Z</time>
      </trkpt>
      <trkpt lat="44.02705" lon="4.12434">
        <ele>100</ele>
        <time>2019-10-13T11:50:57Z</time>
      </trkpt>
      <trkpt lat="44.02681" lon="4.12445">
        <ele>100</ele>
        <time>2019-10-13T11:51:04Z</time>
      </trkpt>
      <trkpt lat="44.0267" lon="4.12453">
        <ele>100</ele>
        <time>2019-10-13T11:51:08Z</time>
      </trkpt>
      <trkpt lat="44.02666" lon="4.12461">
        <ele>100</ele>
        <time>2019-10-13T11:51:13Z</time>
      </trkpt>
      <trkpt lat="44.02665" lon="4.12468">
        <ele>100</ele>
        <time>2019-10-13T11:51:19Z</time>
      </trkpt>
      <trkpt lat="44.02659" lon="4.12477">
        <ele>100</ele>
        <time>2019-10-13T11:51:24Z</time>
      </trkpt>
      <trkpt lat="44.0265" lon="4.12486">
        <ele>100</ele>
        <time>2019-10-13T11:51:30Z</time>
      </trkpt>
      <trkpt lat="44.02642" lon="4.12494">
        <ele>100</ele>
        <time>2019-10-13T11:51:36Z</time>
      </trkpt>
      <trkpt lat="44.02632" lon="4.12503">
        <ele>101</ele>
        <time>2019-10-13T11:51:43Z</time>
      </trkpt>
      <trkpt lat="44.02623" lon="4.12512">
        <ele>102</ele>
        <time>2019-10-13T11:51:49Z</time>
      </trkpt>
      <trkpt lat="44.02614" lon="4.12519">
        <ele>102</ele>
        <time>2019-10-13T11:51:55Z</time>
      </trkpt>
      <trkpt lat="44.02598" lon="4.12531">
        <ele>103</ele>
        <time>2019-10-13T11:52:06Z</time>
      </trkpt>
      <trkpt lat="44.02592" lon="4.12537">
        <ele>104</ele>
        <time>2019-10-13T11:52:11Z</time>
      </trkpt>
      <trkpt lat="44.02587" lon="4.12542">
        <ele>104</ele>
        <time>2019-10-13T11:52:16Z</time>
      </trkpt>
      <trkpt lat="44.02587" lon="4.12543">
        <ele>104</ele>
        <time>2019-10-13T11:52:17Z</time>
      </trkpt>
      <trkpt lat="44.02579" lon="4.12549">
        <ele>106</ele>
        <time>2019-10-13T11:52:26Z</time>
      </trkpt>
      <trkpt lat="44.02577" lon="4.12551">
        <ele>107</ele>
        <time>2019-10-13T11:52:28Z</time>
      </trkpt>
      <trkpt lat="44.02568" lon="4.12559">
        <ele>109</ele>
        <time>2019-10-13T11:52:37Z</time>
      </trkpt>
      <trkpt lat="44.02562" lon="4.12565">
        <ele>110</ele>
        <time>2019-10-13T11:52:43Z</time>
      </trkpt>
      <trkpt lat="44.02556" lon="4.12571">
        <ele>112</ele>
        <time>2019-10-13T11:52:50Z</time>
      </trkpt>
      <trkpt lat="44.02551" lon="4.12576">
        <ele>113</ele>
        <time>2019-10-13T11:52:58Z</time>
      </trkpt>
      <trkpt lat="44.02548" lon="4.1258">
        <ele>114</ele>
        <time>2019-10-13T11:53:03Z</time>
      </trkpt>
      <trkpt lat="44.02536" lon="4.12591">
        <ele>115</ele>
        <time>2019-10-13T11:53:11Z</time>
      </trkpt>
      <trkpt lat="44.02527" lon="4.12602">
        <ele>116</ele>
        <time>2019-10-13T11:53:18Z</time>
      </trkpt>
      <trkpt lat="44.02527" lon="4.12612">
        <ele>117</ele>
        <time>2019-10-13T11:53:23Z</time>
      </trkpt>
      <trkpt lat="44.0253" lon="4.12629">
        <ele>117</ele>
        <time>2019-10-13T11:53:31Z</time>
      </trkpt>
      <trkpt lat="44.02529" lon="4.12642">
        <ele>117</ele>
        <time>2019-10-13T11:53:36Z</time>
      </trkpt>
      <trkpt lat="44.02526" lon="4.12656">
        <ele>117</ele>
        <time>2019-10-13T11:53:41Z</time>
      </trkpt>
      <trkpt lat="44.02518" lon="4.12674">
        <ele>117</ele>
        <time>2019-10-13T11:53:47Z</time>
      </trkpt>
      <trkpt lat="44.02517" lon="4.12676">
        <ele>117</ele>
        <time>2019-10-13T11:53:48Z</time>
      </trkpt>
      <trkpt lat="44.0252" lon="4.12685">
        <ele>117</ele>
        <time>2019-10-13T11:53:52Z</time>
      </trkpt>
      <trkpt lat="44.02525" lon="4.12688">
        <ele>117</ele>
        <time>2019-10-13T11:53:55Z</time>
      </trkpt>
      <trkpt lat="44.02529" lon="4.12689">
        <ele>117</ele>
        <time>2019-10-13T11:54:01Z</time>
      </trkpt>
      <trkpt lat="44.02536" lon="4.12691">
        <ele>117</ele>
        <time>2019-10-13T11:54:08Z</time>
      </trkpt>
      <trkpt lat="44.02543" lon="4.12698">
        <ele>118</ele>
        <time>2019-10-13T11:54:16Z</time>
      </trkpt>
      <trkpt lat="44.02543" lon="4.12701">
        <ele>119</ele>
        <time>2019-10-13T11:54:22Z</time>
      </trkpt>
      <trkpt lat="44.02546" lon="4.12707">
        <ele>119</ele>
        <time>2019-10-13T11:54:27Z</time>
      </trkpt>
      <trkpt lat="44.02548" lon="4.12718">
        <ele>119</ele>
        <time>2019-10-13T11:54:32Z</time>
      </trkpt>
      <trkpt lat="44.02547" lon="4.12736">
        <ele>120</ele>
        <time>2019-10-13T11:54:38Z</time>
      </trkpt>
      <trkpt lat="44.02553" lon="4.12751">
        <ele>121</ele>
        <time>2019-10-13T11:54:43Z</time>
      </trkpt>
      <trkpt lat="44.0256" lon="4.12758">
        <ele>121</ele>
        <time>2019-10-13T11:54:49Z</time>
      </trkpt>
      <trkpt lat="44.0256" lon="4.12758">
        <ele>121</ele>
        <time>2019-10-13T11:54:50Z</time>
      </trkpt>
      <trkpt lat="44.02562" lon="4.12762">
        <ele>121</ele>
        <time>2019-10-13T11:54:55Z</time>
      </trkpt>
      <trkpt lat="44.02566" lon="4.12767">
        <ele>121</ele>
        <time>2019-10-13T11:55:02Z</time>
      </trkpt>
      <trkpt lat="44.02569" lon="4.12773">
        <ele>122</ele>
        <time>2019-10-13T11:55:08Z</time>
      </trkpt>
      <trkpt lat="44.02569" lon="4.12774">
        <ele>122</ele>
        <time>2019-10-13T11:55:09Z</time>
      </trkpt>
      <trkpt lat="44.02574" lon="4.12783">
        <ele>122</ele>
        <time>2019-10-13T11:55:18Z</time>
      </trkpt>
      <trkpt lat="44.02578" lon="4.12792">
        <ele>122</ele>
        <time>2019-10-13T11:55:26Z</time>
      </trkpt>
      <trkpt lat="44.02581" lon="4.128">
        <ele>122</ele>
        <time>2019-10-13T11:55:32Z</time>
      </trkpt>
      <trkpt lat="44.02583" lon="4.1281">
        <ele>123</ele>
        <time>2019-10-13T11:55:40Z</time>
      </trkpt>
      <trkpt lat="44.02585" lon="4.1282">
        <ele>123</ele>
        <time>2019-10-13T11:55:47Z</time>
      </trkpt>
      <trkpt lat="44.02585" lon="4.12823">
        <ele>123</ele>
        <time>2019-10-13T11:55:49Z</time>
      </trkpt>
      <trkpt lat="44.0259" lon="4.12839">
        <ele>124</ele>
        <time>2019-10-13T11:56:02Z</time>
      </trkpt>
      <trkpt lat="44.02593" lon="4.12846">
        <ele>124</ele>
        <time>2019-10-13T11:56:10Z</time>
      </trkpt>
      <trkpt lat="44.02594" lon="4.12848">
        <ele>124</ele>
        <time>2019-10-13T11:56:12Z</time>
      </trkpt>
      <trkpt lat="44.02597" lon="4.12853">
        <ele>125</ele>
        <time>2019-10-13T11:56:16Z</time>
      </trkpt>
      <trkpt lat="44.02598" lon="4.12856">
        <ele>125</ele>
        <time>2019-10-13T11:56:19Z</time>
      </trkpt>
      <trkpt lat="44.02601" lon="4.12864">
        <ele>126</ele>
        <time>2019-10-13T11:56:25Z</time>
      </trkpt>
      <trkpt lat="44.02602" lon="4.12871">
        <ele>127</ele>
        <time>2019-10-13T11:56:31Z</time>
      </trkpt>
      <trkpt lat="44.02604" lon="4.12877">
        <ele>127</ele>
        <time>2019-10-13T11:56:36Z</time>
      </trkpt>
      <trkpt lat="44.02604" lon="4.12891">
        <ele>129</ele>
        <time>2019-10-13T11:56:47Z</time>
      </trkpt>
      <trkpt lat="44.02605" lon="4.12898">
        <ele>129</ele>
        <time>2019-10-13T11:56:54Z</time>
      </trkpt>
      <trkpt lat="44.02611" lon="4.12915">
        <ele>130</ele>
        <time>2019-10-13T11:57:09Z</time>
      </trkpt>
      <trkpt lat="44.02616" lon="4.12925">
        <ele>131</ele>
        <time>2019-10-13T11:57:18Z</time>
      </trkpt>
      <trkpt lat="44.0262" lon="4.12935">
        <ele>132</ele>
        <time>2019-10-13T11:57:26Z</time>
      </trkpt>
      <trkpt lat="44.02624" lon="4.12947">
        <ele>132</ele>
        <time>2019-10-13T11:57:34Z</time>
      </trkpt>
      <trkpt lat="44.02624" lon="4.12958">
        <ele>133</ele>
        <time>2019-10-13T11:57:42Z</time>
      </trkpt>
      <trkpt lat="44.0262" lon="4.12962">
        <ele>133</ele>
        <time>2019-10-13T11:57:46Z</time>
      </trkpt>
      <trkpt lat="44.02602" lon="4.12971">
        <ele>136</ele>
        <time>2019-10-13T11:58:05Z</time>
      </trkpt>
      <trkpt lat="44.02601" lon="4.12972">
        <ele>136</ele>
        <time>2019-10-13T11:58:10Z</time>
      </trkpt>
      <trkpt lat="44.02592" lon="4.12977">
        <ele>137</ele>
        <time>2019-10-13T11:58:16Z</time>
      </trkpt>
      <trkpt lat="44.02579" lon="4.12985">
        <ele>138</ele>
        <time>2019-10-13T11:58:24Z</time>
      </trkpt>
      <trkpt lat="44.02563" lon="4.12999">
        <ele>139</ele>
        <time>2019-10-13T11:58:33Z</time>
      </trkpt>
      <trkpt lat="44.02559" lon="4.13004">
        <ele>139</ele>
        <time>2019-10-13T11:58:35Z</time>
      </trkpt>
      <trkpt lat="44.02556" lon="4.13023">
        <ele>139</ele>
        <time>2019-10-13T11:58:40Z</time>
      </trkpt>
      <trkpt lat="44.02554" lon="4.13047">
        <ele>140</ele>
        <time>2019-10-13T11:58:44Z</time>
      </trkpt>
      <trkpt lat="44.02551" lon="4.13062">
        <ele>140</ele>
        <time>2019-10-13T11:58:48Z</time>
      </trkpt>
      <trkpt lat="44.0255" lon="4.13068">
        <ele>140</ele>
        <time>2019-10-13T11:58:50Z</time>
      </trkpt>
      <trkpt lat="44.02541" lon="4.13095">
        <ele>140</ele>
        <time>2019-10-13T11:58:57Z</time>
      </trkpt>
      <trkpt lat="44.02527" lon="4.13104">
        <ele>140</ele>
        <time>2019-10-13T11:59:02Z</time>
      </trkpt>
      <trkpt lat="44.02527" lon="4.13105">
        <ele>140</ele>
        <time>2019-10-13T11:59:02Z</time>
      </trkpt>
      <trkpt lat="44.02523" lon="4.13125">
        <ele>141</ele>
        <time>2019-10-13T11:59:07Z</time>
      </trkpt>
      <trkpt lat="44.02525" lon="4.13151">
        <ele>142</ele>
        <time>2019-10-13T11:59:14Z</time>
      </trkpt>
      <trkpt lat="44.02527" lon="4.13181">
        <ele>142</ele>
        <time>2019-10-13T11:59:20Z</time>
      </trkpt>
      <trkpt lat="44.02536" lon="4.13207">
        <ele>142</ele>
        <time>2019-10-13T11:59:25Z</time>
      </trkpt>
      <trkpt lat="44.02548" lon="4.1323">
        <ele>142</ele>
        <time>2019-10-13T11:59:31Z</time>
      </trkpt>
      <trkpt lat="44.02558" lon="4.13254">
        <ele>143</ele>
        <time>2019-10-13T11:59:37Z</time>
      </trkpt>
      <trkpt lat="44.02567" lon="4.13282">
        <ele>144</ele>
        <time>2019-10-13T11:59:43Z</time>
      </trkpt>
      <trkpt lat="44.02575" lon="4.13309">
        <ele>144</ele>
        <time>2019-10-13T11:59:48Z</time>
      </trkpt>
      <trkpt lat="44.0258" lon="4.13333">
        <ele>144</ele>
        <time>2019-10-13T11:59:52Z</time>
      </trkpt>
      <trkpt lat="44.02582" lon="4.13338">
        <ele>144</ele>
        <time>2019-10-13T11:59:53Z</time>
      </trkpt>
      <trkpt lat="44.02591" lon="4.13363">
        <ele>144</ele>
        <time>2019-10-13T11:59:58Z</time>
      </trkpt>
      <trkpt lat="44.02595" lon="4.13376">
        <ele>144</ele>
        <time>2019-10-13T12:00:00Z</time>
      </trkpt>
      <trkpt lat="44.02599" lon="4.13395">
        <ele>144</ele>
        <time>2019-10-13T12:00:03Z</time>
      </trkpt>
      <trkpt lat="44.02612" lon="4.13417">
        <ele>144</ele>
        <time>2019-10-13T12:00:07Z</time>
      </trkpt>
      <trkpt lat="44.02627" lon="4.13453">
        <ele>144</ele>
        <time>2019-10-13T12:00:13Z</time>
      </trkpt>
      <trkpt lat="44.0264" lon="4.13486">
        <ele>144</ele>
        <time>2019-10-13T12:00:18Z</time>
      </trkpt>
      <trkpt lat="44.02646" lon="4.13509">
        <ele>144</ele>
        <time>2019-10-13T12:00:21Z</time>
      </trkpt>
      <trkpt lat="44.02652" lon="4.13523">
        <ele>144</ele>
        <time>2019-10-13T12:00:24Z</time>
      </trkpt>
      <trkpt lat="44.02664" lon="4.13553">
        <ele>143</ele>
        <time>2019-10-13T12:00:29Z</time>
      </trkpt>
      <trkpt lat="44.02666" lon="4.13557">
        <ele>142</ele>
        <time>2019-10-13T12:00:30Z</time>
      </trkpt>
      <trkpt lat="44.02672" lon="4.13569">
        <ele>142</ele>
        <time>2019-10-13T12:00:32Z</time>
      </trkpt>
      <trkpt lat="44.02683" lon="4.1359">
        <ele>140</ele>
        <time>2019-10-13T12:00:38Z</time>
      </trkpt>
      <trkpt lat="44.02685" lon="4.13594">
        <ele>140</ele>
        <time>2019-10-13T12:00:39Z</time>
      </trkpt>
      <trkpt lat="44.02693" lon="4.13623">
        <ele>139</ele>
        <time>2019-10-13T12:00:44Z</time>
      </trkpt>
      <trkpt lat="44.02696" lon="4.13639">
        <ele>138</ele>
        <time>2019-10-13T12:00:46Z</time>
      </trkpt>
      <trkpt lat="44.0271" lon="4.13658">
        <ele>137</ele>
        <time>2019-10-13T12:00:50Z</time>
      </trkpt>
      <trkpt lat="44.02727" lon="4.13667">
        <ele>136</ele>
        <time>2019-10-13T12:00:54Z</time>
      </trkpt>
      <trkpt lat="44.02742" lon="4.13665">
        <ele>134</ele>
        <time>2019-10-13T12:00:57Z</time>
      </trkpt>
      <trkpt lat="44.0275" lon="4.13662">
        <ele>134</ele>
        <time>2019-10-13T12:00:59Z</time>
      </trkpt>
      <trkpt lat="44.02775" lon="4.13659">
        <ele>132</ele>
        <time>2019-10-13T12:01:05Z</time>
      </trkpt>
      <trkpt lat="44.02795" lon="4.13659">
        <ele>130</ele>
        <time>2019-10-13T12:01:09Z</time>
      </trkpt>
      <trkpt lat="44.028" lon="4.13658">
        <ele>129</ele>
        <time>2019-10-13T12:01:10Z</time>
      </trkpt>
      <trkpt lat="44.02819" lon="4.13656">
        <ele>128</ele>
        <time>2019-10-13T12:01:14Z</time>
      </trkpt>
      <trkpt lat="44.02824" lon="4.13656">
        <ele>127</ele>
        <time>2019-10-13T12:01:15Z</time>
      </trkpt>
      <trkpt lat="44.02834" lon="4.13653">
        <ele>126</ele>
        <time>2019-10-13T12:01:18Z</time>
      </trkpt>
      <trkpt lat="44.02841" lon="4.13652">
        <ele>125</ele>
        <time>2019-10-13T12:01:20Z</time>
      </trkpt>
      <trkpt lat="44.02857" lon="4.13652">
        <ele>123</ele>
        <time>2019-10-13T12:01:25Z</time>
      </trkpt>
      <trkpt lat="44.02864" lon="4.13664">
        <ele>121</ele>
        <time>2019-10-13T12:01:29Z</time>
      </trkpt>
      <trkpt lat="44.0287" lon="4.13689">
        <ele>119</ele>
        <time>2019-10-13T12:01:34Z</time>
      </trkpt>
      <trkpt lat="44.02875" lon="4.13713">
        <ele>117</ele>
        <time>2019-10-13T12:01:39Z</time>
      </trkpt>
      <trkpt lat="44.02877" lon="4.13717">
        <ele>117</ele>
        <time>2019-10-13T12:01:40Z</time>
      </trkpt>
      <trkpt lat="44.02895" lon="4.13729">
        <ele>115</ele>
        <time>2019-10-13T12:01:45Z</time>
      </trkpt>
      <trkpt lat="44.02905" lon="4.13739">
        <ele>114</ele>
        <time>2019-10-13T12:01:49Z</time>
      </trkpt>
      <trkpt lat="44.0292" lon="4.1375">
        <ele>113</ele>
        <time>2019-10-13T12:01:54Z</time>
      </trkpt>
      <trkpt lat="44.02933" lon="4.13749">
        <ele>112</ele>
        <time>2019-10-13T12:01:58Z</time>
      </trkpt>
      <trkpt lat="44.02938" lon="4.13748">
        <ele>112</ele>
        <time>2019-10-13T12:01:59Z</time>
      </trkpt>
      <trkpt lat="44.02962" lon="4.13744">
        <ele>111</ele>
        <time>2019-10-13T12:02:05Z</time>
      </trkpt>
      <trkpt lat="44.02981" lon="4.13742">
        <ele>110</ele>
        <time>2019-10-13T12:02:10Z</time>
      </trkpt>
      <trkpt lat="44.02994" lon="4.13743">
        <ele>109</ele>
        <time>2019-10-13T12:02:14Z</time>
      </trkpt>
      <trkpt lat="44.03007" lon="4.13752">
        <ele>109</ele>
        <time>2019-10-13T12:02:19Z</time>
      </trkpt>
      <trkpt lat="44.03009" lon="4.13752">
        <ele>108</ele>
        <time>2019-10-13T12:02:22Z</time>
      </trkpt>
      <trkpt lat="44.0302" lon="4.13759">
        <ele>106</ele>
        <time>2019-10-13T12:02:33Z</time>
      </trkpt>
      <trkpt lat="44.03025" lon="4.13766">
        <ele>106</ele>
        <time>2019-10-13T12:02:35Z</time>
      </trkpt>
      <trkpt lat="44.03029" lon="4.13788">
        <ele>106</ele>
        <time>2019-10-13T12:02:41Z</time>
      </trkpt>
      <trkpt lat="44.03031" lon="4.13812">
        <ele>105</ele>
        <time>2019-10-13T12:02:46Z</time>
      </trkpt>
      <trkpt lat="44.03032" lon="4.13814">
        <ele>105</ele>
        <time>2019-10-13T12:02:47Z</time>
      </trkpt>
      <trkpt lat="44.03033" lon="4.13818">
        <ele>105</ele>
        <time>2019-10-13T12:02:49Z</time>
      </trkpt>
      <trkpt lat="44.03041" lon="4.13818">
        <ele>104</ele>
        <time>2019-10-13T12:02:52Z</time>
      </trkpt>
      <trkpt lat="44.03045" lon="4.13816">
        <ele>104</ele>
        <time>2019-10-13T12:02:53Z</time>
      </trkpt>
      <trkpt lat="44.03063" lon="4.138">
        <ele>104</ele>
        <time>2019-10-13T12:02:59Z</time>
      </trkpt>
      <trkpt lat="44.03079" lon="4.13782">
        <ele>103</ele>
        <time>2019-10-13T12:03:04Z</time>
      </trkpt>
      <trkpt lat="44.03094" lon="4.13764">
        <ele>102</ele>
        <time>2019-10-13T12:03:09Z</time>
      </trkpt>
      <trkpt lat="44.03098" lon="4.1376">
        <ele>102</ele>
        <time>2019-10-13T12:03:10Z</time>
      </trkpt>
      <trkpt lat="44.03103" lon="4.13751">
        <ele>102</ele>
        <time>2019-10-13T12:03:12Z</time>
      </trkpt>
      <trkpt lat="44.03115" lon="4.13734">
        <ele>102</ele>
        <time>2019-10-13T12:03:16Z</time>
      </trkpt>
      <trkpt lat="44.03125" lon="4.13716">
        <ele>101</ele>
        <time>2019-10-13T12:03:20Z</time>
      </trkpt>
      <trkpt lat="44.03135" lon="4.13687">
        <ele>100</ele>
        <time>2019-10-13T12:03:26Z</time>
      </trkpt>
      <trkpt lat="44.03136" lon="4.13682">
        <ele>100</ele>
        <time>2019-10-13T12:03:27Z</time>
      </trkpt>
      <trkpt lat="44.03144" lon="4.13659">
        <ele>99</ele>
        <time>2019-10-13T12:03:32Z</time>
      </trkpt>
      <trkpt lat="44.03153" lon="4.13633">
        <ele>98</ele>
        <time>2019-10-13T12:03:38Z</time>
      </trkpt>
      <trkpt lat="44.0316" lon="4.13608">
        <ele>97</ele>
        <time>2019-10-13T12:03:43Z</time>
      </trkpt>
      <trkpt lat="44.03164" lon="4.13595">
        <ele>96</ele>
        <time>2019-10-13T12:03:46Z</time>
      </trkpt>
      <trkpt lat="44.03176" lon="4.13597">
        <ele>96</ele>
        <time>2019-10-13T12:03:50Z</time>
      </trkpt>
      <trkpt lat="44.03177" lon="4.13602">
        <ele>96</ele>
        <time>2019-10-13T12:03:51Z</time>
      </trkpt>
      <trkpt lat="44.03186" lon="4.13625">
        <ele>96</ele>
        <time>2019-10-13T12:03:56Z</time>
      </trkpt>
      <trkpt lat="44.03199" lon="4.13643">
        <ele>95</ele>
        <time>2019-10-13T12:04:01Z</time>
      </trkpt>
      <trkpt lat="44.03218" lon="4.13656">
        <ele>95</ele>
        <time>2019-10-13T12:04:06Z</time>
      </trkpt>
      <trkpt lat="44.03237" lon="4.13661">
        <ele>95</ele>
        <time>2019-10-13T12:04:11Z</time>
      </trkpt>
      <trkpt lat="44.03258" lon="4.13666">
        <ele>95</ele>
        <time>2019-10-13T12:04:17Z</time>
      </trkpt>
      <trkpt lat="44.03277" lon="4.13671">
        <ele>95</ele>
        <time>2019-10-13T12:04:23Z</time>
      </trkpt>
      <trkpt lat="44.03296" lon="4.13676">
        <ele>95</ele>
        <time>2019-10-13T12:04:30Z</time>
      </trkpt>
      <trkpt lat="44.03312" lon="4.13681">
        <ele>95</ele>
        <time>2019-10-13T12:04:36Z</time>
      </trkpt>
      <trkpt lat="44.03315" lon="4.13683">
        <ele>95</ele>
        <time>2019-10-13T12:04:39Z</time>
      </trkpt>
      <trkpt lat="44.03323" lon="4.13684">
        <ele>95</ele>
        <time>2019-10-13T12:05:07Z</time>
      </trkpt>
      <trkpt lat="44.03343" lon="4.1369">
        <ele>95</ele>
        <time>2019-10-13T12:05:14Z</time>
      </trkpt>
      <trkpt lat="44.03361" lon="4.13695">
        <ele>95</ele>
        <time>2019-10-13T12:05:20Z</time>
      </trkpt>
      <trkpt lat="44.03379" lon="4.13704">
        <ele>95</ele>
        <time>2019-10-13T12:05:27Z</time>
      </trkpt>
      <trkpt lat="44.0338" lon="4.13705">
        <ele>95</ele>
        <time>2019-10-13T12:05:28Z</time>
      </trkpt>
      <trkpt lat="44.03383" lon="4.13704">
        <ele>95</ele>
        <time>2019-10-13T12:05:31Z</time>
      </trkpt>
      <trkpt lat="44.03385" lon="4.13695">
        <ele>95</ele>
        <time>2019-10-13T12:05:42Z</time>
      </trkpt>
      <trkpt lat="44.03387" lon="4.1367">
        <ele>95</ele>
        <time>2019-10-13T12:05:49Z</time>
      </trkpt>
      <trkpt lat="44.03393" lon="4.13644">
        <ele>95</ele>
        <time>2019-10-13T12:05:56Z</time>
      </trkpt>
      <trkpt lat="44.03398" lon="4.13615">
        <ele>95</ele>
        <time>2019-10-13T12:06:02Z</time>
      </trkpt>
      <trkpt lat="44.03403" lon="4.13589">
        <ele>95</ele>
        <time>2019-10-13T12:06:08Z</time>
      </trkpt>
      <trkpt lat="44.03405" lon="4.1356">
        <ele>95</ele>
        <time>2019-10-13T12:06:14Z</time>
      </trkpt>
      <trkpt lat="44.03405" lon="4.13535">
        <ele>95</ele>
        <time>2019-10-13T12:06:19Z</time>
      </trkpt>
      <trkpt lat="44.03408" lon="4.13507">
        <ele>95</ele>
        <time>2019-10-13T12:06:25Z</time>
      </trkpt>
      <trkpt lat="44.03412" lon="4.1348">
        <ele>95</ele>
        <time>2019-10-13T12:06:31Z</time>
      </trkpt>
      <trkpt lat="44.03417" lon="4.13456">
        <ele>95</ele>
        <time>2019-10-13T12:06:36Z</time>
      </trkpt>
      <trkpt lat="44.03421" lon="4.13427">
        <ele>95</ele>
        <time>2019-10-13T12:06:42Z</time>
      </trkpt>
      <trkpt lat="44.03423" lon="4.13398">
        <ele>95</ele>
        <time>2019-10-13T12:06:48Z</time>
      </trkpt>
      <trkpt lat="44.03419" lon="4.13377">
        <ele>95</ele>
        <time>2019-10-13T12:06:53Z</time>
      </trkpt>
      <trkpt lat="44.03407" lon="4.1336">
        <ele>95</ele>
        <time>2019-10-13T12:06:58Z</time>
      </trkpt>
      <trkpt lat="44.03404" lon="4.13359">
        <ele>95</ele>
        <time>2019-10-13T12:06:59Z</time>
      </trkpt>
      <trkpt lat="44.03382" lon="4.13356">
        <ele>95</ele>
        <time>2019-10-13T12:07:05Z</time>
      </trkpt>
      <trkpt lat="44.03361" lon="4.13351">
        <ele>95</ele>
        <time>2019-10-13T12:07:10Z</time>
      </trkpt>
      <trkpt lat="44.03354" lon="4.13347">
        <ele>95</ele>
        <time>2019-10-13T12:07:12Z</time>
      </trkpt>
      <trkpt lat="44.03348" lon="4.1332">
        <ele>95</ele>
        <time>2019-10-13T12:07:17Z</time>
      </trkpt>
      <trkpt lat="44.03347" lon="4.13315">
        <ele>95</ele>
        <time>2019-10-13T12:07:18Z</time>
      </trkpt>
      <trkpt lat="44.03341" lon="4.13288">
        <ele>95</ele>
        <time>2019-10-13T12:07:23Z</time>
      </trkpt>
      <trkpt lat="44.03337" lon="4.13277">
        <ele>95</ele>
        <time>2019-10-13T12:07:25Z</time>
      </trkpt>
      <trkpt lat="44.03339" lon="4.13255">
        <ele>95</ele>
        <time>2019-10-13T12:07:30Z</time>
      </trkpt>
      <trkpt lat="44.0334" lon="4.13251">
        <ele>95</ele>
        <time>2019-10-13T12:07:31Z</time>
      </trkpt>
      <trkpt lat="44.03343" lon="4.13227">
        <ele>95</ele>
        <time>2019-10-13T12:07:37Z</time>
      </trkpt>
      <trkpt lat="44.03345" lon="4.13203">
        <ele>95</ele>
        <time>2019-10-13T12:07:43Z</time>
      </trkpt>
      <trkpt lat="44.03347" lon="4.13177">
        <ele>95</ele>
        <time>2019-10-13T12:07:49Z</time>
      </trkpt>
      <trkpt lat="44.0335" lon="4.13128">
        <ele>95</ele>
        <time>2019-10-13T12:07:59Z</time>
      </trkpt>
      <trkpt lat="44.03351" lon="4.13099">
        <ele>95</ele>
        <time>2019-10-13T12:08:05Z</time>
      </trkpt>
      <trkpt lat="44.03355" lon="4.13071">
        <ele>94</ele>
        <time>2019-10-13T12:08:11Z</time>
      </trkpt>
      <trkpt lat="44.03362" lon="4.13046">
        <ele>94</ele>
        <time>2019-10-13T12:08:17Z</time>
      </trkpt>
      <trkpt lat="44.03369" lon="4.13019">
        <ele>93</ele>
        <time>2019-10-13T12:08:23Z</time>
      </trkpt>
      <trkpt lat="44.03379" lon="4.13001">
        <ele>93</ele>
        <time>2019-10-13T12:08:28Z</time>
      </trkpt>
      <trkpt lat="44.03389" lon="4.12978">
        <ele>93</ele>
        <time>2019-10-13T12:08:34Z</time>
      </trkpt>
      <trkpt lat="44.03397" lon="4.12952">
        <ele>93</ele>
        <time>2019-10-13T12:08:40Z</time>
      </trkpt>
      <trkpt lat="44.03405" lon="4.12926">
        <ele>93</ele>
        <time>2019-10-13T12:08:46Z</time>
      </trkpt>
      <trkpt lat="44.03414" lon="4.12899">
        <ele>93</ele>
        <time>2019-10-13T12:08:52Z</time>
      </trkpt>
      <trkpt lat="44.03422" lon="4.12873">
        <ele>93</ele>
        <time>2019-10-13T12:08:58Z</time>
      </trkpt>
      <trkpt lat="44.0343" lon="4.12847">
        <ele>93</ele>
        <time>2019-10-13T12:09:04Z</time>
      </trkpt>
      <trkpt lat="44.03435" lon="4.12824">
        <ele>93</ele>
        <time>2019-10-13T12:09:10Z</time>
      </trkpt>
      <trkpt lat="44.03436" lon="4.1282">
        <ele>93</ele>
        <time>2019-10-13T12:09:11Z</time>
      </trkpt>
      <trkpt lat="44.03448" lon="4.12814">
        <ele>93</ele>
        <time>2019-10-13T12:09:15Z</time>
      </trkpt>
      <trkpt lat="44.03455" lon="4.12811">
        <ele>93</ele>
        <time>2019-10-13T12:09:18Z</time>
      </trkpt>
      <trkpt lat="44.03466" lon="4.12808">
        <ele>95</ele>
        <time>2019-10-13T12:10:55Z</time>
      </trkpt>
      <trkpt lat="44.03472" lon="4.1281">
        <ele>95</ele>
        <time>2019-10-13T12:10:58Z</time>
      </trkpt>
      <trkpt lat="44.03489" lon="4.1281">
        <ele>95</ele>
        <time>2019-10-13T12:11:04Z</time>
      </trkpt>
      <trkpt lat="44.03507" lon="4.12811">
        <ele>95</ele>
        <time>2019-10-13T12:11:10Z</time>
      </trkpt>
      <trkpt lat="44.03528" lon="4.12815">
        <ele>95</ele>
        <time>2019-10-13T12:11:17Z</time>
      </trkpt>
      <trkpt lat="44.03539" lon="4.12815">
        <ele>95</ele>
        <time>2019-10-13T12:11:22Z</time>
      </trkpt>
      <trkpt lat="44.0355" lon="4.12811">
        <ele>95</ele>
        <time>2019-10-13T12:11:28Z</time>
      </trkpt>
      <trkpt lat="44.03552" lon="4.12811">
        <ele>95</ele>
        <time>2019-10-13T12:11:33Z</time>
      </trkpt>
      <trkpt lat="44.03555" lon="4.12811">
        <ele>95</ele>
        <time>2019-10-13T12:11:40Z</time>
      </trkpt>
      <trkpt lat="44.03556" lon="4.1281">
        <ele>95</ele>
        <time>2019-10-13T12:11:43Z</time>
      </trkpt>
      <trkpt lat="44.03545" lon="4.12803">
        <ele>95</ele>
        <time>2019-10-13T12:13:11Z</time>
      </trkpt>
      <trkpt lat="44.03547" lon="4.12769">
        <ele>95</ele>
        <time>2019-10-13T12:13:22Z</time>
      </trkpt>
      <trkpt lat="44.03546" lon="4.12755">
        <ele>95</ele>
        <time>2019-10-13T12:13:27Z</time>
      </trkpt>
      <trkpt lat="44.03547" lon="4.1273">
        <ele>95</ele>
        <time>2019-10-13T12:13:34Z</time>
      </trkpt>
      <trkpt lat="44.03548" lon="4.12707">
        <ele>95</ele>
        <time>2019-10-13T12:13:41Z</time>
      </trkpt>
      <trkpt lat="44.03551" lon="4.12688">
        <ele>95</ele>
        <time>2019-10-13T12:13:47Z</time>
      </trkpt>
      <trkpt lat="44.03555" lon="4.12668">
        <ele>95</ele>
        <time>2019-10-13T12:13:53Z</time>
      </trkpt>
      <trkpt lat="44.03556" lon="4.12646">
        <ele>95</ele>
        <time>2019-10-13T12:14:00Z</time>
      </trkpt>
      <trkpt lat="44.03556" lon="4.12637">
        <ele>95</ele>
        <time>2019-10-13T12:14:06Z</time>
      </trkpt>
      <trkpt lat="44.03555" lon="4.12641">
        <ele>95</ele>
        <time>2019-10-13T12:14:12Z</time>
      </trkpt>
      <trkpt lat="44.03556" lon="4.12643">
        <ele>94</ele>
        <time>2019-10-13T12:14:18Z</time>
      </trkpt>
      <trkpt lat="44.03555" lon="4.12638">
        <ele>94</ele>
        <time>2019-10-13T12:14:23Z</time>
      </trkpt>
      <trkpt lat="44.03557" lon="4.1263">
        <ele>93</ele>
        <time>2019-10-13T12:14:34Z</time>
      </trkpt>
      <trkpt lat="44.0356" lon="4.12614">
        <ele>93</ele>
        <time>2019-10-13T12:14:41Z</time>
      </trkpt>
      <trkpt lat="44.03564" lon="4.12597">
        <ele>93</ele>
        <time>2019-10-13T12:14:47Z</time>
      </trkpt>
      <trkpt lat="44.03568" lon="4.12581">
        <ele>93</ele>
        <time>2019-10-13T12:14:53Z</time>
      </trkpt>
      <trkpt lat="44.03575" lon="4.12566">
        <ele>92</ele>
        <time>2019-10-13T12:14:59Z</time>
      </trkpt>
      <trkpt lat="44.03576" lon="4.12563">
        <ele>92</ele>
        <time>2019-10-13T12:15:03Z</time>
      </trkpt>
      <trkpt lat="44.03582" lon="4.12553">
        <ele>92</ele>
        <time>2019-10-13T12:15:28Z</time>
      </trkpt>
      <trkpt lat="44.03585" lon="4.12541">
        <ele>92</ele>
        <time>2019-10-13T12:15:33Z</time>
      </trkpt>
      <trkpt lat="44.0359" lon="4.12532">
        <ele>93</ele>
        <time>2019-10-13T12:15:39Z</time>
      </trkpt>
      <trkpt lat="44.03593" lon="4.12532">
        <ele>93</ele>
        <time>2019-10-13T12:15:46Z</time>
      </trkpt>
      <trkpt lat="44.03596" lon="4.12525">
        <ele>93</ele>
        <time>2019-10-13T12:15:59Z</time>
      </trkpt>
      <trkpt lat="44.03595" lon="4.1252">
        <ele>93</ele>
        <time>2019-10-13T12:16:07Z</time>
      </trkpt>
      <trkpt lat="44.03595" lon="4.12515">
        <ele>93</ele>
        <time>2019-10-13T12:16:12Z</time>
      </trkpt>
      <trkpt lat="44.03597" lon="4.12511">
        <ele>93</ele>
        <time>2019-10-13T12:16:20Z</time>
      </trkpt>
      <trkpt lat="44.03598" lon="4.12507">
        <ele>94</ele>
        <time>2019-10-13T12:16:26Z</time>
      </trkpt>
      <trkpt lat="44.03599" lon="4.12503">
        <ele>95</ele>
        <time>2019-10-13T12:16:31Z</time>
      </trkpt>
      <trkpt lat="44.03601" lon="4.12497">
        <ele>95</ele>
        <time>2019-10-13T12:16:38Z</time>
      </trkpt>
      <trkpt lat="44.03609" lon="4.12492">
        <ele>98</ele>
        <time>2019-10-13T12:16:58Z</time>
      </trkpt>
      <trkpt lat="44.03611" lon="4.12491">
        <ele>98</ele>
        <time>2019-10-13T12:16:59Z</time>
      </trkpt>
      <trkpt lat="44.0362" lon="4.12482">
        <ele>99</ele>
        <time>2019-10-13T12:17:04Z</time>
      </trkpt>
      <trkpt lat="44.03626" lon="4.12471">
        <ele>99</ele>
        <time>2019-10-13T12:17:10Z</time>
      </trkpt>
      <trkpt lat="44.03627" lon="4.12469">
        <ele>99</ele>
        <time>2019-10-13T12:17:18Z</time>
      </trkpt>
      <trkpt lat="44.03629" lon="4.12467">
        <ele>100</ele>
        <time>2019-10-13T12:17:28Z</time>
      </trkpt>
      <trkpt lat="44.03631" lon="4.12459">
        <ele>101</ele>
        <time>2019-10-13T12:17:36Z</time>
      </trkpt>
      <trkpt lat="44.03633" lon="4.12454">
        <ele>101</ele>
        <time>2019-10-13T12:17:42Z</time>
      </trkpt>
      <trkpt lat="44.0364" lon="4.12445">
        <ele>101</ele>
        <time>2019-10-13T12:17:48Z</time>
      </trkpt>
      <trkpt lat="44.03647" lon="4.12432">
        <ele>101</ele>
        <time>2019-10-13T12:17:54Z</time>
      </trkpt>
      <trkpt lat="44.03656" lon="4.12419">
        <ele>101</ele>
        <time>2019-10-13T12:17:59Z</time>
      </trkpt>
      <trkpt lat="44.03669" lon="4.124">
        <ele>101</ele>
        <time>2019-10-13T12:18:06Z</time>
      </trkpt>
      <trkpt lat="44.0368" lon="4.12385">
        <ele>101</ele>
        <time>2019-10-13T12:18:12Z</time>
      </trkpt>
      <trkpt lat="44.03686" lon="4.12375">
        <ele>101</ele>
        <time>2019-10-13T12:18:18Z</time>
      </trkpt>
      <trkpt lat="44.03689" lon="4.12368">
        <ele>101</ele>
        <time>2019-10-13T12:18:25Z</time>
      </trkpt>
      <trkpt lat="44.03692" lon="4.12363">
        <ele>101</ele>
        <time>2019-10-13T12:18:32Z</time>
      </trkpt>
      <trkpt lat="44.03694" lon="4.12354">
        <ele>101</ele>
        <time>2019-10-13T12:18:36Z</time>
      </trkpt>
      <trkpt lat="44.03696" lon="4.12339">
        <ele>101</ele>
        <time>2019-10-13T12:18:42Z</time>
      </trkpt>
      <trkpt lat="44.03697" lon="4.12323">
        <ele>101</ele>
        <time>2019-10-13T12:18:48Z</time>
      </trkpt>
      <trkpt lat="44.03698" lon="4.12308">
        <ele>101</ele>
        <time>2019-10-13T12:18:53Z</time>
      </trkpt>
      <trkpt lat="44.037" lon="4.12289">
        <ele>101</ele>
        <time>2019-10-13T12:18:59Z</time>
      </trkpt>
      <trkpt lat="44.03703" lon="4.12275">
        <ele>101</ele>
        <time>2019-10-13T12:19:05Z</time>
      </trkpt>
      <trkpt lat="44.03705" lon="4.12258">
        <ele>101</ele>
        <time>2019-10-13T12:19:11Z</time>
      </trkpt>
      <trkpt lat="44.03709" lon="4.12242">
        <ele>101</ele>
        <time>2019-10-13T12:19:17Z</time>
      </trkpt>
      <trkpt lat="44.03717" lon="4.12237">
        <ele>100</ele>
        <time>2019-10-13T12:19:22Z</time>
      </trkpt>
      <trkpt lat="44.03717" lon="4.12236">
        <ele>100</ele>
        <time>2019-10-13T12:19:32Z</time>
      </trkpt>
      <trkpt lat="44.03716" lon="4.12236">
        <ele>100</ele>
        <time>2019-10-13T12:19:37Z</time>
      </trkpt>
      <trkpt lat="44.03711" lon="4.12238">
        <ele>99</ele>
        <time>2019-10-13T12:19:41Z</time>
      </trkpt>
      <trkpt lat="44.03707" lon="4.12245">
        <ele>99</ele>
        <time>2019-10-13T12:19:45Z</time>
      </trkpt>
      <trkpt lat="44.03703" lon="4.12246">
        <ele>99</ele>
        <time>2019-10-13T12:19:48Z</time>
      </trkpt>
      <trkpt lat="44.03694" lon="4.12242">
        <ele>98</ele>
        <time>2019-10-13T12:19:58Z</time>
      </trkpt>
      <trkpt lat="44.03694" lon="4.12239">
        <ele>97</ele>
        <time>2019-10-13T12:20:17Z</time>
      </trkpt>
      <trkpt lat="44.03697" lon="4.12226">
        <ele>97</ele>
        <time>2019-10-13T12:20:23Z</time>
      </trkpt>
      <trkpt lat="44.03697" lon="4.12223">
        <ele>97</ele>
        <time>2019-10-13T12:20:24Z</time>
      </trkpt>
      <trkpt lat="44.03704" lon="4.122">
        <ele>97</ele>
        <time>2019-10-13T12:20:31Z</time>
      </trkpt>
      <trkpt lat="44.03711" lon="4.12175">
        <ele>97</ele>
        <time>2019-10-13T12:20:37Z</time>
      </trkpt>
      <trkpt lat="44.03718" lon="4.12151">
        <ele>97</ele>
        <time>2019-10-13T12:20:42Z</time>
      </trkpt>
      <trkpt lat="44.03726" lon="4.12127">
        <ele>97</ele>
        <time>2019-10-13T12:20:47Z</time>
      </trkpt>
      <trkpt lat="44.03733" lon="4.12102">
        <ele>97</ele>
        <time>2019-10-13T12:20:53Z</time>
      </trkpt>
      <trkpt lat="44.03742" lon="4.12073">
        <ele>97</ele>
        <time>2019-10-13T12:20:59Z</time>
      </trkpt>
      <trkpt lat="44.0375" lon="4.1205">
        <ele>97</ele>
        <time>2019-10-13T12:21:05Z</time>
      </trkpt>
      <trkpt lat="44.03756" lon="4.1202">
        <ele>97</ele>
        <time>2019-10-13T12:21:11Z</time>
      </trkpt>
      <trkpt lat="44.03762" lon="4.11994">
        <ele>96</ele>
        <time>2019-10-13T12:21:16Z</time>
      </trkpt>
      <trkpt lat="44.03768" lon="4.1197">
        <ele>96</ele>
        <time>2019-10-13T12:21:21Z</time>
      </trkpt>
      <trkpt lat="44.03777" lon="4.11945">
        <ele>96</ele>
        <time>2019-10-13T12:21:26Z</time>
      </trkpt>
      <trkpt lat="44.0379" lon="4.11921">
        <ele>95</ele>
        <time>2019-10-13T12:21:31Z</time>
      </trkpt>
      <trkpt lat="44.03801" lon="4.11899">
        <ele>95</ele>
        <time>2019-10-13T12:21:36Z</time>
      </trkpt>
      <trkpt lat="44.03803" lon="4.11895">
        <ele>95</ele>
        <time>2019-10-13T12:21:37Z</time>
      </trkpt>
      <trkpt lat="44.03815" lon="4.11871">
        <ele>95</ele>
        <time>2019-10-13T12:21:43Z</time>
      </trkpt>
      <trkpt lat="44.03825" lon="4.1185">
        <ele>95</ele>
        <time>2019-10-13T12:21:48Z</time>
      </trkpt>
      <trkpt lat="44.03837" lon="4.1183">
        <ele>95</ele>
        <time>2019-10-13T12:21:53Z</time>
      </trkpt>
      <trkpt lat="44.03846" lon="4.11808">
        <ele>95</ele>
        <time>2019-10-13T12:21:58Z</time>
      </trkpt>
      <trkpt lat="44.03854" lon="4.11792">
        <ele>96</ele>
        <time>2019-10-13T12:22:03Z</time>
      </trkpt>
      <trkpt lat="44.03868" lon="4.1177">
        <ele>96</ele>
        <time>2019-10-13T12:22:09Z</time>
      </trkpt>
      <trkpt lat="44.0388" lon="4.11752">
        <ele>97</ele>
        <time>2019-10-13T12:22:14Z</time>
      </trkpt>
      <trkpt lat="44.03893" lon="4.11732">
        <ele>98</ele>
        <time>2019-10-13T12:22:19Z</time>
      </trkpt>
      <trkpt lat="44.03906" lon="4.11713">
        <ele>98</ele>
        <time>2019-10-13T12:22:24Z</time>
      </trkpt>
      <trkpt lat="44.03919" lon="4.11694">
        <ele>100</ele>
        <time>2019-10-13T12:22:29Z</time>
      </trkpt>
      <trkpt lat="44.03931" lon="4.11675">
        <ele>100</ele>
        <time>2019-10-13T12:22:34Z</time>
      </trkpt>
      <trkpt lat="44.03946" lon="4.11653">
        <ele>101</ele>
        <time>2019-10-13T12:22:40Z</time>
      </trkpt>
      <trkpt lat="44.03956" lon="4.11643">
        <ele>102</ele>
        <time>2019-10-13T12:22:45Z</time>
      </trkpt>
      <trkpt lat="44.03956" lon="4.11643">
        <ele>103</ele>
        <time>2019-10-13T12:22:46Z</time>
      </trkpt>
      <trkpt lat="44.03936" lon="4.11627">
        <ele>104</ele>
        <time>2019-10-13T12:24:20Z</time>
      </trkpt>
      <trkpt lat="44.0393" lon="4.11624">
        <ele>104</ele>
        <time>2019-10-13T12:24:23Z</time>
      </trkpt>
      <trkpt lat="44.03921" lon="4.11619">
        <ele>104</ele>
        <time>2019-10-13T12:24:28Z</time>
      </trkpt>
      <trkpt lat="44.03903" lon="4.11612">
        <ele>103</ele>
        <time>2019-10-13T12:24:36Z</time>
      </trkpt>
      <trkpt lat="44.03888" lon="4.11603">
        <ele>102</ele>
        <time>2019-10-13T12:24:42Z</time>
      </trkpt>
      <trkpt lat="44.03883" lon="4.11594">
        <ele>101</ele>
        <time>2019-10-13T12:24:46Z</time>
      </trkpt>
      <trkpt lat="44.03882" lon="4.11591">
        <ele>101</ele>
        <time>2019-10-13T12:24:47Z</time>
      </trkpt>
      <trkpt lat="44.03885" lon="4.11575">
        <ele>100</ele>
        <time>2019-10-13T12:24:52Z</time>
      </trkpt>
      <trkpt lat="44.03885" lon="4.11573">
        <ele>100</ele>
        <time>2019-10-13T12:24:53Z</time>
      </trkpt>
      <trkpt lat="44.03877" lon="4.11555">
        <ele>100</ele>
        <time>2019-10-13T12:24:57Z</time>
      </trkpt>
      <trkpt lat="44.03874" lon="4.11552">
        <ele>100</ele>
        <time>2019-10-13T12:24:59Z</time>
      </trkpt>
      <trkpt lat="44.03872" lon="4.11554">
        <ele>100</ele>
        <time>2019-10-13T12:25:05Z</time>
      </trkpt>
      <trkpt lat="44.03871" lon="4.11553">
        <ele>100</ele>
        <time>2019-10-13T12:25:11Z</time>
      </trkpt>
      <trkpt lat="44.03871" lon="4.11554">
        <ele>100</ele>
        <time>2019-10-13T12:25:13Z</time>
      </trkpt>
      <trkpt lat="44.03877" lon="4.11561">
        <ele>100</ele>
        <time>2019-10-13T12:25:18Z</time>
      </trkpt>
      <trkpt lat="44.03878" lon="4.11564">
        <ele>100</ele>
        <time>2019-10-13T12:25:19Z</time>
      </trkpt>
      <trkpt lat="44.03881" lon="4.11575">
        <ele>100</ele>
        <time>2019-10-13T12:25:23Z</time>
      </trkpt>
      <trkpt lat="44.03878" lon="4.11593">
        <ele>100</ele>
        <time>2019-10-13T12:25:29Z</time>
      </trkpt>
      <trkpt lat="44.03879" lon="4.11596">
        <ele>100</ele>
        <time>2019-10-13T12:25:30Z</time>
      </trkpt>
      <trkpt lat="44.03887" lon="4.11603">
        <ele>100</ele>
        <time>2019-10-13T12:25:34Z</time>
      </trkpt>
      <trkpt lat="44.0389" lon="4.11606">
        <ele>100</ele>
        <time>2019-10-13T12:25:36Z</time>
      </trkpt>
      <trkpt lat="44.03906" lon="4.11612">
        <ele>100</ele>
        <time>2019-10-13T12:25:43Z</time>
      </trkpt>
      <trkpt lat="44.03923" lon="4.1162">
        <ele>99</ele>
        <time>2019-10-13T12:25:50Z</time>
      </trkpt>
      <trkpt lat="44.03937" lon="4.11627">
        <ele>99</ele>
        <time>2019-10-13T12:25:56Z</time>
      </trkpt>
      <trkpt lat="44.03955" lon="4.1164">
        <ele>98</ele>
        <time>2019-10-13T12:26:05Z</time>
      </trkpt>
      <trkpt lat="44.03961" lon="4.11655">
        <ele>98</ele>
        <time>2019-10-13T12:26:11Z</time>
      </trkpt>
      <trkpt lat="44.03967" lon="4.11669">
        <ele>99</ele>
        <time>2019-10-13T12:26:18Z</time>
      </trkpt>
      <trkpt lat="44.0397" lon="4.11679">
        <ele>100</ele>
        <time>2019-10-13T12:26:24Z</time>
      </trkpt>
      <trkpt lat="44.03976" lon="4.11689">
        <ele>101</ele>
        <time>2019-10-13T12:26:31Z</time>
      </trkpt>
      <trkpt lat="44.03979" lon="4.11693">
        <ele>101</ele>
        <time>2019-10-13T12:26:33Z</time>
      </trkpt>
      <trkpt lat="44.03979" lon="4.11704">
        <ele>102</ele>
        <time>2019-10-13T12:26:38Z</time>
      </trkpt>
      <trkpt lat="44.03978" lon="4.11708">
        <ele>103</ele>
        <time>2019-10-13T12:26:40Z</time>
      </trkpt>
      <trkpt lat="44.0397" lon="4.11722">
        <ele>103</ele>
        <time>2019-10-13T12:26:49Z</time>
      </trkpt>
      <trkpt lat="44.03976" lon="4.11712">
        <ele>105</ele>
        <time>2019-10-13T12:27:00Z</time>
      </trkpt>
      <trkpt lat="44.03981" lon="4.11698">
        <ele>105</ele>
        <time>2019-10-13T12:27:05Z</time>
      </trkpt>
      <trkpt lat="44.03977" lon="4.11687">
        <ele>106</ele>
        <time>2019-10-13T12:27:11Z</time>
      </trkpt>
      <trkpt lat="44.03977" lon="4.11686">
        <ele>106</ele>
        <time>2019-10-13T12:27:17Z</time>
      </trkpt>
      <trkpt lat="44.03977" lon="4.11687">
        <ele>106</ele>
        <time>2019-10-13T12:27:24Z</time>
      </trkpt>
      <trkpt lat="44.03967" lon="4.1167">
        <ele>106</ele>
        <time>2019-10-13T12:27:29Z</time>
      </trkpt>
      <trkpt lat="44.0396" lon="4.11644">
        <ele>106</ele>
        <time>2019-10-13T12:27:34Z</time>
      </trkpt>
      <trkpt lat="44.03959" lon="4.11639">
        <ele>106</ele>
        <time>2019-10-13T12:27:35Z</time>
      </trkpt>
      <trkpt lat="44.03972" lon="4.11615">
        <ele>105</ele>
        <time>2019-10-13T12:27:40Z</time>
      </trkpt>
      <trkpt lat="44.03975" lon="4.11611">
        <ele>105</ele>
        <time>2019-10-13T12:27:41Z</time>
      </trkpt>
      <trkpt lat="44.03988" lon="4.11593">
        <ele>104</ele>
        <time>2019-10-13T12:27:46Z</time>
      </trkpt>
      <trkpt lat="44.03998" lon="4.11573">
        <ele>103</ele>
        <time>2019-10-13T12:27:52Z</time>
      </trkpt>
      <trkpt lat="44.04009" lon="4.11553">
        <ele>103</ele>
        <time>2019-10-13T12:27:57Z</time>
      </trkpt>
      <trkpt lat="44.04023" lon="4.11537">
        <ele>102</ele>
        <time>2019-10-13T12:28:02Z</time>
      </trkpt>
      <trkpt lat="44.04039" lon="4.1152">
        <ele>101</ele>
        <time>2019-10-13T12:28:07Z</time>
      </trkpt>
      <trkpt lat="44.0405" lon="4.115">
        <ele>101</ele>
        <time>2019-10-13T12:28:12Z</time>
      </trkpt>
      <trkpt lat="44.04063" lon="4.11476">
        <ele>100</ele>
        <time>2019-10-13T12:28:17Z</time>
      </trkpt>
      <trkpt lat="44.04079" lon="4.11456">
        <ele>100</ele>
        <time>2019-10-13T12:28:22Z</time>
      </trkpt>
      <trkpt lat="44.04093" lon="4.11436">
        <ele>100</ele>
        <time>2019-10-13T12:28:27Z</time>
      </trkpt>
      <trkpt lat="44.04107" lon="4.11415">
        <ele>100</ele>
        <time>2019-10-13T12:28:32Z</time>
      </trkpt>
      <trkpt lat="44.04121" lon="4.11395">
        <ele>100</ele>
        <time>2019-10-13T12:28:37Z</time>
      </trkpt>
      <trkpt lat="44.04135" lon="4.11376">
        <ele>100</ele>
        <time>2019-10-13T12:28:43Z</time>
      </trkpt>
      <trkpt lat="44.04142" lon="4.11367">
        <ele>100</ele>
        <time>2019-10-13T12:28:48Z</time>
      </trkpt>
      <trkpt lat="44.04146" lon="4.11362">
        <ele>101</ele>
        <time>2019-10-13T12:28:56Z</time>
      </trkpt>
      <trkpt lat="44.0415" lon="4.11357">
        <ele>102</ele>
        <time>2019-10-13T12:29:05Z</time>
      </trkpt>
      <trkpt lat="44.04153" lon="4.11352">
        <ele>103</ele>
        <time>2019-10-13T12:29:14Z</time>
      </trkpt>
      <trkpt lat="44.04152" lon="4.11347">
        <ele>104</ele>
        <time>2019-10-13T12:29:23Z</time>
      </trkpt>
      <trkpt lat="44.04152" lon="4.11347">
        <ele>105</ele>
        <time>2019-10-13T12:29:26Z</time>
      </trkpt>
      <trkpt lat="44.04106" lon="4.11416">
        <ele>104</ele>
        <time>2019-10-13T12:31:22Z</time>
      </trkpt>
      <trkpt lat="44.04101" lon="4.11422">
        <ele>104</ele>
        <time>2019-10-13T12:31:24Z</time>
      </trkpt>
      <trkpt lat="44.04099" lon="4.11426">
        <ele>104</ele>
        <time>2019-10-13T12:31:25Z</time>
      </trkpt>
      <trkpt lat="44.04088" lon="4.11443">
        <ele>103</ele>
        <time>2019-10-13T12:31:30Z</time>
      </trkpt>
      <trkpt lat="44.04074" lon="4.11462">
        <ele>103</ele>
        <time>2019-10-13T12:31:35Z</time>
      </trkpt>
      <trkpt lat="44.04061" lon="4.11483">
        <ele>102</ele>
        <time>2019-10-13T12:31:40Z</time>
      </trkpt>
      <trkpt lat="44.04051" lon="4.11504">
        <ele>102</ele>
        <time>2019-10-13T12:31:45Z</time>
      </trkpt>
      <trkpt lat="44.04036" lon="4.11524">
        <ele>102</ele>
        <time>2019-10-13T12:31:51Z</time>
      </trkpt>
      <trkpt lat="44.0402" lon="4.11542">
        <ele>102</ele>
        <time>2019-10-13T12:31:57Z</time>
      </trkpt>
      <trkpt lat="44.04008" lon="4.11562">
        <ele>102</ele>
        <time>2019-10-13T12:32:02Z</time>
      </trkpt>
      <trkpt lat="44.04003" lon="4.11573">
        <ele>102</ele>
        <time>2019-10-13T12:32:06Z</time>
      </trkpt>
      <trkpt lat="44.04002" lon="4.11575">
        <ele>103</ele>
        <time>2019-10-13T12:32:07Z</time>
      </trkpt>
      <trkpt lat="44.04006" lon="4.11576">
        <ele>103</ele>
        <time>2019-10-13T12:32:11Z</time>
      </trkpt>
      <trkpt lat="44.04009" lon="4.11573">
        <ele>103</ele>
        <time>2019-10-13T12:32:14Z</time>
      </trkpt>
      <trkpt lat="44.04019" lon="4.11562">
        <ele>104</ele>
        <time>2019-10-13T12:32:21Z</time>
      </trkpt>
      <trkpt lat="44.04028" lon="4.11554">
        <ele>105</ele>
        <time>2019-10-13T12:32:27Z</time>
      </trkpt>
      <trkpt lat="44.04042" lon="4.11542">
        <ele>105</ele>
        <time>2019-10-13T12:32:34Z</time>
      </trkpt>
      <trkpt lat="44.04059" lon="4.1153">
        <ele>106</ele>
        <time>2019-10-13T12:32:42Z</time>
      </trkpt>
      <trkpt lat="44.04074" lon="4.11525">
        <ele>107</ele>
        <time>2019-10-13T12:32:49Z</time>
      </trkpt>
      <trkpt lat="44.04097" lon="4.1152">
        <ele>108</ele>
        <time>2019-10-13T12:33:03Z</time>
      </trkpt>
      <trkpt lat="44.04098" lon="4.11517">
        <ele>108</ele>
        <time>2019-10-13T12:33:05Z</time>
      </trkpt>
      <trkpt lat="44.04107" lon="4.11501">
        <ele>108</ele>
        <time>2019-10-13T12:33:15Z</time>
      </trkpt>
      <trkpt lat="44.0412" lon="4.11493">
        <ele>108</ele>
        <time>2019-10-13T12:33:24Z</time>
      </trkpt>
      <trkpt lat="44.04123" lon="4.11492">
        <ele>108</ele>
        <time>2019-10-13T12:33:26Z</time>
      </trkpt>
      <trkpt lat="44.0414" lon="4.11485">
        <ele>109</ele>
        <time>2019-10-13T12:33:38Z</time>
      </trkpt>
      <trkpt lat="44.04151" lon="4.1148">
        <ele>110</ele>
        <time>2019-10-13T12:33:45Z</time>
      </trkpt>
      <trkpt lat="44.04155" lon="4.11478">
        <ele>110</ele>
        <time>2019-10-13T12:33:48Z</time>
      </trkpt>
      <trkpt lat="44.04167" lon="4.11474">
        <ele>110</ele>
        <time>2019-10-13T12:33:56Z</time>
      </trkpt>
      <trkpt lat="44.04189" lon="4.11481">
        <ele>110</ele>
        <time>2019-10-13T12:34:09Z</time>
      </trkpt>
      <trkpt lat="44.04194" lon="4.11484">
        <ele>110</ele>
        <time>2019-10-13T12:34:13Z</time>
      </trkpt>
      <trkpt lat="44.042" lon="4.1149">
        <ele>110</ele>
        <time>2019-10-13T12:34:20Z</time>
      </trkpt>
      <trkpt lat="44.04203" lon="4.11491">
        <ele>110</ele>
        <time>2019-10-13T12:34:32Z</time>
      </trkpt>
      <trkpt lat="44.0406" lon="4.11528">
        <ele>110</ele>
        <time>2019-10-13T12:36:40Z</time>
      </trkpt>
      <trkpt lat="44.04054" lon="4.11532">
        <ele>109</ele>
        <time>2019-10-13T12:36:48Z</time>
      </trkpt>
      <trkpt lat="44.04041" lon="4.11543">
        <ele>108</ele>
        <time>2019-10-13T12:36:55Z</time>
      </trkpt>
      <trkpt lat="44.04032" lon="4.11552">
        <ele>108</ele>
        <time>2019-10-13T12:37:00Z</time>
      </trkpt>
      <trkpt lat="44.04021" lon="4.11562">
        <ele>108</ele>
        <time>2019-10-13T12:37:05Z</time>
      </trkpt>
      <trkpt lat="44.04005" lon="4.11579">
        <ele>108</ele>
        <time>2019-10-13T12:37:10Z</time>
      </trkpt>
      <trkpt lat="44.03987" lon="4.11601">
        <ele>108</ele>
        <time>2019-10-13T12:37:14Z</time>
      </trkpt>
      <trkpt lat="44.03974" lon="4.11618">
        <ele>108</ele>
        <time>2019-10-13T12:37:17Z</time>
      </trkpt>
      <trkpt lat="44.0397" lon="4.11623">
        <ele>108</ele>
        <time>2019-10-13T12:37:18Z</time>
      </trkpt>
      <trkpt lat="44.03962" lon="4.11642">
        <ele>108</ele>
        <time>2019-10-13T12:37:22Z</time>
      </trkpt>
      <trkpt lat="44.03964" lon="4.11651">
        <ele>108</ele>
        <time>2019-10-13T12:37:25Z</time>
      </trkpt>
      <trkpt lat="44.0397" lon="4.11668">
        <ele>108</ele>
        <time>2019-10-13T12:37:32Z</time>
      </trkpt>
      <trkpt lat="44.03975" lon="4.11684">
        <ele>108</ele>
        <time>2019-10-13T12:37:41Z</time>
      </trkpt>
      <trkpt lat="44.03979" lon="4.11689">
        <ele>108</ele>
        <time>2019-10-13T12:37:46Z</time>
      </trkpt>
      <trkpt lat="44.03983" lon="4.11699">
        <ele>108</ele>
        <time>2019-10-13T12:37:51Z</time>
      </trkpt>
      <trkpt lat="44.0398" lon="4.11708">
        <ele>108</ele>
        <time>2019-10-13T12:37:55Z</time>
      </trkpt>
      <trkpt lat="44.03979" lon="4.11711">
        <ele>108</ele>
        <time>2019-10-13T12:37:57Z</time>
      </trkpt>
      <trkpt lat="44.03971" lon="4.11729">
        <ele>108</ele>
        <time>2019-10-13T12:38:06Z</time>
      </trkpt>
      <trkpt lat="44.03972" lon="4.11729">
        <ele>108</ele>
        <time>2019-10-13T12:38:11Z</time>
      </trkpt>
      <trkpt lat="44.0397" lon="4.11733">
        <ele>108</ele>
        <time>2019-10-13T12:38:31Z</time>
      </trkpt>
      <trkpt lat="44.03969" lon="4.11748">
        <ele>108</ele>
        <time>2019-10-13T12:38:38Z</time>
      </trkpt>
      <trkpt lat="44.0397" lon="4.11761">
        <ele>108</ele>
        <time>2019-10-13T12:38:46Z</time>
      </trkpt>
      <trkpt lat="44.03972" lon="4.11775">
        <ele>108</ele>
        <time>2019-10-13T12:38:53Z</time>
      </trkpt>
      <trkpt lat="44.03977" lon="4.11797">
        <ele>108</ele>
        <time>2019-10-13T12:39:03Z</time>
      </trkpt>
      <trkpt lat="44.03981" lon="4.11814">
        <ele>108</ele>
        <time>2019-10-13T12:39:13Z</time>
      </trkpt>
      <trkpt lat="44.03989" lon="4.11826">
        <ele>108</ele>
        <time>2019-10-13T12:39:22Z</time>
      </trkpt>
      <trkpt lat="44.03999" lon="4.11844">
        <ele>109</ele>
        <time>2019-10-13T12:39:33Z</time>
      </trkpt>
      <trkpt lat="44.04001" lon="4.11856">
        <ele>110</ele>
        <time>2019-10-13T12:39:41Z</time>
      </trkpt>
      <trkpt lat="44.04" lon="4.11857">
        <ele>110</ele>
        <time>2019-10-13T12:39:42Z</time>
      </trkpt>
      <trkpt lat="44.03996" lon="4.11866">
        <ele>111</ele>
        <time>2019-10-13T12:39:48Z</time>
      </trkpt>
      <trkpt lat="44.03998" lon="4.11891">
        <ele>114</ele>
        <time>2019-10-13T12:40:06Z</time>
      </trkpt>
      <trkpt lat="44.04009" lon="4.11895">
        <ele>115</ele>
        <time>2019-10-13T12:40:12Z</time>
      </trkpt>
      <trkpt lat="44.04011" lon="4.11895">
        <ele>115</ele>
        <time>2019-10-13T12:40:13Z</time>
      </trkpt>
      <trkpt lat="44.04023" lon="4.11902">
        <ele>116</ele>
        <time>2019-10-13T12:40:21Z</time>
      </trkpt>
      <trkpt lat="44.04038" lon="4.11914">
        <ele>116</ele>
        <time>2019-10-13T12:40:30Z</time>
      </trkpt>
      <trkpt lat="44.04044" lon="4.11915">
        <ele>116</ele>
        <time>2019-10-13T12:40:36Z</time>
      </trkpt>
      <trkpt lat="44.04049" lon="4.1191">
        <ele>118</ele>
        <time>2019-10-13T12:41:02Z</time>
      </trkpt>
      <trkpt lat="44.04049" lon="4.11909">
        <ele>118</ele>
        <time>2019-10-13T12:41:08Z</time>
      </trkpt>
      <trkpt lat="44.04051" lon="4.11903">
        <ele>118</ele>
        <time>2019-10-13T12:41:21Z</time>
      </trkpt>
      <trkpt lat="44.04064" lon="4.11895">
        <ele>118</ele>
        <time>2019-10-13T12:41:26Z</time>
      </trkpt>
      <trkpt lat="44.0407" lon="4.11895">
        <ele>118</ele>
        <time>2019-10-13T12:41:28Z</time>
      </trkpt>
      <trkpt lat="44.04092" lon="4.11895">
        <ele>118</ele>
        <time>2019-10-13T12:41:35Z</time>
      </trkpt>
      <trkpt lat="44.04114" lon="4.11891">
        <ele>118</ele>
        <time>2019-10-13T12:41:41Z</time>
      </trkpt>
      <trkpt lat="44.04133" lon="4.11885">
        <ele>118</ele>
        <time>2019-10-13T12:41:45Z</time>
      </trkpt>
      <trkpt lat="44.04154" lon="4.1188">
        <ele>118</ele>
        <time>2019-10-13T12:41:48Z</time>
      </trkpt>
      <trkpt lat="44.0416" lon="4.11877">
        <ele>118</ele>
        <time>2019-10-13T12:41:49Z</time>
      </trkpt>
      <trkpt lat="44.04173" lon="4.11871">
        <ele>118</ele>
        <time>2019-10-13T12:41:52Z</time>
      </trkpt>
      <trkpt lat="44.04202" lon="4.11853">
        <ele>118</ele>
        <time>2019-10-13T12:41:56Z</time>
      </trkpt>
      <trkpt lat="44.04225" lon="4.11839">
        <ele>118</ele>
        <time>2019-10-13T12:41:58Z</time>
      </trkpt>
      <trkpt lat="44.04232" lon="4.11836">
        <ele>117</ele>
        <time>2019-10-13T12:42:00Z</time>
      </trkpt>
      <trkpt lat="44.04249" lon="4.11821">
        <ele>116</ele>
        <time>2019-10-13T12:42:03Z</time>
      </trkpt>
      <trkpt lat="44.04257" lon="4.11801">
        <ele>116</ele>
        <time>2019-10-13T12:42:08Z</time>
      </trkpt>
      <trkpt lat="44.04269" lon="4.11773">
        <ele>115</ele>
        <time>2019-10-13T12:42:15Z</time>
      </trkpt>
      <trkpt lat="44.04278" lon="4.11749">
        <ele>115</ele>
        <time>2019-10-13T12:42:21Z</time>
      </trkpt>
      <trkpt lat="44.04287" lon="4.11727">
        <ele>114</ele>
        <time>2019-10-13T12:42:27Z</time>
      </trkpt>
      <trkpt lat="44.04297" lon="4.11704">
        <ele>114</ele>
        <time>2019-10-13T12:42:33Z</time>
      </trkpt>
      <trkpt lat="44.04306" lon="4.11681">
        <ele>114</ele>
        <time>2019-10-13T12:42:38Z</time>
      </trkpt>
      <trkpt lat="44.04315" lon="4.11657">
        <ele>114</ele>
        <time>2019-10-13T12:42:45Z</time>
      </trkpt>
      <trkpt lat="44.04324" lon="4.11635">
        <ele>113</ele>
        <time>2019-10-13T12:42:51Z</time>
      </trkpt>
      <trkpt lat="44.04323" lon="4.11632">
        <ele>113</ele>
        <time>2019-10-13T12:42:52Z</time>
      </trkpt>
      <trkpt lat="44.04318" lon="4.11637">
        <ele>113</ele>
        <time>2019-10-13T12:42:55Z</time>
      </trkpt>
      <trkpt lat="44.04318" lon="4.11638">
        <ele>113</ele>
        <time>2019-10-13T12:42:55Z</time>
      </trkpt>
      <trkpt lat="44.04313" lon="4.11662">
        <ele>112</ele>
        <time>2019-10-13T12:43:03Z</time>
      </trkpt>
      <trkpt lat="44.04303" lon="4.11685">
        <ele>112</ele>
        <time>2019-10-13T12:43:11Z</time>
      </trkpt>
      <trkpt lat="44.04295" lon="4.11707">
        <ele>112</ele>
        <time>2019-10-13T12:43:18Z</time>
      </trkpt>
      <trkpt lat="44.04286" lon="4.11729">
        <ele>112</ele>
        <time>2019-10-13T12:43:25Z</time>
      </trkpt>
      <trkpt lat="44.04276" lon="4.11753">
        <ele>112</ele>
        <time>2019-10-13T12:43:32Z</time>
      </trkpt>
      <trkpt lat="44.04266" lon="4.11777">
        <ele>112</ele>
        <time>2019-10-13T12:43:38Z</time>
      </trkpt>
      <trkpt lat="44.04256" lon="4.11799">
        <ele>112</ele>
        <time>2019-10-13T12:43:43Z</time>
      </trkpt>
      <trkpt lat="44.04249" lon="4.11819">
        <ele>112</ele>
        <time>2019-10-13T12:43:48Z</time>
      </trkpt>
      <trkpt lat="44.04255" lon="4.11828">
        <ele>112</ele>
        <time>2019-10-13T12:43:52Z</time>
      </trkpt>
      <trkpt lat="44.04262" lon="4.11828">
        <ele>112</ele>
        <time>2019-10-13T12:43:55Z</time>
      </trkpt>
      <trkpt lat="44.04276" lon="4.11831">
        <ele>111</ele>
        <time>2019-10-13T12:44:02Z</time>
      </trkpt>
      <trkpt lat="44.04292" lon="4.1184">
        <ele>110</ele>
        <time>2019-10-13T12:44:10Z</time>
      </trkpt>
      <trkpt lat="44.04305" lon="4.11841">
        <ele>110</ele>
        <time>2019-10-13T12:44:17Z</time>
      </trkpt>
      <trkpt lat="44.04318" lon="4.11844">
        <ele>110</ele>
        <time>2019-10-13T12:44:23Z</time>
      </trkpt>
      <trkpt lat="44.04334" lon="4.11851">
        <ele>110</ele>
        <time>2019-10-13T12:44:33Z</time>
      </trkpt>
      <trkpt lat="44.04346" lon="4.11859">
        <ele>110</ele>
        <time>2019-10-13T12:44:42Z</time>
      </trkpt>
      <trkpt lat="44.04358" lon="4.11868">
        <ele>111</ele>
        <time>2019-10-13T12:44:50Z</time>
      </trkpt>
      <trkpt lat="44.0437" lon="4.1187">
        <ele>112</ele>
        <time>2019-10-13T12:44:57Z</time>
      </trkpt>
      <trkpt lat="44.04387" lon="4.11874">
        <ele>112</ele>
        <time>2019-10-13T12:45:07Z</time>
      </trkpt>
      <trkpt lat="44.044" lon="4.1188">
        <ele>112</ele>
        <time>2019-10-13T12:45:13Z</time>
      </trkpt>
      <trkpt lat="44.04414" lon="4.11885">
        <ele>113</ele>
        <time>2019-10-13T12:45:21Z</time>
      </trkpt>
      <trkpt lat="44.04428" lon="4.11886">
        <ele>114</ele>
        <time>2019-10-13T12:45:28Z</time>
      </trkpt>
      <trkpt lat="44.04441" lon="4.11894">
        <ele>115</ele>
        <time>2019-10-13T12:45:35Z</time>
      </trkpt>
      <trkpt lat="44.04455" lon="4.11915">
        <ele>115</ele>
        <time>2019-10-13T12:45:42Z</time>
      </trkpt>
      <trkpt lat="44.04468" lon="4.11938">
        <ele>116</ele>
        <time>2019-10-13T12:45:47Z</time>
      </trkpt>
      <trkpt lat="44.0448" lon="4.11948">
        <ele>116</ele>
        <time>2019-10-13T12:45:51Z</time>
      </trkpt>
      <trkpt lat="44.04496" lon="4.11957">
        <ele>116</ele>
        <time>2019-10-13T12:45:58Z</time>
      </trkpt>
      <trkpt lat="44.04513" lon="4.11962">
        <ele>116</ele>
        <time>2019-10-13T12:46:05Z</time>
      </trkpt>
      <trkpt lat="44.04532" lon="4.11962">
        <ele>117</ele>
        <time>2019-10-13T12:46:12Z</time>
      </trkpt>
      <trkpt lat="44.04543" lon="4.1196">
        <ele>117</ele>
        <time>2019-10-13T12:46:18Z</time>
      </trkpt>
      <trkpt lat="44.0456" lon="4.11954">
        <ele>118</ele>
        <time>2019-10-13T12:46:25Z</time>
      </trkpt>
      <trkpt lat="44.04574" lon="4.11948">
        <ele>118</ele>
        <time>2019-10-13T12:46:31Z</time>
      </trkpt>
      <trkpt lat="44.04588" lon="4.11946">
        <ele>119</ele>
        <time>2019-10-13T12:46:37Z</time>
      </trkpt>
      <trkpt lat="44.04607" lon="4.11946">
        <ele>120</ele>
        <time>2019-10-13T12:46:46Z</time>
      </trkpt>
      <trkpt lat="44.04621" lon="4.11946">
        <ele>121</ele>
        <time>2019-10-13T12:46:52Z</time>
      </trkpt>
      <trkpt lat="44.04633" lon="4.11943">
        <ele>121</ele>
        <time>2019-10-13T12:46:58Z</time>
      </trkpt>
      <trkpt lat="44.04647" lon="4.11939">
        <ele>122</ele>
        <time>2019-10-13T12:47:05Z</time>
      </trkpt>
      <trkpt lat="44.04662" lon="4.11935">
        <ele>123</ele>
        <time>2019-10-13T12:47:12Z</time>
      </trkpt>
      <trkpt lat="44.0468" lon="4.11933">
        <ele>124</ele>
        <time>2019-10-13T12:47:22Z</time>
      </trkpt>
      <trkpt lat="44.04694" lon="4.11934">
        <ele>125</ele>
        <time>2019-10-13T12:47:28Z</time>
      </trkpt>
      <trkpt lat="44.04713" lon="4.11934">
        <ele>126</ele>
        <time>2019-10-13T12:47:38Z</time>
      </trkpt>
      <trkpt lat="44.04722" lon="4.11929">
        <ele>126</ele>
        <time>2019-10-13T12:47:43Z</time>
      </trkpt>
      <trkpt lat="44.04735" lon="4.11922">
        <ele>127</ele>
        <time>2019-10-13T12:47:53Z</time>
      </trkpt>
      <trkpt lat="44.04746" lon="4.11916">
        <ele>128</ele>
        <time>2019-10-13T12:48:00Z</time>
      </trkpt>
      <trkpt lat="44.04758" lon="4.11911">
        <ele>130</ele>
        <time>2019-10-13T12:48:08Z</time>
      </trkpt>
      <trkpt lat="44.04768" lon="4.11909">
        <ele>130</ele>
        <time>2019-10-13T12:48:16Z</time>
      </trkpt>
      <trkpt lat="44.04781" lon="4.11907">
        <ele>132</ele>
        <time>2019-10-13T12:48:24Z</time>
      </trkpt>
      <trkpt lat="44.04792" lon="4.11909">
        <ele>133</ele>
        <time>2019-10-13T12:48:33Z</time>
      </trkpt>
      <trkpt lat="44.04793" lon="4.1191">
        <ele>133</ele>
        <time>2019-10-13T12:48:37Z</time>
      </trkpt>
      <trkpt lat="44.048" lon="4.11914">
        <ele>134</ele>
        <time>2019-10-13T12:48:43Z</time>
      </trkpt>
      <trkpt lat="44.04816" lon="4.11926">
        <ele>137</ele>
        <time>2019-10-13T12:49:02Z</time>
      </trkpt>
      <trkpt lat="44.04817" lon="4.11927">
        <ele>138</ele>
        <time>2019-10-13T12:49:03Z</time>
      </trkpt>
      <trkpt lat="44.04759" lon="4.12143">
        <ele>166</ele>
        <time>2019-10-13T12:53:20Z</time>
      </trkpt>
      <trkpt lat="44.04759" lon="4.12144">
        <ele>166</ele>
        <time>2019-10-13T12:53:21Z</time>
      </trkpt>
      <trkpt lat="44.04756" lon="4.12147">
        <ele>167</ele>
        <time>2019-10-13T12:53:24Z</time>
      </trkpt>
      <trkpt lat="44.04758" lon="4.12151">
        <ele>167</ele>
        <time>2019-10-13T12:53:32Z</time>
      </trkpt>
      <trkpt lat="44.04762" lon="4.12156">
        <ele>169</ele>
        <time>2019-10-13T12:53:41Z</time>
      </trkpt>
      <trkpt lat="44.04765" lon="4.12164">
        <ele>170</ele>
        <time>2019-10-13T12:53:50Z</time>
      </trkpt>
      <trkpt lat="44.04771" lon="4.1217">
        <ele>171</ele>
        <time>2019-10-13T12:53:58Z</time>
      </trkpt>
      <trkpt lat="44.04778" lon="4.12175">
        <ele>171</ele>
        <time>2019-10-13T12:54:06Z</time>
      </trkpt>
      <trkpt lat="44.04779" lon="4.12175">
        <ele>172</ele>
        <time>2019-10-13T12:54:13Z</time>
      </trkpt>
      <trkpt lat="44.04785" lon="4.12176">
        <ele>173</ele>
        <time>2019-10-13T12:54:22Z</time>
      </trkpt>
      <trkpt lat="44.04786" lon="4.12175">
        <ele>173</ele>
        <time>2019-10-13T12:54:23Z</time>
      </trkpt>
      <trkpt lat="44.0479" lon="4.12171">
        <ele>173</ele>
        <time>2019-10-13T12:54:27Z</time>
      </trkpt>
      <trkpt lat="44.04792" lon="4.12169">
        <ele>173</ele>
        <time>2019-10-13T12:54:29Z</time>
      </trkpt>
      <trkpt lat="44.04802" lon="4.12161">
        <ele>173</ele>
        <time>2019-10-13T12:54:35Z</time>
      </trkpt>
      <trkpt lat="44.04808" lon="4.12154">
        <ele>174</ele>
        <time>2019-10-13T12:54:39Z</time>
      </trkpt>
      <trkpt lat="44.04819" lon="4.12151">
        <ele>174</ele>
        <time>2019-10-13T12:54:46Z</time>
      </trkpt>
      <trkpt lat="44.04829" lon="4.12147">
        <ele>174</ele>
        <time>2019-10-13T12:54:52Z</time>
      </trkpt>
      <trkpt lat="44.0483" lon="4.12147">
        <ele>174</ele>
        <time>2019-10-13T12:54:53Z</time>
      </trkpt>
      <trkpt lat="44.04848" lon="4.12153">
        <ele>174</ele>
        <time>2019-10-13T12:55:02Z</time>
      </trkpt>
      <trkpt lat="44.04862" lon="4.12155">
        <ele>174</ele>
        <time>2019-10-13T12:55:09Z</time>
      </trkpt>
      <trkpt lat="44.04866" lon="4.12153">
        <ele>174</ele>
        <time>2019-10-13T12:55:11Z</time>
      </trkpt>
      <trkpt lat="44.04879" lon="4.12154">
        <ele>175</ele>
        <time>2019-10-13T12:55:17Z</time>
      </trkpt>
      <trkpt lat="44.04881" lon="4.12155">
        <ele>175</ele>
        <time>2019-10-13T12:55:18Z</time>
      </trkpt>
      <trkpt lat="44.04885" lon="4.12157">
        <ele>175</ele>
        <time>2019-10-13T12:55:23Z</time>
      </trkpt>
      <trkpt lat="44.04892" lon="4.12163">
        <ele>179</ele>
        <time>2019-10-13T12:55:51Z</time>
      </trkpt>
      <trkpt lat="44.04914" lon="4.12178">
        <ele>180</ele>
        <time>2019-10-13T12:56:04Z</time>
      </trkpt>
      <trkpt lat="44.04926" lon="4.12183">
        <ele>180</ele>
        <time>2019-10-13T12:56:09Z</time>
      </trkpt>
      <trkpt lat="44.04939" lon="4.12188">
        <ele>180</ele>
        <time>2019-10-13T12:56:15Z</time>
      </trkpt>
      <trkpt lat="44.04954" lon="4.12192">
        <ele>180</ele>
        <time>2019-10-13T12:56:22Z</time>
      </trkpt>
      <trkpt lat="44.04974" lon="4.12193">
        <ele>180</ele>
        <time>2019-10-13T12:56:30Z</time>
      </trkpt>
      <trkpt lat="44.04986" lon="4.12195">
        <ele>180</ele>
        <time>2019-10-13T12:56:35Z</time>
      </trkpt>
      <trkpt lat="44.04995" lon="4.12195">
        <ele>180</ele>
        <time>2019-10-13T12:56:40Z</time>
      </trkpt>
      <trkpt lat="44.05007" lon="4.12197">
        <ele>181</ele>
        <time>2019-10-13T12:56:46Z</time>
      </trkpt>
      <trkpt lat="44.05013" lon="4.12198">
        <ele>181</ele>
        <time>2019-10-13T12:56:48Z</time>
      </trkpt>
      <trkpt lat="44.05024" lon="4.12205">
        <ele>181</ele>
        <time>2019-10-13T12:56:54Z</time>
      </trkpt>
      <trkpt lat="44.0504" lon="4.12219">
        <ele>182</ele>
        <time>2019-10-13T12:57:03Z</time>
      </trkpt>
      <trkpt lat="44.05052" lon="4.12223">
        <ele>182</ele>
        <time>2019-10-13T12:57:10Z</time>
      </trkpt>
      <trkpt lat="44.05054" lon="4.12221">
        <ele>182</ele>
        <time>2019-10-13T12:57:11Z</time>
      </trkpt>
      <trkpt lat="44.05063" lon="4.12215">
        <ele>183</ele>
        <time>2019-10-13T12:57:17Z</time>
      </trkpt>
      <trkpt lat="44.05074" lon="4.12214">
        <ele>183</ele>
        <time>2019-10-13T12:57:23Z</time>
      </trkpt>
      <trkpt lat="44.05087" lon="4.12214">
        <ele>184</ele>
        <time>2019-10-13T12:57:30Z</time>
      </trkpt>
      <trkpt lat="44.05103" lon="4.12215">
        <ele>184</ele>
        <time>2019-10-13T12:57:36Z</time>
      </trkpt>
      <trkpt lat="44.0512" lon="4.1221">
        <ele>184</ele>
        <time>2019-10-13T12:57:43Z</time>
      </trkpt>
      <trkpt lat="44.05132" lon="4.12208">
        <ele>184</ele>
        <time>2019-10-13T12:57:50Z</time>
      </trkpt>
      <trkpt lat="44.05145" lon="4.12206">
        <ele>184</ele>
        <time>2019-10-13T12:57:56Z</time>
      </trkpt>
      <trkpt lat="44.05157" lon="4.12202">
        <ele>184</ele>
        <time>2019-10-13T12:58:01Z</time>
      </trkpt>
      <trkpt lat="44.05168" lon="4.122">
        <ele>184</ele>
        <time>2019-10-13T12:58:05Z</time>
      </trkpt>
      <trkpt lat="44.0518" lon="4.12196">
        <ele>184</ele>
        <time>2019-10-13T12:58:11Z</time>
      </trkpt>
      <trkpt lat="44.05192" lon="4.12196">
        <ele>184</ele>
        <time>2019-10-13T12:58:16Z</time>
      </trkpt>
      <trkpt lat="44.05203" lon="4.12192">
        <ele>184</ele>
        <time>2019-10-13T12:58:20Z</time>
      </trkpt>
      <trkpt lat="44.05218" lon="4.12192">
        <ele>184</ele>
        <time>2019-10-13T12:58:24Z</time>
      </trkpt>
      <trkpt lat="44.05221" lon="4.12191">
        <ele>184</ele>
        <time>2019-10-13T12:58:25Z</time>
      </trkpt>
      <trkpt lat="44.05234" lon="4.12188">
        <ele>184</ele>
        <time>2019-10-13T12:58:29Z</time>
      </trkpt>
      <trkpt lat="44.0524" lon="4.12187">
        <ele>184</ele>
        <time>2019-10-13T12:58:31Z</time>
      </trkpt>
      <trkpt lat="44.05257" lon="4.12181">
        <ele>183</ele>
        <time>2019-10-13T12:58:37Z</time>
      </trkpt>
      <trkpt lat="44.0527" lon="4.1218">
        <ele>182</ele>
        <time>2019-10-13T12:58:42Z</time>
      </trkpt>
      <trkpt lat="44.05283" lon="4.12175">
        <ele>181</ele>
        <time>2019-10-13T12:58:47Z</time>
      </trkpt>
      <trkpt lat="44.05284" lon="4.12173">
        <ele>181</ele>
        <time>2019-10-13T12:58:48Z</time>
      </trkpt>
      <trkpt lat="44.05293" lon="4.12173">
        <ele>180</ele>
        <time>2019-10-13T12:58:52Z</time>
      </trkpt>
      <trkpt lat="44.05294" lon="4.12172">
        <ele>179</ele>
        <time>2019-10-13T12:58:56Z</time>
      </trkpt>
      <trkpt lat="44.05305" lon="4.12177">
        <ele>176</ele>
        <time>2019-10-13T12:59:18Z</time>
      </trkpt>
      <trkpt lat="44.05316" lon="4.12183">
        <ele>176</ele>
        <time>2019-10-13T12:59:23Z</time>
      </trkpt>
      <trkpt lat="44.05324" lon="4.1219">
        <ele>176</ele>
        <time>2019-10-13T12:59:26Z</time>
      </trkpt>
      <trkpt lat="44.0534" lon="4.12186">
        <ele>175</ele>
        <time>2019-10-13T12:59:32Z</time>
      </trkpt>
      <trkpt lat="44.0534" lon="4.12186">
        <ele>175</ele>
        <time>2019-10-13T12:59:33Z</time>
      </trkpt>
      <trkpt lat="44.05349" lon="4.12184">
        <ele>177</ele>
        <time>2019-10-13T13:00:42Z</time>
      </trkpt>
      <trkpt lat="44.05352" lon="4.12193">
        <ele>177</ele>
        <time>2019-10-13T13:00:47Z</time>
      </trkpt>
      <trkpt lat="44.05352" lon="4.12197">
        <ele>177</ele>
        <time>2019-10-13T13:00:48Z</time>
      </trkpt>
      <trkpt lat="44.05352" lon="4.12221">
        <ele>177</ele>
        <time>2019-10-13T13:00:55Z</time>
      </trkpt>
      <trkpt lat="44.05351" lon="4.12248">
        <ele>177</ele>
        <time>2019-10-13T13:01:01Z</time>
      </trkpt>
      <trkpt lat="44.05344" lon="4.12279">
        <ele>176</ele>
        <time>2019-10-13T13:01:08Z</time>
      </trkpt>
      <trkpt lat="44.05341" lon="4.12292">
        <ele>175</ele>
        <time>2019-10-13T13:01:12Z</time>
      </trkpt>
      <trkpt lat="44.05346" lon="4.12295">
        <ele>175</ele>
        <time>2019-10-13T13:01:16Z</time>
      </trkpt>
      <trkpt lat="44.05348" lon="4.12286">
        <ele>174</ele>
        <time>2019-10-13T13:01:18Z</time>
      </trkpt>
      <trkpt lat="44.05354" lon="4.12262">
        <ele>174</ele>
        <time>2019-10-13T13:01:27Z</time>
      </trkpt>
      <trkpt lat="44.05357" lon="4.12234">
        <ele>172</ele>
        <time>2019-10-13T13:01:35Z</time>
      </trkpt>
      <trkpt lat="44.05356" lon="4.12207">
        <ele>172</ele>
        <time>2019-10-13T13:01:42Z</time>
      </trkpt>
      <trkpt lat="44.05357" lon="4.12178">
        <ele>171</ele>
        <time>2019-10-13T13:01:48Z</time>
      </trkpt>
      <trkpt lat="44.05362" lon="4.12149">
        <ele>171</ele>
        <time>2019-10-13T13:01:54Z</time>
      </trkpt>
      <trkpt lat="44.05368" lon="4.12125">
        <ele>171</ele>
        <time>2019-10-13T13:01:58Z</time>
      </trkpt>
      <trkpt lat="44.05374" lon="4.121">
        <ele>171</ele>
        <time>2019-10-13T13:02:01Z</time>
      </trkpt>
      <trkpt lat="44.05387" lon="4.12064">
        <ele>171</ele>
        <time>2019-10-13T13:02:04Z</time>
      </trkpt>
      <trkpt lat="44.05395" lon="4.12044">
        <ele>171</ele>
        <time>2019-10-13T13:02:07Z</time>
      </trkpt>
      <trkpt lat="44.05393" lon="4.12005">
        <ele>170</ele>
        <time>2019-10-13T13:02:11Z</time>
      </trkpt>
      <trkpt lat="44.05379" lon="4.11992">
        <ele>170</ele>
        <time>2019-10-13T13:02:13Z</time>
      </trkpt>
      <trkpt lat="44.05362" lon="4.11987">
        <ele>169</ele>
        <time>2019-10-13T13:02:15Z</time>
      </trkpt>
      <trkpt lat="44.05353" lon="4.11988">
        <ele>169</ele>
        <time>2019-10-13T13:02:16Z</time>
      </trkpt>
      <trkpt lat="44.05335" lon="4.11992">
        <ele>168</ele>
        <time>2019-10-13T13:02:18Z</time>
      </trkpt>
      <trkpt lat="44.05308" lon="4.12004">
        <ele>167</ele>
        <time>2019-10-13T13:02:21Z</time>
      </trkpt>
      <trkpt lat="44.0529" lon="4.12014">
        <ele>166</ele>
        <time>2019-10-13T13:02:23Z</time>
      </trkpt>
      <trkpt lat="44.05281" lon="4.12018">
        <ele>166</ele>
        <time>2019-10-13T13:02:24Z</time>
      </trkpt>
      <trkpt lat="44.0525" lon="4.12023">
        <ele>164</ele>
        <time>2019-10-13T13:02:27Z</time>
      </trkpt>
      <trkpt lat="44.0523" lon="4.12024">
        <ele>163</ele>
        <time>2019-10-13T13:02:29Z</time>
      </trkpt>
      <trkpt lat="44.05209" lon="4.12025">
        <ele>162</ele>
        <time>2019-10-13T13:02:31Z</time>
      </trkpt>
      <trkpt lat="44.05188" lon="4.12025">
        <ele>160</ele>
        <time>2019-10-13T13:02:33Z</time>
      </trkpt>
      <trkpt lat="44.05167" lon="4.12021">
        <ele>159</ele>
        <time>2019-10-13T13:02:35Z</time>
      </trkpt>
      <trkpt lat="44.05145" lon="4.12019">
        <ele>158</ele>
        <time>2019-10-13T13:02:37Z</time>
      </trkpt>
      <trkpt lat="44.05125" lon="4.12018">
        <ele>157</ele>
        <time>2019-10-13T13:02:39Z</time>
      </trkpt>
      <trkpt lat="44.05114" lon="4.12015">
        <ele>156</ele>
        <time>2019-10-13T13:02:40Z</time>
      </trkpt>
      <trkpt lat="44.05094" lon="4.12004">
        <ele>155</ele>
        <time>2019-10-13T13:02:42Z</time>
      </trkpt>
      <trkpt lat="44.05075" lon="4.11995">
        <ele>154</ele>
        <time>2019-10-13T13:02:44Z</time>
      </trkpt>
      <trkpt lat="44.05055" lon="4.11986">
        <ele>153</ele>
        <time>2019-10-13T13:02:46Z</time>
      </trkpt>
      <trkpt lat="44.05046" lon="4.11983">
        <ele>152</ele>
        <time>2019-10-13T13:02:47Z</time>
      </trkpt>
      <trkpt lat="44.05016" lon="4.11977">
        <ele>150</ele>
        <time>2019-10-13T13:02:50Z</time>
      </trkpt>
      <trkpt lat="44.04998" lon="4.11975">
        <ele>149</ele>
        <time>2019-10-13T13:02:52Z</time>
      </trkpt>
      <trkpt lat="44.04989" lon="4.11974">
        <ele>149</ele>
        <time>2019-10-13T13:02:53Z</time>
      </trkpt>
      <trkpt lat="44.0496" lon="4.11958">
        <ele>146</ele>
        <time>2019-10-13T13:02:57Z</time>
      </trkpt>
      <trkpt lat="44.04953" lon="4.11952">
        <ele>146</ele>
        <time>2019-10-13T13:02:58Z</time>
      </trkpt>
      <trkpt lat="44.04941" lon="4.11942">
        <ele>145</ele>
        <time>2019-10-13T13:03:00Z</time>
      </trkpt>
      <trkpt lat="44.04929" lon="4.11917">
        <ele>143</ele>
        <time>2019-10-13T13:03:03Z</time>
      </trkpt>
      <trkpt lat="44.04929" lon="4.11881">
        <ele>142</ele>
        <time>2019-10-13T13:03:06Z</time>
      </trkpt>
      <trkpt lat="44.04928" lon="4.11869">
        <ele>141</ele>
        <time>2019-10-13T13:03:07Z</time>
      </trkpt>
      <trkpt lat="44.04926" lon="4.11857">
        <ele>141</ele>
        <time>2019-10-13T13:03:08Z</time>
      </trkpt>
      <trkpt lat="44.04919" lon="4.11833">
        <ele>140</ele>
        <time>2019-10-13T13:03:10Z</time>
      </trkpt>
      <trkpt lat="44.04908" lon="4.11812">
        <ele>139</ele>
        <time>2019-10-13T13:03:12Z</time>
      </trkpt>
      <trkpt lat="44.04894" lon="4.11793">
        <ele>137</ele>
        <time>2019-10-13T13:03:14Z</time>
      </trkpt>
      <trkpt lat="44.04875" lon="4.11778">
        <ele>136</ele>
        <time>2019-10-13T13:03:16Z</time>
      </trkpt>
      <trkpt lat="44.04866" lon="4.11772">
        <ele>136</ele>
        <time>2019-10-13T13:03:17Z</time>
      </trkpt>
      <trkpt lat="44.04848" lon="4.11759">
        <ele>135</ele>
        <time>2019-10-13T13:03:19Z</time>
      </trkpt>
      <trkpt lat="44.04827" lon="4.11745">
        <ele>134</ele>
        <time>2019-10-13T13:03:21Z</time>
      </trkpt>
      <trkpt lat="44.04817" lon="4.1174">
        <ele>133</ele>
        <time>2019-10-13T13:03:22Z</time>
      </trkpt>
      <trkpt lat="44.04786" lon="4.11731">
        <ele>131</ele>
        <time>2019-10-13T13:03:25Z</time>
      </trkpt>
      <trkpt lat="44.04765" lon="4.11728">
        <ele>130</ele>
        <time>2019-10-13T13:03:27Z</time>
      </trkpt>
      <trkpt lat="44.04745" lon="4.11726">
        <ele>128</ele>
        <time>2019-10-13T13:03:29Z</time>
      </trkpt>
      <trkpt lat="44.04725" lon="4.11723">
        <ele>127</ele>
        <time>2019-10-13T13:03:31Z</time>
      </trkpt>
      <trkpt lat="44.04707" lon="4.1172">
        <ele>126</ele>
        <time>2019-10-13T13:03:33Z</time>
      </trkpt>
      <trkpt lat="44.04688" lon="4.11716">
        <ele>125</ele>
        <time>2019-10-13T13:03:35Z</time>
      </trkpt>
      <trkpt lat="44.04662" lon="4.11709">
        <ele>123</ele>
        <time>2019-10-13T13:03:38Z</time>
      </trkpt>
      <trkpt lat="44.04655" lon="4.11707">
        <ele>122</ele>
        <time>2019-10-13T13:03:39Z</time>
      </trkpt>
      <trkpt lat="44.04642" lon="4.1169">
        <ele>120</ele>
        <time>2019-10-13T13:03:43Z</time>
      </trkpt>
      <trkpt lat="44.04647" lon="4.11669">
        <ele>118</ele>
        <time>2019-10-13T13:03:46Z</time>
      </trkpt>
      <trkpt lat="44.04651" lon="4.11665">
        <ele>117</ele>
        <time>2019-10-13T13:03:47Z</time>
      </trkpt>
      <trkpt lat="44.04656" lon="4.1166">
        <ele>116</ele>
        <time>2019-10-13T13:03:49Z</time>
      </trkpt>
      <trkpt lat="44.04658" lon="4.11659">
        <ele>115</ele>
        <time>2019-10-13T13:03:52Z</time>
      </trkpt>
      <trkpt lat="44.04666" lon="4.11662">
        <ele>108</ele>
        <time>2019-10-13T13:04:08Z</time>
      </trkpt>
      <trkpt lat="44.04667" lon="4.11663">
        <ele>108</ele>
        <time>2019-10-13T13:04:09Z</time>
      </trkpt>
      <trkpt lat="44.04679" lon="4.11667">
        <ele>107</ele>
        <time>2019-10-13T13:04:16Z</time>
      </trkpt>
      <trkpt lat="44.04676" lon="4.11663">
        <ele>106</ele>
        <time>2019-10-13T13:04:22Z</time>
      </trkpt>
      <trkpt lat="44.04663" lon="4.11659">
        <ele>106</ele>
        <time>2019-10-13T13:04:28Z</time>
      </trkpt>
      <trkpt lat="44.04661" lon="4.1166">
        <ele>106</ele>
        <time>2019-10-13T13:04:29Z</time>
      </trkpt>
      <trkpt lat="44.04647" lon="4.11662">
        <ele>106</ele>
        <time>2019-10-13T13:04:35Z</time>
      </trkpt>
      <trkpt lat="44.04635" lon="4.11656">
        <ele>106</ele>
        <time>2019-10-13T13:04:40Z</time>
      </trkpt>
      <trkpt lat="44.04617" lon="4.11652">
        <ele>106</ele>
        <time>2019-10-13T13:04:47Z</time>
      </trkpt>
      <trkpt lat="44.04602" lon="4.1165">
        <ele>106</ele>
        <time>2019-10-13T13:04:53Z</time>
      </trkpt>
      <trkpt lat="44.04588" lon="4.11647">
        <ele>105</ele>
        <time>2019-10-13T13:04:59Z</time>
      </trkpt>
      <trkpt lat="44.04569" lon="4.11645">
        <ele>105</ele>
        <time>2019-10-13T13:05:05Z</time>
      </trkpt>
      <trkpt lat="44.04553" lon="4.1164">
        <ele>104</ele>
        <time>2019-10-13T13:05:12Z</time>
      </trkpt>
      <trkpt lat="44.04535" lon="4.11634">
        <ele>104</ele>
        <time>2019-10-13T13:05:18Z</time>
      </trkpt>
      <trkpt lat="44.04518" lon="4.11627">
        <ele>104</ele>
        <time>2019-10-13T13:05:24Z</time>
      </trkpt>
      <trkpt lat="44.04511" lon="4.11626">
        <ele>104</ele>
        <time>2019-10-13T13:05:28Z</time>
      </trkpt>
      <trkpt lat="44.04502" lon="4.11623">
        <ele>104</ele>
        <time>2019-10-13T13:05:34Z</time>
      </trkpt>
      <trkpt lat="44.04491" lon="4.11618">
        <ele>104</ele>
        <time>2019-10-13T13:05:41Z</time>
      </trkpt>
      <trkpt lat="44.0448" lon="4.11612">
        <ele>104</ele>
        <time>2019-10-13T13:05:47Z</time>
      </trkpt>
      <trkpt lat="44.04472" lon="4.11608">
        <ele>105</ele>
        <time>2019-10-13T13:05:51Z</time>
      </trkpt>
      <trkpt lat="44.04464" lon="4.11608">
        <ele>105</ele>
        <time>2019-10-13T13:05:57Z</time>
      </trkpt>
      <trkpt lat="44.04464" lon="4.11608">
        <ele>105</ele>
        <time>2019-10-13T13:05:58Z</time>
      </trkpt>
      <trkpt lat="44.04619" lon="4.11656">
        <ele>110</ele>
        <time>2019-10-13T13:08:45Z</time>
      </trkpt>
      <trkpt lat="44.04623" lon="4.11656">
        <ele>110</ele>
        <time>2019-10-13T13:08:48Z</time>
      </trkpt>
      <trkpt lat="44.04633" lon="4.11658">
        <ele>110</ele>
        <time>2019-10-13T13:08:53Z</time>
      </trkpt>
      <trkpt lat="44.04643" lon="4.11663">
        <ele>110</ele>
        <time>2019-10-13T13:08:59Z</time>
      </trkpt>
      <trkpt lat="44.04647" lon="4.11664">
        <ele>110</ele>
        <time>2019-10-13T13:09:01Z</time>
      </trkpt>
      <trkpt lat="44.04664" lon="4.1166">
        <ele>110</ele>
        <time>2019-10-13T13:09:10Z</time>
      </trkpt>
      <trkpt lat="44.04674" lon="4.11664">
        <ele>109</ele>
        <time>2019-10-13T13:09:16Z</time>
      </trkpt>
      <trkpt lat="44.04679" lon="4.11665">
        <ele>109</ele>
        <time>2019-10-13T13:09:22Z</time>
      </trkpt>
      <trkpt lat="44.04679" lon="4.11665">
        <ele>109</ele>
        <time>2019-10-13T13:09:24Z</time>
      </trkpt>
      <trkpt lat="44.04682" lon="4.11672">
        <ele>108</ele>
        <time>2019-10-13T13:12:15Z</time>
      </trkpt>
      <trkpt lat="44.04687" lon="4.11677">
        <ele>108</ele>
        <time>2019-10-13T13:12:23Z</time>
      </trkpt>
      <trkpt lat="44.04697" lon="4.11685">
        <ele>108</ele>
        <time>2019-10-13T13:12:29Z</time>
      </trkpt>
      <trkpt lat="44.04711" lon="4.11693">
        <ele>108</ele>
        <time>2019-10-13T13:12:36Z</time>
      </trkpt>
      <trkpt lat="44.04724" lon="4.11696">
        <ele>108</ele>
        <time>2019-10-13T13:12:43Z</time>
      </trkpt>
      <trkpt lat="44.04727" lon="4.11696">
        <ele>108</ele>
        <time>2019-10-13T13:12:45Z</time>
      </trkpt>
      <trkpt lat="44.04734" lon="4.11692">
        <ele>108</ele>
        <time>2019-10-13T13:12:49Z</time>
      </trkpt>
      <trkpt lat="44.04741" lon="4.11683">
        <ele>108</ele>
        <time>2019-10-13T13:12:53Z</time>
      </trkpt>
      <trkpt lat="44.04757" lon="4.1168">
        <ele>108</ele>
        <time>2019-10-13T13:12:59Z</time>
      </trkpt>
      <trkpt lat="44.04768" lon="4.11679">
        <ele>108</ele>
        <time>2019-10-13T13:13:03Z</time>
      </trkpt>
      <trkpt lat="44.04782" lon="4.1168">
        <ele>108</ele>
        <time>2019-10-13T13:13:09Z</time>
      </trkpt>
      <trkpt lat="44.04796" lon="4.11677">
        <ele>108</ele>
        <time>2019-10-13T13:13:14Z</time>
      </trkpt>
      <trkpt lat="44.04805" lon="4.11677">
        <ele>108</ele>
        <time>2019-10-13T13:13:18Z</time>
      </trkpt>
      <trkpt lat="44.04822" lon="4.11673">
        <ele>108</ele>
        <time>2019-10-13T13:13:24Z</time>
      </trkpt>
      <trkpt lat="44.04842" lon="4.11671">
        <ele>107</ele>
        <time>2019-10-13T13:13:30Z</time>
      </trkpt>
      <trkpt lat="44.04858" lon="4.11667">
        <ele>107</ele>
        <time>2019-10-13T13:13:35Z</time>
      </trkpt>
      <trkpt lat="44.04877" lon="4.11663">
        <ele>106</ele>
        <time>2019-10-13T13:13:41Z</time>
      </trkpt>
      <trkpt lat="44.04883" lon="4.11656">
        <ele>106</ele>
        <time>2019-10-13T13:13:43Z</time>
      </trkpt>
      <trkpt lat="44.04883" lon="4.11634">
        <ele>106</ele>
        <time>2019-10-13T13:13:47Z</time>
      </trkpt>
      <trkpt lat="44.04881" lon="4.11627">
        <ele>106</ele>
        <time>2019-10-13T13:13:48Z</time>
      </trkpt>
      <trkpt lat="44.0488" lon="4.11621">
        <ele>106</ele>
        <time>2019-10-13T13:13:49Z</time>
      </trkpt>
      <trkpt lat="44.04882" lon="4.11599">
        <ele>105</ele>
        <time>2019-10-13T13:13:53Z</time>
      </trkpt>
      <trkpt lat="44.04889" lon="4.1157">
        <ele>104</ele>
        <time>2019-10-13T13:14:01Z</time>
      </trkpt>
      <trkpt lat="44.04894" lon="4.11544">
        <ele>104</ele>
        <time>2019-10-13T13:14:07Z</time>
      </trkpt>
      <trkpt lat="44.049" lon="4.11518">
        <ele>104</ele>
        <time>2019-10-13T13:14:13Z</time>
      </trkpt>
      <trkpt lat="44.04904" lon="4.11494">
        <ele>104</ele>
        <time>2019-10-13T13:14:19Z</time>
      </trkpt>
      <trkpt lat="44.04909" lon="4.11466">
        <ele>104</ele>
        <time>2019-10-13T13:14:25Z</time>
      </trkpt>
      <trkpt lat="44.04912" lon="4.1144">
        <ele>104</ele>
        <time>2019-10-13T13:14:31Z</time>
      </trkpt>
      <trkpt lat="44.04912" lon="4.11419">
        <ele>104</ele>
        <time>2019-10-13T13:14:36Z</time>
      </trkpt>
      <trkpt lat="44.04909" lon="4.11393">
        <ele>104</ele>
        <time>2019-10-13T13:14:42Z</time>
      </trkpt>
      <trkpt lat="44.04905" lon="4.11367">
        <ele>104</ele>
        <time>2019-10-13T13:14:48Z</time>
      </trkpt>
      <trkpt lat="44.04904" lon="4.11344">
        <ele>104</ele>
        <time>2019-10-13T13:14:53Z</time>
      </trkpt>
      <trkpt lat="44.04902" lon="4.11318">
        <ele>104</ele>
        <time>2019-10-13T13:15:00Z</time>
      </trkpt>
      <trkpt lat="44.049" lon="4.11291">
        <ele>104</ele>
        <time>2019-10-13T13:15:06Z</time>
      </trkpt>
      <trkpt lat="44.04897" lon="4.11266">
        <ele>104</ele>
        <time>2019-10-13T13:15:11Z</time>
      </trkpt>
      <trkpt lat="44.04895" lon="4.11252">
        <ele>104</ele>
        <time>2019-10-13T13:15:15Z</time>
      </trkpt>
      <trkpt lat="44.04894" lon="4.1125">
        <ele>104</ele>
        <time>2019-10-13T13:15:23Z</time>
      </trkpt>
      <trkpt lat="44.04893" lon="4.11249">
        <ele>104</ele>
        <time>2019-10-13T13:15:34Z</time>
      </trkpt>
      <trkpt lat="44.04894" lon="4.11256">
        <ele>104</ele>
        <time>2019-10-13T13:15:39Z</time>
      </trkpt>
      <trkpt lat="44.04897" lon="4.11275">
        <ele>104</ele>
        <time>2019-10-13T13:15:46Z</time>
      </trkpt>
      <trkpt lat="44.04898" lon="4.11283">
        <ele>104</ele>
        <time>2019-10-13T13:15:49Z</time>
      </trkpt>
      <trkpt lat="44.04907" lon="4.1129">
        <ele>104</ele>
        <time>2019-10-13T13:15:53Z</time>
      </trkpt>
      <trkpt lat="44.04922" lon="4.11297">
        <ele>104</ele>
        <time>2019-10-13T13:15:59Z</time>
      </trkpt>
      <trkpt lat="44.04939" lon="4.11309">
        <ele>104</ele>
        <time>2019-10-13T13:16:06Z</time>
      </trkpt>
      <trkpt lat="44.04957" lon="4.11316">
        <ele>104</ele>
        <time>2019-10-13T13:16:12Z</time>
      </trkpt>
      <trkpt lat="44.04974" lon="4.1132">
        <ele>104</ele>
        <time>2019-10-13T13:16:18Z</time>
      </trkpt>
      <trkpt lat="44.04985" lon="4.11331">
        <ele>104</ele>
        <time>2019-10-13T13:16:23Z</time>
      </trkpt>
      <trkpt lat="44.05002" lon="4.11343">
        <ele>104</ele>
        <time>2019-10-13T13:16:30Z</time>
      </trkpt>
      <trkpt lat="44.0502" lon="4.1135">
        <ele>104</ele>
        <time>2019-10-13T13:16:36Z</time>
      </trkpt>
      <trkpt lat="44.0504" lon="4.11357">
        <ele>104</ele>
        <time>2019-10-13T13:16:44Z</time>
      </trkpt>
      <trkpt lat="44.05058" lon="4.11363">
        <ele>104</ele>
        <time>2019-10-13T13:16:50Z</time>
      </trkpt>
      <trkpt lat="44.05077" lon="4.11368">
        <ele>104</ele>
        <time>2019-10-13T13:16:56Z</time>
      </trkpt>
      <trkpt lat="44.05098" lon="4.11375">
        <ele>104</ele>
        <time>2019-10-13T13:17:03Z</time>
      </trkpt>
      <trkpt lat="44.05116" lon="4.11382">
        <ele>104</ele>
        <time>2019-10-13T13:17:09Z</time>
      </trkpt>
      <trkpt lat="44.05135" lon="4.11391">
        <ele>104</ele>
        <time>2019-10-13T13:17:15Z</time>
      </trkpt>
      <trkpt lat="44.05154" lon="4.11396">
        <ele>104</ele>
        <time>2019-10-13T13:17:21Z</time>
      </trkpt>
      <trkpt lat="44.05173" lon="4.11401">
        <ele>104</ele>
        <time>2019-10-13T13:17:27Z</time>
      </trkpt>
      <trkpt lat="44.05193" lon="4.11401">
        <ele>104</ele>
        <time>2019-10-13T13:17:33Z</time>
      </trkpt>
      <trkpt lat="44.05212" lon="4.11403">
        <ele>104</ele>
        <time>2019-10-13T13:17:39Z</time>
      </trkpt>
      <trkpt lat="44.05232" lon="4.11403">
        <ele>104</ele>
        <time>2019-10-13T13:17:45Z</time>
      </trkpt>
      <trkpt lat="44.05246" lon="4.11393">
        <ele>104</ele>
        <time>2019-10-13T13:17:50Z</time>
      </trkpt>
      <trkpt lat="44.05257" lon="4.1137">
        <ele>104</ele>
        <time>2019-10-13T13:17:56Z</time>
      </trkpt>
      <trkpt lat="44.0526" lon="4.11336">
        <ele>104</ele>
        <time>2019-10-13T13:18:03Z</time>
      </trkpt>
      <trkpt lat="44.05261" lon="4.11323">
        <ele>104</ele>
        <time>2019-10-13T13:18:07Z</time>
      </trkpt>
      <trkpt lat="44.05263" lon="4.11318">
        <ele>104</ele>
        <time>2019-10-13T13:18:09Z</time>
      </trkpt>
      <trkpt lat="44.05279" lon="4.11325">
        <ele>104</ele>
        <time>2019-10-13T13:18:15Z</time>
      </trkpt>
      <trkpt lat="44.05296" lon="4.11335">
        <ele>104</ele>
        <time>2019-10-13T13:18:22Z</time>
      </trkpt>
      <trkpt lat="44.05311" lon="4.11345">
        <ele>104</ele>
        <time>2019-10-13T13:18:28Z</time>
      </trkpt>
      <trkpt lat="44.05326" lon="4.11348">
        <ele>104</ele>
        <time>2019-10-13T13:18:33Z</time>
      </trkpt>
      <trkpt lat="44.05342" lon="4.1135">
        <ele>104</ele>
        <time>2019-10-13T13:18:39Z</time>
      </trkpt>
      <trkpt lat="44.05358" lon="4.11356">
        <ele>104</ele>
        <time>2019-10-13T13:18:45Z</time>
      </trkpt>
      <trkpt lat="44.05377" lon="4.11361">
        <ele>104</ele>
        <time>2019-10-13T13:18:51Z</time>
      </trkpt>
      <trkpt lat="44.05395" lon="4.11362">
        <ele>104</ele>
        <time>2019-10-13T13:18:57Z</time>
      </trkpt>
      <trkpt lat="44.05412" lon="4.11364">
        <ele>104</ele>
        <time>2019-10-13T13:19:03Z</time>
      </trkpt>
      <trkpt lat="44.05425" lon="4.11365">
        <ele>104</ele>
        <time>2019-10-13T13:19:08Z</time>
      </trkpt>
      <trkpt lat="44.05442" lon="4.11364">
        <ele>104</ele>
        <time>2019-10-13T13:19:14Z</time>
      </trkpt>
      <trkpt lat="44.05461" lon="4.11365">
        <ele>104</ele>
        <time>2019-10-13T13:19:21Z</time>
      </trkpt>
      <trkpt lat="44.05474" lon="4.11364">
        <ele>104</ele>
        <time>2019-10-13T13:19:26Z</time>
      </trkpt>
      <trkpt lat="44.05494" lon="4.11363">
        <ele>104</ele>
        <time>2019-10-13T13:19:33Z</time>
      </trkpt>
      <trkpt lat="44.05512" lon="4.11362">
        <ele>104</ele>
        <time>2019-10-13T13:19:39Z</time>
      </trkpt>
      <trkpt lat="44.05531" lon="4.11362">
        <ele>104</ele>
        <time>2019-10-13T13:19:45Z</time>
      </trkpt>
      <trkpt lat="44.0555" lon="4.11367">
        <ele>104</ele>
        <time>2019-10-13T13:19:51Z</time>
      </trkpt>
      <trkpt lat="44.0557" lon="4.11373">
        <ele>104</ele>
        <time>2019-10-13T13:19:57Z</time>
      </trkpt>
      <trkpt lat="44.05592" lon="4.11379">
        <ele>104</ele>
        <time>2019-10-13T13:20:04Z</time>
      </trkpt>
      <trkpt lat="44.0561" lon="4.11387">
        <ele>104</ele>
        <time>2019-10-13T13:20:10Z</time>
      </trkpt>
      <trkpt lat="44.05626" lon="4.11395">
        <ele>104</ele>
        <time>2019-10-13T13:20:16Z</time>
      </trkpt>
      <trkpt lat="44.05644" lon="4.11402">
        <ele>104</ele>
        <time>2019-10-13T13:20:22Z</time>
      </trkpt>
      <trkpt lat="44.05662" lon="4.11409">
        <ele>104</ele>
        <time>2019-10-13T13:20:29Z</time>
      </trkpt>
      <trkpt lat="44.05681" lon="4.11415">
        <ele>104</ele>
        <time>2019-10-13T13:20:37Z</time>
      </trkpt>
      <trkpt lat="44.0569" lon="4.11418">
        <ele>104</ele>
        <time>2019-10-13T13:20:42Z</time>
      </trkpt>
      <trkpt lat="44.05703" lon="4.11421">
        <ele>104</ele>
        <time>2019-10-13T13:20:48Z</time>
      </trkpt>
      <trkpt lat="44.05715" lon="4.11421">
        <ele>104</ele>
        <time>2019-10-13T13:20:53Z</time>
      </trkpt>
      <trkpt lat="44.05736" lon="4.11422">
        <ele>104</ele>
        <time>2019-10-13T13:21:01Z</time>
      </trkpt>
      <trkpt lat="44.05739" lon="4.11423">
        <ele>104</ele>
        <time>2019-10-13T13:21:02Z</time>
      </trkpt>
      <trkpt lat="44.05756" lon="4.11433">
        <ele>104</ele>
        <time>2019-10-13T13:21:09Z</time>
      </trkpt>
      <trkpt lat="44.0577" lon="4.11437">
        <ele>104</ele>
        <time>2019-10-13T13:21:14Z</time>
      </trkpt>
      <trkpt lat="44.05781" lon="4.11436">
        <ele>104</ele>
        <time>2019-10-13T13:21:19Z</time>
      </trkpt>
      <trkpt lat="44.0579" lon="4.11437">
        <ele>104</ele>
        <time>2019-10-13T13:21:24Z</time>
      </trkpt>
      <trkpt lat="44.05798" lon="4.11429">
        <ele>104</ele>
        <time>2019-10-13T13:21:30Z</time>
      </trkpt>
      <trkpt lat="44.05796" lon="4.11425">
        <ele>104</ele>
        <time>2019-10-13T13:21:35Z</time>
      </trkpt>
      <trkpt lat="44.05794" lon="4.11433">
        <ele>104</ele>
        <time>2019-10-13T13:21:39Z</time>
      </trkpt>
      <trkpt lat="44.05792" lon="4.11441">
        <ele>104</ele>
        <time>2019-10-13T13:21:44Z</time>
      </trkpt>
      <trkpt lat="44.05792" lon="4.11441">
        <ele>104</ele>
        <time>2019-10-13T13:21:46Z</time>
      </trkpt>
      <trkpt lat="44.07144" lon="4.11254">
        <ele>106</ele>
        <time>2019-10-13T13:29:51Z</time>
      </trkpt>
      <trkpt lat="44.0715" lon="4.11251">
        <ele>106</ele>
        <time>2019-10-13T13:29:54Z</time>
      </trkpt>
      <trkpt lat="44.07152" lon="4.1125">
        <ele>106</ele>
        <time>2019-10-13T13:29:55Z</time>
      </trkpt>
      <trkpt lat="44.07169" lon="4.11245">
        <ele>106</ele>
        <time>2019-10-13T13:30:01Z</time>
      </trkpt>
      <trkpt lat="44.07188" lon="4.11237">
        <ele>106</ele>
        <time>2019-10-13T13:30:07Z</time>
      </trkpt>
      <trkpt lat="44.07202" lon="4.11226">
        <ele>106</ele>
        <time>2019-10-13T13:30:13Z</time>
      </trkpt>
      <trkpt lat="44.07221" lon="4.11218">
        <ele>106</ele>
        <time>2019-10-13T13:30:19Z</time>
      </trkpt>
      <trkpt lat="44.07237" lon="4.11217">
        <ele>106</ele>
        <time>2019-10-13T13:30:24Z</time>
      </trkpt>
      <trkpt lat="44.07257" lon="4.11217">
        <ele>106</ele>
        <time>2019-10-13T13:30:30Z</time>
      </trkpt>
      <trkpt lat="44.07279" lon="4.11217">
        <ele>106</ele>
        <time>2019-10-13T13:30:36Z</time>
      </trkpt>
      <trkpt lat="44.07297" lon="4.11215">
        <ele>106</ele>
        <time>2019-10-13T13:30:41Z</time>
      </trkpt>
      <trkpt lat="44.07316" lon="4.11213">
        <ele>106</ele>
        <time>2019-10-13T13:30:46Z</time>
      </trkpt>
      <trkpt lat="44.07336" lon="4.11214">
        <ele>106</ele>
        <time>2019-10-13T13:30:51Z</time>
      </trkpt>
      <trkpt lat="44.07354" lon="4.11216">
        <ele>106</ele>
        <time>2019-10-13T13:30:56Z</time>
      </trkpt>
      <trkpt lat="44.07374" lon="4.11218">
        <ele>106</ele>
        <time>2019-10-13T13:31:01Z</time>
      </trkpt>
      <trkpt lat="44.07392" lon="4.11213">
        <ele>106</ele>
        <time>2019-10-13T13:31:06Z</time>
      </trkpt>
      <trkpt lat="44.07412" lon="4.11211">
        <ele>106</ele>
        <time>2019-10-13T13:31:11Z</time>
      </trkpt>
      <trkpt lat="44.07426" lon="4.11204">
        <ele>106</ele>
        <time>2019-10-13T13:31:15Z</time>
      </trkpt>
      <trkpt lat="44.07444" lon="4.112">
        <ele>107</ele>
        <time>2019-10-13T13:31:20Z</time>
      </trkpt>
      <trkpt lat="44.07464" lon="4.11199">
        <ele>107</ele>
        <time>2019-10-13T13:31:25Z</time>
      </trkpt>
      <trkpt lat="44.07484" lon="4.11195">
        <ele>108</ele>
        <time>2019-10-13T13:31:30Z</time>
      </trkpt>
      <trkpt lat="44.07503" lon="4.11185">
        <ele>108</ele>
        <time>2019-10-13T13:31:35Z</time>
      </trkpt>
      <trkpt lat="44.07522" lon="4.11174">
        <ele>108</ele>
        <time>2019-10-13T13:31:40Z</time>
      </trkpt>
      <trkpt lat="44.0754" lon="4.1116">
        <ele>108</ele>
        <time>2019-10-13T13:31:45Z</time>
      </trkpt>
      <trkpt lat="44.07554" lon="4.11154">
        <ele>108</ele>
        <time>2019-10-13T13:31:49Z</time>
      </trkpt>
      <trkpt lat="44.07578" lon="4.11141">
        <ele>108</ele>
        <time>2019-10-13T13:31:55Z</time>
      </trkpt>
      <trkpt lat="44.07582" lon="4.11139">
        <ele>108</ele>
        <time>2019-10-13T13:31:56Z</time>
      </trkpt>
      <trkpt lat="44.07604" lon="4.11133">
        <ele>108</ele>
        <time>2019-10-13T13:32:02Z</time>
      </trkpt>
      <trkpt lat="44.07624" lon="4.11131">
        <ele>108</ele>
        <time>2019-10-13T13:32:08Z</time>
      </trkpt>
      <trkpt lat="44.07641" lon="4.11126">
        <ele>108</ele>
        <time>2019-10-13T13:32:13Z</time>
      </trkpt>
      <trkpt lat="44.0766" lon="4.11122">
        <ele>108</ele>
        <time>2019-10-13T13:32:18Z</time>
      </trkpt>
      <trkpt lat="44.07678" lon="4.11116">
        <ele>108</ele>
        <time>2019-10-13T13:32:23Z</time>
      </trkpt>
      <trkpt lat="44.07695" lon="4.11105">
        <ele>108</ele>
        <time>2019-10-13T13:32:28Z</time>
      </trkpt>
      <trkpt lat="44.07713" lon="4.11095">
        <ele>109</ele>
        <time>2019-10-13T13:32:34Z</time>
      </trkpt>
      <trkpt lat="44.07716" lon="4.11094">
        <ele>109</ele>
        <time>2019-10-13T13:32:35Z</time>
      </trkpt>
      <trkpt lat="44.07728" lon="4.11102">
        <ele>109</ele>
        <time>2019-10-13T13:32:40Z</time>
      </trkpt>
      <trkpt lat="44.07742" lon="4.11113">
        <ele>110</ele>
        <time>2019-10-13T13:32:46Z</time>
      </trkpt>
      <trkpt lat="44.07754" lon="4.1113">
        <ele>110</ele>
        <time>2019-10-13T13:32:52Z</time>
      </trkpt>
      <trkpt lat="44.07758" lon="4.11148">
        <ele>110</ele>
        <time>2019-10-13T13:32:57Z</time>
      </trkpt>
      <trkpt lat="44.07758" lon="4.11165">
        <ele>110</ele>
        <time>2019-10-13T13:33:02Z</time>
      </trkpt>
      <trkpt lat="44.07759" lon="4.11168">
        <ele>110</ele>
        <time>2019-10-13T13:33:03Z</time>
      </trkpt>
      <trkpt lat="44.0776" lon="4.1117">
        <ele>110</ele>
        <time>2019-10-13T13:33:05Z</time>
      </trkpt>
      <trkpt lat="44.07744" lon="4.11057">
        <ele>108</ele>
        <time>2019-10-13T13:36:27Z</time>
      </trkpt>
      <trkpt lat="44.07745" lon="4.11058">
        <ele>108</ele>
        <time>2019-10-13T13:36:31Z</time>
      </trkpt>
      <trkpt lat="44.07755" lon="4.11065">
        <ele>108</ele>
        <time>2019-10-13T13:36:37Z</time>
      </trkpt>
      <trkpt lat="44.07769" lon="4.11079">
        <ele>108</ele>
        <time>2019-10-13T13:36:44Z</time>
      </trkpt>
      <trkpt lat="44.0778" lon="4.11099">
        <ele>108</ele>
        <time>2019-10-13T13:36:51Z</time>
      </trkpt>
      <trkpt lat="44.07791" lon="4.11111">
        <ele>108</ele>
        <time>2019-10-13T13:36:57Z</time>
      </trkpt>
      <trkpt lat="44.07805" lon="4.11118">
        <ele>108</ele>
        <time>2019-10-13T13:37:03Z</time>
      </trkpt>
      <trkpt lat="44.07822" lon="4.11124">
        <ele>108</ele>
        <time>2019-10-13T13:37:10Z</time>
      </trkpt>
      <trkpt lat="44.07838" lon="4.11131">
        <ele>108</ele>
        <time>2019-10-13T13:37:16Z</time>
      </trkpt>
      <trkpt lat="44.07857" lon="4.11138">
        <ele>108</ele>
        <time>2019-10-13T13:37:23Z</time>
      </trkpt>
      <trkpt lat="44.07877" lon="4.11144">
        <ele>108</ele>
        <time>2019-10-13T13:37:29Z</time>
      </trkpt>
      <trkpt lat="44.07896" lon="4.11149">
        <ele>108</ele>
        <time>2019-10-13T13:37:35Z</time>
      </trkpt>
      <trkpt lat="44.07914" lon="4.11155">
        <ele>108</ele>
        <time>2019-10-13T13:37:41Z</time>
      </trkpt>
      <trkpt lat="44.07933" lon="4.11161">
        <ele>108</ele>
        <time>2019-10-13T13:37:47Z</time>
      </trkpt>
      <trkpt lat="44.07953" lon="4.11161">
        <ele>108</ele>
        <time>2019-10-13T13:37:53Z</time>
      </trkpt>
      <trkpt lat="44.07974" lon="4.11155">
        <ele>108</ele>
        <time>2019-10-13T13:38:00Z</time>
      </trkpt>
      <trkpt lat="44.07995" lon="4.1115">
        <ele>108</ele>
        <time>2019-10-13T13:38:06Z</time>
      </trkpt>
      <trkpt lat="44.08015" lon="4.11144">
        <ele>108</ele>
        <time>2019-10-13T13:38:11Z</time>
      </trkpt>
      <trkpt lat="44.08036" lon="4.11137">
        <ele>108</ele>
        <time>2019-10-13T13:38:16Z</time>
      </trkpt>
      <trkpt lat="44.08045" lon="4.11134">
        <ele>108</ele>
        <time>2019-10-13T13:38:18Z</time>
      </trkpt>
      <trkpt lat="44.08066" lon="4.11124">
        <ele>108</ele>
        <time>2019-10-13T13:38:23Z</time>
      </trkpt>
      <trkpt lat="44.08084" lon="4.11116">
        <ele>108</ele>
        <time>2019-10-13T13:38:27Z</time>
      </trkpt>
      <trkpt lat="44.08102" lon="4.11107">
        <ele>109</ele>
        <time>2019-10-13T13:38:31Z</time>
      </trkpt>
      <trkpt lat="44.0812" lon="4.11098">
        <ele>109</ele>
        <time>2019-10-13T13:38:35Z</time>
      </trkpt>
      <trkpt lat="44.08138" lon="4.11088">
        <ele>109</ele>
        <time>2019-10-13T13:38:39Z</time>
      </trkpt>
      <trkpt lat="44.08155" lon="4.11078">
        <ele>110</ele>
        <time>2019-10-13T13:38:43Z</time>
      </trkpt>
      <trkpt lat="44.08176" lon="4.11067">
        <ele>110</ele>
        <time>2019-10-13T13:38:48Z</time>
      </trkpt>
      <trkpt lat="44.08193" lon="4.11057">
        <ele>110</ele>
        <time>2019-10-13T13:38:52Z</time>
      </trkpt>
      <trkpt lat="44.08208" lon="4.11048">
        <ele>110</ele>
        <time>2019-10-13T13:38:56Z</time>
      </trkpt>
      <trkpt lat="44.08228" lon="4.11036">
        <ele>110</ele>
        <time>2019-10-13T13:39:01Z</time>
      </trkpt>
      <trkpt lat="44.08245" lon="4.11026">
        <ele>110</ele>
        <time>2019-10-13T13:39:05Z</time>
      </trkpt>
      <trkpt lat="44.08258" lon="4.11019">
        <ele>110</ele>
        <time>2019-10-13T13:39:08Z</time>
      </trkpt>
      <trkpt lat="44.08281" lon="4.11007">
        <ele>110</ele>
        <time>2019-10-13T13:39:13Z</time>
      </trkpt>
      <trkpt lat="44.08298" lon="4.10997">
        <ele>110</ele>
        <time>2019-10-13T13:39:17Z</time>
      </trkpt>
      <trkpt lat="44.08315" lon="4.10987">
        <ele>110</ele>
        <time>2019-10-13T13:39:21Z</time>
      </trkpt>
      <trkpt lat="44.08336" lon="4.10975">
        <ele>110</ele>
        <time>2019-10-13T13:39:26Z</time>
      </trkpt>
      <trkpt lat="44.08357" lon="4.10962">
        <ele>110</ele>
        <time>2019-10-13T13:39:31Z</time>
      </trkpt>
      <trkpt lat="44.08361" lon="4.10959">
        <ele>110</ele>
        <time>2019-10-13T13:39:32Z</time>
      </trkpt>
      <trkpt lat="44.08371" lon="4.1095">
        <ele>110</ele>
        <time>2019-10-13T13:39:35Z</time>
      </trkpt>
      <trkpt lat="44.08385" lon="4.10936">
        <ele>111</ele>
        <time>2019-10-13T13:39:41Z</time>
      </trkpt>
      <trkpt lat="44.08389" lon="4.10934">
        <ele>111</ele>
        <time>2019-10-13T13:39:42Z</time>
      </trkpt>
      <trkpt lat="44.08412" lon="4.10924">
        <ele>112</ele>
        <time>2019-10-13T13:39:48Z</time>
      </trkpt>
      <trkpt lat="44.08432" lon="4.10918">
        <ele>112</ele>
        <time>2019-10-13T13:39:53Z</time>
      </trkpt>
      <trkpt lat="44.08452" lon="4.10911">
        <ele>112</ele>
        <time>2019-10-13T13:39:58Z</time>
      </trkpt>
      <trkpt lat="44.08471" lon="4.10903">
        <ele>112</ele>
        <time>2019-10-13T13:40:03Z</time>
      </trkpt>
      <trkpt lat="44.08491" lon="4.10892">
        <ele>112</ele>
        <time>2019-10-13T13:40:09Z</time>
      </trkpt>
      <trkpt lat="44.08507" lon="4.10877">
        <ele>112</ele>
        <time>2019-10-13T13:40:14Z</time>
      </trkpt>
      <trkpt lat="44.08521" lon="4.10863">
        <ele>112</ele>
        <time>2019-10-13T13:40:18Z</time>
      </trkpt>
      <trkpt lat="44.08539" lon="4.10844">
        <ele>112</ele>
        <time>2019-10-13T13:40:23Z</time>
      </trkpt>
      <trkpt lat="44.08555" lon="4.10831">
        <ele>112</ele>
        <time>2019-10-13T13:40:27Z</time>
      </trkpt>
      <trkpt lat="44.08571" lon="4.10821">
        <ele>112</ele>
        <time>2019-10-13T13:40:31Z</time>
      </trkpt>
      <trkpt lat="44.08575" lon="4.10818">
        <ele>112</ele>
        <time>2019-10-13T13:40:32Z</time>
      </trkpt>
      <trkpt lat="44.08595" lon="4.10808">
        <ele>112</ele>
        <time>2019-10-13T13:40:37Z</time>
      </trkpt>
      <trkpt lat="44.08609" lon="4.108">
        <ele>112</ele>
        <time>2019-10-13T13:40:41Z</time>
      </trkpt>
      <trkpt lat="44.08633" lon="4.10786">
        <ele>112</ele>
        <time>2019-10-13T13:40:47Z</time>
      </trkpt>
      <trkpt lat="44.08641" lon="4.10781">
        <ele>112</ele>
        <time>2019-10-13T13:40:49Z</time>
      </trkpt>
      <trkpt lat="44.08649" lon="4.10775">
        <ele>112</ele>
        <time>2019-10-13T13:40:51Z</time>
      </trkpt>
      <trkpt lat="44.08662" lon="4.10768">
        <ele>112</ele>
        <time>2019-10-13T13:40:54Z</time>
      </trkpt>
      <trkpt lat="44.0867" lon="4.10763">
        <ele>112</ele>
        <time>2019-10-13T13:40:56Z</time>
      </trkpt>
      <trkpt lat="44.08684" lon="4.10738">
        <ele>112</ele>
        <time>2019-10-13T13:41:01Z</time>
      </trkpt>
      <trkpt lat="44.08687" lon="4.10733">
        <ele>112</ele>
        <time>2019-10-13T13:41:02Z</time>
      </trkpt>
      <trkpt lat="44.08699" lon="4.10709">
        <ele>112</ele>
        <time>2019-10-13T13:41:07Z</time>
      </trkpt>
      <trkpt lat="44.08719" lon="4.10684">
        <ele>112</ele>
        <time>2019-10-13T13:41:13Z</time>
      </trkpt>
      <trkpt lat="44.08736" lon="4.10666">
        <ele>112</ele>
        <time>2019-10-13T13:41:18Z</time>
      </trkpt>
      <trkpt lat="44.08743" lon="4.10658">
        <ele>112</ele>
        <time>2019-10-13T13:41:20Z</time>
      </trkpt>
      <trkpt lat="44.08762" lon="4.10638">
        <ele>112</ele>
        <time>2019-10-13T13:41:25Z</time>
      </trkpt>
      <trkpt lat="44.08776" lon="4.10622">
        <ele>112</ele>
        <time>2019-10-13T13:41:29Z</time>
      </trkpt>
      <trkpt lat="44.08794" lon="4.10603">
        <ele>112</ele>
        <time>2019-10-13T13:41:34Z</time>
      </trkpt>
      <trkpt lat="44.08809" lon="4.10588">
        <ele>112</ele>
        <time>2019-10-13T13:41:38Z</time>
      </trkpt>
      <trkpt lat="44.08823" lon="4.10573">
        <ele>112</ele>
        <time>2019-10-13T13:41:42Z</time>
      </trkpt>
      <trkpt lat="44.08838" lon="4.10557">
        <ele>112</ele>
        <time>2019-10-13T13:41:46Z</time>
      </trkpt>
      <trkpt lat="44.08855" lon="4.10537">
        <ele>112</ele>
        <time>2019-10-13T13:41:51Z</time>
      </trkpt>
      <trkpt lat="44.08868" lon="4.1052">
        <ele>112</ele>
        <time>2019-10-13T13:41:55Z</time>
      </trkpt>
      <trkpt lat="44.08883" lon="4.10499">
        <ele>112</ele>
        <time>2019-10-13T13:42:00Z</time>
      </trkpt>
      <trkpt lat="44.08886" lon="4.10495">
        <ele>112</ele>
        <time>2019-10-13T13:42:01Z</time>
      </trkpt>
      <trkpt lat="44.08903" lon="4.10473">
        <ele>112</ele>
        <time>2019-10-13T13:42:08Z</time>
      </trkpt>
      <trkpt lat="44.08919" lon="4.10458">
        <ele>112</ele>
        <time>2019-10-13T13:42:13Z</time>
      </trkpt>
      <trkpt lat="44.08937" lon="4.10444">
        <ele>112</ele>
        <time>2019-10-13T13:42:18Z</time>
      </trkpt>
      <trkpt lat="44.08949" lon="4.10439">
        <ele>112</ele>
        <time>2019-10-13T13:42:21Z</time>
      </trkpt>
      <trkpt lat="44.08971" lon="4.10423">
        <ele>112</ele>
        <time>2019-10-13T13:42:27Z</time>
      </trkpt>
      <trkpt lat="44.08984" lon="4.10412">
        <ele>112</ele>
        <time>2019-10-13T13:42:31Z</time>
      </trkpt>
      <trkpt lat="44.09003" lon="4.10388">
        <ele>112</ele>
        <time>2019-10-13T13:42:37Z</time>
      </trkpt>
      <trkpt lat="44.0902" lon="4.10369">
        <ele>112</ele>
        <time>2019-10-13T13:42:42Z</time>
      </trkpt>
      <trkpt lat="44.09036" lon="4.10352">
        <ele>113</ele>
        <time>2019-10-13T13:42:47Z</time>
      </trkpt>
      <trkpt lat="44.09053" lon="4.10336">
        <ele>113</ele>
        <time>2019-10-13T13:42:52Z</time>
      </trkpt>
      <trkpt lat="44.0907" lon="4.10318">
        <ele>114</ele>
        <time>2019-10-13T13:42:57Z</time>
      </trkpt>
      <trkpt lat="44.09086" lon="4.10302">
        <ele>114</ele>
        <time>2019-10-13T13:43:02Z</time>
      </trkpt>
      <trkpt lat="44.09094" lon="4.10295">
        <ele>114</ele>
        <time>2019-10-13T13:43:04Z</time>
      </trkpt>
      <trkpt lat="44.0911" lon="4.10288">
        <ele>114</ele>
        <time>2019-10-13T13:43:08Z</time>
      </trkpt>
      <trkpt lat="44.09119" lon="4.10288">
        <ele>114</ele>
        <time>2019-10-13T13:43:10Z</time>
      </trkpt>
      <trkpt lat="44.09127" lon="4.10289">
        <ele>114</ele>
        <time>2019-10-13T13:43:12Z</time>
      </trkpt>
      <trkpt lat="44.09153" lon="4.10294">
        <ele>114</ele>
        <time>2019-10-13T13:43:18Z</time>
      </trkpt>
      <trkpt lat="44.09173" lon="4.10297">
        <ele>114</ele>
        <time>2019-10-13T13:43:23Z</time>
      </trkpt>
      <trkpt lat="44.09176" lon="4.10298">
        <ele>114</ele>
        <time>2019-10-13T13:43:24Z</time>
      </trkpt>
      <trkpt lat="44.09197" lon="4.10297">
        <ele>114</ele>
        <time>2019-10-13T13:43:29Z</time>
      </trkpt>
      <trkpt lat="44.09216" lon="4.10295">
        <ele>115</ele>
        <time>2019-10-13T13:43:34Z</time>
      </trkpt>
      <trkpt lat="44.09233" lon="4.10292">
        <ele>115</ele>
        <time>2019-10-13T13:43:38Z</time>
      </trkpt>
      <trkpt lat="44.09237" lon="4.10291">
        <ele>115</ele>
        <time>2019-10-13T13:43:39Z</time>
      </trkpt>
      <trkpt lat="44.09256" lon="4.10287">
        <ele>115</ele>
        <time>2019-10-13T13:43:43Z</time>
      </trkpt>
      <trkpt lat="44.09268" lon="4.10281">
        <ele>116</ele>
        <time>2019-10-13T13:43:46Z</time>
      </trkpt>
      <trkpt lat="44.09286" lon="4.10271">
        <ele>116</ele>
        <time>2019-10-13T13:43:52Z</time>
      </trkpt>
      <trkpt lat="44.09288" lon="4.1027">
        <ele>116</ele>
        <time>2019-10-13T13:43:53Z</time>
      </trkpt>
      <trkpt lat="44.09308" lon="4.1027">
        <ele>116</ele>
        <time>2019-10-13T13:43:59Z</time>
      </trkpt>
      <trkpt lat="44.09326" lon="4.10274">
        <ele>117</ele>
        <time>2019-10-13T13:44:04Z</time>
      </trkpt>
      <trkpt lat="44.09343" lon="4.10286">
        <ele>117</ele>
        <time>2019-10-13T13:44:09Z</time>
      </trkpt>
      <trkpt lat="44.09357" lon="4.10305">
        <ele>118</ele>
        <time>2019-10-13T13:44:14Z</time>
      </trkpt>
      <trkpt lat="44.09367" lon="4.10326">
        <ele>118</ele>
        <time>2019-10-13T13:44:19Z</time>
      </trkpt>
      <trkpt lat="44.09372" lon="4.10352">
        <ele>118</ele>
        <time>2019-10-13T13:44:25Z</time>
      </trkpt>
      <trkpt lat="44.09374" lon="4.10378">
        <ele>118</ele>
        <time>2019-10-13T13:44:31Z</time>
      </trkpt>
      <trkpt lat="44.09374" lon="4.10403">
        <ele>118</ele>
        <time>2019-10-13T13:44:37Z</time>
      </trkpt>
      <trkpt lat="44.09373" lon="4.10428">
        <ele>119</ele>
        <time>2019-10-13T13:44:44Z</time>
      </trkpt>
      <trkpt lat="44.09372" lon="4.10437">
        <ele>119</ele>
        <time>2019-10-13T13:44:47Z</time>
      </trkpt>
      <trkpt lat="44.09374" lon="4.10442">
        <ele>119</ele>
        <time>2019-10-13T13:44:52Z</time>
      </trkpt>
      <trkpt lat="44.09387" lon="4.10514">
        <ele>123</ele>
        <time>2019-10-13T13:47:14Z</time>
      </trkpt>
      <trkpt lat="44.09393" lon="4.10513">
        <ele>124</ele>
        <time>2019-10-13T13:47:20Z</time>
      </trkpt>
      <trkpt lat="44.09408" lon="4.10509">
        <ele>124</ele>
        <time>2019-10-13T13:47:24Z</time>
      </trkpt>
      <trkpt lat="44.09431" lon="4.10505">
        <ele>124</ele>
        <time>2019-10-13T13:47:28Z</time>
      </trkpt>
      <trkpt lat="44.09452" lon="4.10501">
        <ele>124</ele>
        <time>2019-10-13T13:47:31Z</time>
      </trkpt>
      <trkpt lat="44.09474" lon="4.10493">
        <ele>124</ele>
        <time>2019-10-13T13:47:34Z</time>
      </trkpt>
      <trkpt lat="44.09496" lon="4.10485">
        <ele>124</ele>
        <time>2019-10-13T13:47:37Z</time>
      </trkpt>
      <trkpt lat="44.09503" lon="4.10483">
        <ele>123</ele>
        <time>2019-10-13T13:47:38Z</time>
      </trkpt>
      <trkpt lat="44.09513" lon="4.10489">
        <ele>123</ele>
        <time>2019-10-13T13:47:40Z</time>
      </trkpt>
      <trkpt lat="44.09518" lon="4.10494">
        <ele>123</ele>
        <time>2019-10-13T13:47:41Z</time>
      </trkpt>
      <trkpt lat="44.09545" lon="4.10501">
        <ele>123</ele>
        <time>2019-10-13T13:47:46Z</time>
      </trkpt>
      <trkpt lat="44.0955" lon="4.105">
        <ele>123</ele>
        <time>2019-10-13T13:47:47Z</time>
      </trkpt>
      <trkpt lat="44.09559" lon="4.10499">
        <ele>122</ele>
        <time>2019-10-13T13:47:49Z</time>
      </trkpt>
      <trkpt lat="44.09578" lon="4.10497">
        <ele>121</ele>
        <time>2019-10-13T13:47:53Z</time>
      </trkpt>
      <trkpt lat="44.09597" lon="4.10496">
        <ele>121</ele>
        <time>2019-10-13T13:47:57Z</time>
      </trkpt>
      <trkpt lat="44.09619" lon="4.10498">
        <ele>120</ele>
        <time>2019-10-13T13:48:02Z</time>
      </trkpt>
      <trkpt lat="44.0964" lon="4.10499">
        <ele>120</ele>
        <time>2019-10-13T13:48:07Z</time>
      </trkpt>
      <trkpt lat="44.09662" lon="4.105">
        <ele>120</ele>
        <time>2019-10-13T13:48:12Z</time>
      </trkpt>
      <trkpt lat="44.09681" lon="4.105">
        <ele>120</ele>
        <time>2019-10-13T13:48:16Z</time>
      </trkpt>
      <trkpt lat="44.09703" lon="4.105">
        <ele>120</ele>
        <time>2019-10-13T13:48:21Z</time>
      </trkpt>
      <trkpt lat="44.09722" lon="4.105">
        <ele>120</ele>
        <time>2019-10-13T13:48:25Z</time>
      </trkpt>
      <trkpt lat="44.0974" lon="4.10499">
        <ele>120</ele>
        <time>2019-10-13T13:48:29Z</time>
      </trkpt>
      <trkpt lat="44.09763" lon="4.10497">
        <ele>120</ele>
        <time>2019-10-13T13:48:34Z</time>
      </trkpt>
      <trkpt lat="44.09783" lon="4.10496">
        <ele>120</ele>
        <time>2019-10-13T13:48:39Z</time>
      </trkpt>
      <trkpt lat="44.09805" lon="4.10494">
        <ele>120</ele>
        <time>2019-10-13T13:48:44Z</time>
      </trkpt>
      <trkpt lat="44.09827" lon="4.10491">
        <ele>121</ele>
        <time>2019-10-13T13:48:49Z</time>
      </trkpt>
      <trkpt lat="44.09848" lon="4.10489">
        <ele>121</ele>
        <time>2019-10-13T13:48:54Z</time>
      </trkpt>
      <trkpt lat="44.09867" lon="4.10486">
        <ele>121</ele>
        <time>2019-10-13T13:48:58Z</time>
      </trkpt>
      <trkpt lat="44.0989" lon="4.10484">
        <ele>122</ele>
        <time>2019-10-13T13:49:03Z</time>
      </trkpt>
      <trkpt lat="44.09909" lon="4.10481">
        <ele>122</ele>
        <time>2019-10-13T13:49:07Z</time>
      </trkpt>
      <trkpt lat="44.09927" lon="4.10477">
        <ele>122</ele>
        <time>2019-10-13T13:49:11Z</time>
      </trkpt>
      <trkpt lat="44.09947" lon="4.10471">
        <ele>122</ele>
        <time>2019-10-13T13:49:15Z</time>
      </trkpt>
      <trkpt lat="44.09967" lon="4.10467">
        <ele>122</ele>
        <time>2019-10-13T13:49:19Z</time>
      </trkpt>
      <trkpt lat="44.09987" lon="4.10461">
        <ele>122</ele>
        <time>2019-10-13T13:49:23Z</time>
      </trkpt>
      <trkpt lat="44.10007" lon="4.10456">
        <ele>122</ele>
        <time>2019-10-13T13:49:27Z</time>
      </trkpt>
      <trkpt lat="44.10025" lon="4.1045">
        <ele>122</ele>
        <time>2019-10-13T13:49:31Z</time>
      </trkpt>
      <trkpt lat="44.10044" lon="4.10442">
        <ele>122</ele>
        <time>2019-10-13T13:49:35Z</time>
      </trkpt>
      <trkpt lat="44.10063" lon="4.10436">
        <ele>122</ele>
        <time>2019-10-13T13:49:39Z</time>
      </trkpt>
      <trkpt lat="44.10083" lon="4.10428">
        <ele>122</ele>
        <time>2019-10-13T13:49:43Z</time>
      </trkpt>
      <trkpt lat="44.10102" lon="4.1042">
        <ele>122</ele>
        <time>2019-10-13T13:49:47Z</time>
      </trkpt>
      <trkpt lat="44.10122" lon="4.10413">
        <ele>122</ele>
        <time>2019-10-13T13:49:51Z</time>
      </trkpt>
      <trkpt lat="44.10141" lon="4.10404">
        <ele>122</ele>
        <time>2019-10-13T13:49:55Z</time>
      </trkpt>
      <trkpt lat="44.10161" lon="4.10395">
        <ele>122</ele>
        <time>2019-10-13T13:49:59Z</time>
      </trkpt>
      <trkpt lat="44.10182" lon="4.10385">
        <ele>122</ele>
        <time>2019-10-13T13:50:03Z</time>
      </trkpt>
      <trkpt lat="44.10202" lon="4.10376">
        <ele>122</ele>
        <time>2019-10-13T13:50:07Z</time>
      </trkpt>
      <trkpt lat="44.10223" lon="4.10366">
        <ele>122</ele>
        <time>2019-10-13T13:50:11Z</time>
      </trkpt>
      <trkpt lat="44.10244" lon="4.10356">
        <ele>122</ele>
        <time>2019-10-13T13:50:15Z</time>
      </trkpt>
      <trkpt lat="44.10255" lon="4.10352">
        <ele>122</ele>
        <time>2019-10-13T13:50:17Z</time>
      </trkpt>
      <trkpt lat="44.10265" lon="4.10347">
        <ele>122</ele>
        <time>2019-10-13T13:50:19Z</time>
      </trkpt>
      <trkpt lat="44.10288" lon="4.10339">
        <ele>122</ele>
        <time>2019-10-13T13:50:24Z</time>
      </trkpt>
      <trkpt lat="44.10308" lon="4.10331">
        <ele>122</ele>
        <time>2019-10-13T13:50:29Z</time>
      </trkpt>
      <trkpt lat="44.10327" lon="4.10323">
        <ele>122</ele>
        <time>2019-10-13T13:50:34Z</time>
      </trkpt>
      <trkpt lat="44.10348" lon="4.10314">
        <ele>122</ele>
        <time>2019-10-13T13:50:39Z</time>
      </trkpt>
      <trkpt lat="44.10365" lon="4.10306">
        <ele>122</ele>
        <time>2019-10-13T13:50:43Z</time>
      </trkpt>
      <trkpt lat="44.10384" lon="4.10299">
        <ele>122</ele>
        <time>2019-10-13T13:50:47Z</time>
      </trkpt>
      <trkpt lat="44.10403" lon="4.10291">
        <ele>122</ele>
        <time>2019-10-13T13:50:51Z</time>
      </trkpt>
      <trkpt lat="44.10422" lon="4.10283">
        <ele>122</ele>
        <time>2019-10-13T13:50:55Z</time>
      </trkpt>
      <trkpt lat="44.10442" lon="4.10273">
        <ele>122</ele>
        <time>2019-10-13T13:50:59Z</time>
      </trkpt>
      <trkpt lat="44.10463" lon="4.10263">
        <ele>122</ele>
        <time>2019-10-13T13:51:03Z</time>
      </trkpt>
      <trkpt lat="44.10483" lon="4.10254">
        <ele>122</ele>
        <time>2019-10-13T13:51:07Z</time>
      </trkpt>
      <trkpt lat="44.10503" lon="4.10245">
        <ele>122</ele>
        <time>2019-10-13T13:51:11Z</time>
      </trkpt>
      <trkpt lat="44.10521" lon="4.10237">
        <ele>122</ele>
        <time>2019-10-13T13:51:14Z</time>
      </trkpt>
      <trkpt lat="44.10532" lon="4.10232">
        <ele>122</ele>
        <time>2019-10-13T13:51:16Z</time>
      </trkpt>
      <trkpt lat="44.10543" lon="4.10218">
        <ele>122</ele>
        <time>2019-10-13T13:51:19Z</time>
      </trkpt>
      <trkpt lat="44.10538" lon="4.10199">
        <ele>122</ele>
        <time>2019-10-13T13:51:22Z</time>
      </trkpt>
      <trkpt lat="44.10535" lon="4.10192">
        <ele>122</ele>
        <time>2019-10-13T13:51:23Z</time>
      </trkpt>
      <trkpt lat="44.10516" lon="4.10161">
        <ele>122</ele>
        <time>2019-10-13T13:51:28Z</time>
      </trkpt>
      <trkpt lat="44.10502" lon="4.10136">
        <ele>122</ele>
        <time>2019-10-13T13:51:32Z</time>
      </trkpt>
      <trkpt lat="44.10487" lon="4.10112">
        <ele>122</ele>
        <time>2019-10-13T13:51:36Z</time>
      </trkpt>
      <trkpt lat="44.10472" lon="4.10089">
        <ele>122</ele>
        <time>2019-10-13T13:51:40Z</time>
      </trkpt>
      <trkpt lat="44.10439" lon="4.10031">
        <ele>122</ele>
        <time>2019-10-13T13:51:49Z</time>
      </trkpt>
      <trkpt lat="44.10425" lon="4.10007">
        <ele>122</ele>
        <time>2019-10-13T13:51:53Z</time>
      </trkpt>
      <trkpt lat="44.10413" lon="4.09988">
        <ele>122</ele>
        <time>2019-10-13T13:51:56Z</time>
      </trkpt>
      <trkpt lat="44.10398" lon="4.09964">
        <ele>122</ele>
        <time>2019-10-13T13:52:00Z</time>
      </trkpt>
      <trkpt lat="44.10384" lon="4.09941">
        <ele>122</ele>
        <time>2019-10-13T13:52:04Z</time>
      </trkpt>
      <trkpt lat="44.10372" lon="4.09919">
        <ele>122</ele>
        <time>2019-10-13T13:52:08Z</time>
      </trkpt>
      <trkpt lat="44.1037" lon="4.09914">
        <ele>122</ele>
        <time>2019-10-13T13:52:09Z</time>
      </trkpt>
      <trkpt lat="44.10371" lon="4.09896">
        <ele>122</ele>
        <time>2019-10-13T13:52:13Z</time>
      </trkpt>
      <trkpt lat="44.10373" lon="4.09893">
        <ele>122</ele>
        <time>2019-10-13T13:52:14Z</time>
      </trkpt>
      <trkpt lat="44.10379" lon="4.09885">
        <ele>122</ele>
        <time>2019-10-13T13:52:16Z</time>
      </trkpt>
      <trkpt lat="44.10399" lon="4.09865">
        <ele>122</ele>
        <time>2019-10-13T13:52:22Z</time>
      </trkpt>
      <trkpt lat="44.10416" lon="4.09849">
        <ele>122</ele>
        <time>2019-10-13T13:52:27Z</time>
      </trkpt>
      <trkpt lat="44.10434" lon="4.0983">
        <ele>122</ele>
        <time>2019-10-13T13:52:32Z</time>
      </trkpt>
      <trkpt lat="44.10449" lon="4.09817">
        <ele>122</ele>
        <time>2019-10-13T13:52:36Z</time>
      </trkpt>
      <trkpt lat="44.10468" lon="4.098">
        <ele>122</ele>
        <time>2019-10-13T13:52:41Z</time>
      </trkpt>
      <trkpt lat="44.10483" lon="4.09786">
        <ele>123</ele>
        <time>2019-10-13T13:52:45Z</time>
      </trkpt>
      <trkpt lat="44.10494" lon="4.09777">
        <ele>123</ele>
        <time>2019-10-13T13:52:48Z</time>
      </trkpt>
      <trkpt lat="44.10515" lon="4.09774">
        <ele>123</ele>
        <time>2019-10-13T13:52:53Z</time>
      </trkpt>
      <trkpt lat="44.10518" lon="4.09775">
        <ele>123</ele>
        <time>2019-10-13T13:52:54Z</time>
      </trkpt>
      <trkpt lat="44.10541" lon="4.09782">
        <ele>124</ele>
        <time>2019-10-13T13:52:59Z</time>
      </trkpt>
      <trkpt lat="44.10549" lon="4.09786">
        <ele>124</ele>
        <time>2019-10-13T13:53:01Z</time>
      </trkpt>
      <trkpt lat="44.10579" lon="4.09789">
        <ele>124</ele>
        <time>2019-10-13T13:53:06Z</time>
      </trkpt>
      <trkpt lat="44.10589" lon="4.09784">
        <ele>124</ele>
        <time>2019-10-13T13:53:08Z</time>
      </trkpt>
      <trkpt lat="44.1061" lon="4.0977">
        <ele>124</ele>
        <time>2019-10-13T13:53:13Z</time>
      </trkpt>
      <trkpt lat="44.10614" lon="4.09767">
        <ele>124</ele>
        <time>2019-10-13T13:53:14Z</time>
      </trkpt>
      <trkpt lat="44.10636" lon="4.09756">
        <ele>124</ele>
        <time>2019-10-13T13:53:20Z</time>
      </trkpt>
      <trkpt lat="44.10653" lon="4.09742">
        <ele>124</ele>
        <time>2019-10-13T13:53:25Z</time>
      </trkpt>
      <trkpt lat="44.10662" lon="4.09735">
        <ele>124</ele>
        <time>2019-10-13T13:53:28Z</time>
      </trkpt>
      <trkpt lat="44.10668" lon="4.09744">
        <ele>124</ele>
        <time>2019-10-13T13:53:32Z</time>
      </trkpt>
      <trkpt lat="44.10672" lon="4.09769">
        <ele>124</ele>
        <time>2019-10-13T13:53:37Z</time>
      </trkpt>
      <trkpt lat="44.10676" lon="4.09791">
        <ele>124</ele>
        <time>2019-10-13T13:53:41Z</time>
      </trkpt>
      <trkpt lat="44.1069" lon="4.09795">
        <ele>124</ele>
        <time>2019-10-13T13:53:45Z</time>
      </trkpt>
      <trkpt lat="44.10694" lon="4.09793">
        <ele>124</ele>
        <time>2019-10-13T13:53:46Z</time>
      </trkpt>
      <trkpt lat="44.10716" lon="4.09785">
        <ele>124</ele>
        <time>2019-10-13T13:53:51Z</time>
      </trkpt>
      <trkpt lat="44.1072" lon="4.09783">
        <ele>124</ele>
        <time>2019-10-13T13:53:52Z</time>
      </trkpt>
      <trkpt lat="44.10732" lon="4.09771">
        <ele>124</ele>
        <time>2019-10-13T13:53:55Z</time>
      </trkpt>
      <trkpt lat="44.10744" lon="4.09762">
        <ele>124</ele>
        <time>2019-10-13T13:53:58Z</time>
      </trkpt>
      <trkpt lat="44.10745" lon="4.09751">
        <ele>124</ele>
        <time>2019-10-13T13:54:03Z</time>
      </trkpt>
      <trkpt lat="44.10743" lon="4.09723">
        <ele>124</ele>
        <time>2019-10-13T13:54:08Z</time>
      </trkpt>
      <trkpt lat="44.10739" lon="4.09693">
        <ele>125</ele>
        <time>2019-10-13T13:54:13Z</time>
      </trkpt>
      <trkpt lat="44.10738" lon="4.09681">
        <ele>125</ele>
        <time>2019-10-13T13:54:15Z</time>
      </trkpt>
      <trkpt lat="44.1074" lon="4.09654">
        <ele>126</ele>
        <time>2019-10-13T13:54:20Z</time>
      </trkpt>
      <trkpt lat="44.1074" lon="4.09644">
        <ele>126</ele>
        <time>2019-10-13T13:54:22Z</time>
      </trkpt>
      <trkpt lat="44.10735" lon="4.0961">
        <ele>127</ele>
        <time>2019-10-13T13:54:28Z</time>
      </trkpt>
      <trkpt lat="44.1073" lon="4.09581">
        <ele>127</ele>
        <time>2019-10-13T13:54:33Z</time>
      </trkpt>
      <trkpt lat="44.10727" lon="4.09556">
        <ele>128</ele>
        <time>2019-10-13T13:54:37Z</time>
      </trkpt>
      <trkpt lat="44.10723" lon="4.09529">
        <ele>128</ele>
        <time>2019-10-13T13:54:41Z</time>
      </trkpt>
      <trkpt lat="44.10719" lon="4.09502">
        <ele>129</ele>
        <time>2019-10-13T13:54:45Z</time>
      </trkpt>
      <trkpt lat="44.10715" lon="4.09477">
        <ele>129</ele>
        <time>2019-10-13T13:54:49Z</time>
      </trkpt>
      <trkpt lat="44.10712" lon="4.09451">
        <ele>129</ele>
        <time>2019-10-13T13:54:53Z</time>
      </trkpt>
      <trkpt lat="44.10709" lon="4.09422">
        <ele>130</ele>
        <time>2019-10-13T13:54:57Z</time>
      </trkpt>
      <trkpt lat="44.10707" lon="4.09399">
        <ele>130</ele>
        <time>2019-10-13T13:55:00Z</time>
      </trkpt>
      <trkpt lat="44.10703" lon="4.09381">
        <ele>130</ele>
        <time>2019-10-13T13:55:03Z</time>
      </trkpt>
      <trkpt lat="44.10687" lon="4.09374">
        <ele>130</ele>
        <time>2019-10-13T13:55:07Z</time>
      </trkpt>
      <trkpt lat="44.10683" lon="4.09373">
        <ele>130</ele>
        <time>2019-10-13T13:55:08Z</time>
      </trkpt>
      <trkpt lat="44.10668" lon="4.09372">
        <ele>130</ele>
        <time>2019-10-13T13:55:11Z</time>
      </trkpt>
      <trkpt lat="44.10663" lon="4.09374">
        <ele>130</ele>
        <time>2019-10-13T13:55:12Z</time>
      </trkpt>
      <trkpt lat="44.10642" lon="4.0938">
        <ele>130</ele>
        <time>2019-10-13T13:55:16Z</time>
      </trkpt>
      <trkpt lat="44.10621" lon="4.09388">
        <ele>130</ele>
        <time>2019-10-13T13:55:20Z</time>
      </trkpt>
      <trkpt lat="44.10615" lon="4.0939">
        <ele>129</ele>
        <time>2019-10-13T13:55:21Z</time>
      </trkpt>
      <trkpt lat="44.10594" lon="4.09397">
        <ele>129</ele>
        <time>2019-10-13T13:55:25Z</time>
      </trkpt>
      <trkpt lat="44.10589" lon="4.09399">
        <ele>129</ele>
        <time>2019-10-13T13:55:26Z</time>
      </trkpt>
      <trkpt lat="44.10566" lon="4.09409">
        <ele>128</ele>
        <time>2019-10-13T13:55:31Z</time>
      </trkpt>
      <trkpt lat="44.10546" lon="4.09419">
        <ele>127</ele>
        <time>2019-10-13T13:55:36Z</time>
      </trkpt>
      <trkpt lat="44.10527" lon="4.09428">
        <ele>127</ele>
        <time>2019-10-13T13:55:41Z</time>
      </trkpt>
      <trkpt lat="44.1051" lon="4.09438">
        <ele>126</ele>
        <time>2019-10-13T13:55:45Z</time>
      </trkpt>
      <trkpt lat="44.10493" lon="4.09448">
        <ele>126</ele>
        <time>2019-10-13T13:55:49Z</time>
      </trkpt>
      <trkpt lat="44.10482" lon="4.09453">
        <ele>126</ele>
        <time>2019-10-13T13:55:52Z</time>
      </trkpt>
      <trkpt lat="44.10461" lon="4.09465">
        <ele>125</ele>
        <time>2019-10-13T13:55:57Z</time>
      </trkpt>
      <trkpt lat="44.10442" lon="4.09471">
        <ele>125</ele>
        <time>2019-10-13T13:56:01Z</time>
      </trkpt>
      <trkpt lat="44.10423" lon="4.09475">
        <ele>124</ele>
        <time>2019-10-13T13:56:05Z</time>
      </trkpt>
      <trkpt lat="44.10403" lon="4.09481">
        <ele>124</ele>
        <time>2019-10-13T13:56:09Z</time>
      </trkpt>
      <trkpt lat="44.10385" lon="4.09487">
        <ele>124</ele>
        <time>2019-10-13T13:56:13Z</time>
      </trkpt>
      <trkpt lat="44.10366" lon="4.09494">
        <ele>124</ele>
        <time>2019-10-13T13:56:17Z</time>
      </trkpt>
      <trkpt lat="44.10347" lon="4.09503">
        <ele>123</ele>
        <time>2019-10-13T13:56:21Z</time>
      </trkpt>
      <trkpt lat="44.10328" lon="4.09515">
        <ele>123</ele>
        <time>2019-10-13T13:56:25Z</time>
      </trkpt>
      <trkpt lat="44.10308" lon="4.09526">
        <ele>122</ele>
        <time>2019-10-13T13:56:29Z</time>
      </trkpt>
      <trkpt lat="44.10289" lon="4.09537">
        <ele>122</ele>
        <time>2019-10-13T13:56:33Z</time>
      </trkpt>
      <trkpt lat="44.10268" lon="4.09548">
        <ele>122</ele>
        <time>2019-10-13T13:56:37Z</time>
      </trkpt>
      <trkpt lat="44.10248" lon="4.0956">
        <ele>122</ele>
        <time>2019-10-13T13:56:41Z</time>
      </trkpt>
      <trkpt lat="44.10228" lon="4.09572">
        <ele>122</ele>
        <time>2019-10-13T13:56:45Z</time>
      </trkpt>
      <trkpt lat="44.10208" lon="4.09584">
        <ele>121</ele>
        <time>2019-10-13T13:56:49Z</time>
      </trkpt>
      <trkpt lat="44.10188" lon="4.09595">
        <ele>120</ele>
        <time>2019-10-13T13:56:53Z</time>
      </trkpt>
      <trkpt lat="44.10183" lon="4.09597">
        <ele>120</ele>
        <time>2019-10-13T13:56:54Z</time>
      </trkpt>
      <trkpt lat="44.10167" lon="4.09608">
        <ele>120</ele>
        <time>2019-10-13T13:56:58Z</time>
      </trkpt>
      <trkpt lat="44.10155" lon="4.09614">
        <ele>120</ele>
        <time>2019-10-13T13:57:01Z</time>
      </trkpt>
      <trkpt lat="44.10131" lon="4.0963">
        <ele>120</ele>
        <time>2019-10-13T13:57:07Z</time>
      </trkpt>
      <trkpt lat="44.10114" lon="4.09641">
        <ele>120</ele>
        <time>2019-10-13T13:57:11Z</time>
      </trkpt>
      <trkpt lat="44.10096" lon="4.09652">
        <ele>120</ele>
        <time>2019-10-13T13:57:15Z</time>
      </trkpt>
      <trkpt lat="44.10079" lon="4.09665">
        <ele>120</ele>
        <time>2019-10-13T13:57:19Z</time>
      </trkpt>
      <trkpt lat="44.10066" lon="4.09676">
        <ele>119</ele>
        <time>2019-10-13T13:57:22Z</time>
      </trkpt>
      <trkpt lat="44.10057" lon="4.09683">
        <ele>119</ele>
        <time>2019-10-13T13:57:24Z</time>
      </trkpt>
      <trkpt lat="44.10035" lon="4.09702">
        <ele>118</ele>
        <time>2019-10-13T13:57:29Z</time>
      </trkpt>
      <trkpt lat="44.10017" lon="4.09715">
        <ele>118</ele>
        <time>2019-10-13T13:57:33Z</time>
      </trkpt>
      <trkpt lat="44.09999" lon="4.09725">
        <ele>118</ele>
        <time>2019-10-13T13:57:37Z</time>
      </trkpt>
      <trkpt lat="44.09995" lon="4.09727">
        <ele>118</ele>
        <time>2019-10-13T13:57:38Z</time>
      </trkpt>
      <trkpt lat="44.09969" lon="4.09737">
        <ele>118</ele>
        <time>2019-10-13T13:57:44Z</time>
      </trkpt>
      <trkpt lat="44.09952" lon="4.09744">
        <ele>118</ele>
        <time>2019-10-13T13:57:48Z</time>
      </trkpt>
      <trkpt lat="44.09937" lon="4.0974">
        <ele>118</ele>
        <time>2019-10-13T13:57:52Z</time>
      </trkpt>
      <trkpt lat="44.09934" lon="4.09735">
        <ele>118</ele>
        <time>2019-10-13T13:57:53Z</time>
      </trkpt>
      <trkpt lat="44.09928" lon="4.09718">
        <ele>118</ele>
        <time>2019-10-13T13:57:56Z</time>
      </trkpt>
      <trkpt lat="44.09923" lon="4.09707">
        <ele>118</ele>
        <time>2019-10-13T13:57:58Z</time>
      </trkpt>
      <trkpt lat="44.09916" lon="4.09699">
        <ele>118</ele>
        <time>2019-10-13T13:58:00Z</time>
      </trkpt>
      <trkpt lat="44.09891" lon="4.09684">
        <ele>118</ele>
        <time>2019-10-13T13:58:07Z</time>
      </trkpt>
      <trkpt lat="44.09873" lon="4.09673">
        <ele>118</ele>
        <time>2019-10-13T13:58:13Z</time>
      </trkpt>
      <trkpt lat="44.09857" lon="4.09658">
        <ele>118</ele>
        <time>2019-10-13T13:58:19Z</time>
      </trkpt>
      <trkpt lat="44.09848" lon="4.09633">
        <ele>118</ele>
        <time>2019-10-13T13:58:24Z</time>
      </trkpt>
      <trkpt lat="44.09844" lon="4.09603">
        <ele>118</ele>
        <time>2019-10-13T13:58:29Z</time>
      </trkpt>
      <trkpt lat="44.09839" lon="4.09578">
        <ele>118</ele>
        <time>2019-10-13T13:58:33Z</time>
      </trkpt>
      <trkpt lat="44.09836" lon="4.09554">
        <ele>118</ele>
        <time>2019-10-13T13:58:37Z</time>
      </trkpt>
      <trkpt lat="44.09833" lon="4.09528">
        <ele>118</ele>
        <time>2019-10-13T13:58:41Z</time>
      </trkpt>
      <trkpt lat="44.09828" lon="4.09503">
        <ele>118</ele>
        <time>2019-10-13T13:58:45Z</time>
      </trkpt>
      <trkpt lat="44.09823" lon="4.09477">
        <ele>118</ele>
        <time>2019-10-13T13:58:49Z</time>
      </trkpt>
      <trkpt lat="44.09816" lon="4.0945">
        <ele>118</ele>
        <time>2019-10-13T13:58:53Z</time>
      </trkpt>
      <trkpt lat="44.09809" lon="4.09423">
        <ele>118</ele>
        <time>2019-10-13T13:58:57Z</time>
      </trkpt>
      <trkpt lat="44.09803" lon="4.09396">
        <ele>118</ele>
        <time>2019-10-13T13:59:01Z</time>
      </trkpt>
      <trkpt lat="44.09796" lon="4.0937">
        <ele>118</ele>
        <time>2019-10-13T13:59:05Z</time>
      </trkpt>
      <trkpt lat="44.09791" lon="4.09344">
        <ele>118</ele>
        <time>2019-10-13T13:59:09Z</time>
      </trkpt>
      <trkpt lat="44.09787" lon="4.09317">
        <ele>118</ele>
        <time>2019-10-13T13:59:13Z</time>
      </trkpt>
      <trkpt lat="44.09785" lon="4.09291">
        <ele>118</ele>
        <time>2019-10-13T13:59:17Z</time>
      </trkpt>
      <trkpt lat="44.09784" lon="4.09261">
        <ele>118</ele>
        <time>2019-10-13T13:59:22Z</time>
      </trkpt>
      <trkpt lat="44.09784" lon="4.09248">
        <ele>118</ele>
        <time>2019-10-13T13:59:24Z</time>
      </trkpt>
      <trkpt lat="44.09786" lon="4.09215">
        <ele>118</ele>
        <time>2019-10-13T13:59:29Z</time>
      </trkpt>
      <trkpt lat="44.09785" lon="4.09201">
        <ele>118</ele>
        <time>2019-10-13T13:59:31Z</time>
      </trkpt>
      <trkpt lat="44.09783" lon="4.09166">
        <ele>118</ele>
        <time>2019-10-13T13:59:36Z</time>
      </trkpt>
      <trkpt lat="44.0978" lon="4.09138">
        <ele>118</ele>
        <time>2019-10-13T13:59:40Z</time>
      </trkpt>
      <trkpt lat="44.09777" lon="4.09109">
        <ele>118</ele>
        <time>2019-10-13T13:59:44Z</time>
      </trkpt>
      <trkpt lat="44.09774" lon="4.09088">
        <ele>118</ele>
        <time>2019-10-13T13:59:47Z</time>
      </trkpt>
      <trkpt lat="44.09767" lon="4.09052">
        <ele>118</ele>
        <time>2019-10-13T13:59:52Z</time>
      </trkpt>
      <trkpt lat="44.09763" lon="4.09021">
        <ele>118</ele>
        <time>2019-10-13T13:59:56Z</time>
      </trkpt>
      <trkpt lat="44.0976" lon="4.08995">
        <ele>118</ele>
        <time>2019-10-13T14:00:00Z</time>
      </trkpt>
      <trkpt lat="44.09757" lon="4.0897">
        <ele>118</ele>
        <time>2019-10-13T14:00:04Z</time>
      </trkpt>
      <trkpt lat="44.09756" lon="4.08964">
        <ele>118</ele>
        <time>2019-10-13T14:00:05Z</time>
      </trkpt>
      <trkpt lat="44.09749" lon="4.08954">
        <ele>118</ele>
        <time>2019-10-13T14:00:08Z</time>
      </trkpt>
      <trkpt lat="44.09735" lon="4.08953">
        <ele>118</ele>
        <time>2019-10-13T14:00:11Z</time>
      </trkpt>
      <trkpt lat="44.09711" lon="4.08958">
        <ele>118</ele>
        <time>2019-10-13T14:00:16Z</time>
      </trkpt>
      <trkpt lat="44.09691" lon="4.08963">
        <ele>118</ele>
        <time>2019-10-13T14:00:20Z</time>
      </trkpt>
      <trkpt lat="44.09671" lon="4.08968">
        <ele>118</ele>
        <time>2019-10-13T14:00:24Z</time>
      </trkpt>
      <trkpt lat="44.09666" lon="4.08969">
        <ele>118</ele>
        <time>2019-10-13T14:00:25Z</time>
      </trkpt>
      <trkpt lat="44.09642" lon="4.08962">
        <ele>118</ele>
        <time>2019-10-13T14:00:30Z</time>
      </trkpt>
      <trkpt lat="44.09637" lon="4.0896">
        <ele>118</ele>
        <time>2019-10-13T14:00:31Z</time>
      </trkpt>
      <trkpt lat="44.09617" lon="4.08964">
        <ele>118</ele>
        <time>2019-10-13T14:00:35Z</time>
      </trkpt>
      <trkpt lat="44.09594" lon="4.08981">
        <ele>118</ele>
        <time>2019-10-13T14:00:40Z</time>
      </trkpt>
      <trkpt lat="44.09576" lon="4.08994">
        <ele>118</ele>
        <time>2019-10-13T14:00:44Z</time>
      </trkpt>
      <trkpt lat="44.09557" lon="4.09008">
        <ele>118</ele>
        <time>2019-10-13T14:00:48Z</time>
      </trkpt>
      <trkpt lat="44.09538" lon="4.09019">
        <ele>118</ele>
        <time>2019-10-13T14:00:52Z</time>
      </trkpt>
      <trkpt lat="44.09517" lon="4.0903">
        <ele>118</ele>
        <time>2019-10-13T14:00:56Z</time>
      </trkpt>
      <trkpt lat="44.09497" lon="4.09041">
        <ele>118</ele>
        <time>2019-10-13T14:01:00Z</time>
      </trkpt>
      <trkpt lat="44.09477" lon="4.09052">
        <ele>118</ele>
        <time>2019-10-13T14:01:04Z</time>
      </trkpt>
      <trkpt lat="44.09456" lon="4.09062">
        <ele>118</ele>
        <time>2019-10-13T14:01:08Z</time>
      </trkpt>
      <trkpt lat="44.09436" lon="4.0907">
        <ele>118</ele>
        <time>2019-10-13T14:01:12Z</time>
      </trkpt>
      <trkpt lat="44.09417" lon="4.09078">
        <ele>118</ele>
        <time>2019-10-13T14:01:16Z</time>
      </trkpt>
      <trkpt lat="44.09396" lon="4.09085">
        <ele>118</ele>
        <time>2019-10-13T14:01:21Z</time>
      </trkpt>
      <trkpt lat="44.09384" lon="4.09088">
        <ele>118</ele>
        <time>2019-10-13T14:01:26Z</time>
      </trkpt>
      <trkpt lat="44.09379" lon="4.09088">
        <ele>118</ele>
        <time>2019-10-13T14:01:31Z</time>
      </trkpt>
      <trkpt lat="44.09376" lon="4.09087">
        <ele>118</ele>
        <time>2019-10-13T14:01:32Z</time>
      </trkpt>
      <trkpt lat="44.09371" lon="4.09076">
        <ele>118</ele>
        <time>2019-10-13T14:01:35Z</time>
      </trkpt>
      <trkpt lat="44.0937" lon="4.0907">
        <ele>118</ele>
        <time>2019-10-13T14:01:36Z</time>
      </trkpt>
      <trkpt lat="44.09365" lon="4.09043">
        <ele>118</ele>
        <time>2019-10-13T14:01:41Z</time>
      </trkpt>
      <trkpt lat="44.09359" lon="4.09027">
        <ele>118</ele>
        <time>2019-10-13T14:01:44Z</time>
      </trkpt>
      <trkpt lat="44.09353" lon="4.09003">
        <ele>118</ele>
        <time>2019-10-13T14:01:50Z</time>
      </trkpt>
      <trkpt lat="44.09349" lon="4.08981">
        <ele>117</ele>
        <time>2019-10-13T14:01:55Z</time>
      </trkpt>
      <trkpt lat="44.09345" lon="4.08955">
        <ele>116</ele>
        <time>2019-10-13T14:02:00Z</time>
      </trkpt>
      <trkpt lat="44.09339" lon="4.08924">
        <ele>116</ele>
        <time>2019-10-13T14:02:05Z</time>
      </trkpt>
      <trkpt lat="44.09334" lon="4.08899">
        <ele>116</ele>
        <time>2019-10-13T14:02:09Z</time>
      </trkpt>
      <trkpt lat="44.09329" lon="4.08873">
        <ele>116</ele>
        <time>2019-10-13T14:02:13Z</time>
      </trkpt>
      <trkpt lat="44.09324" lon="4.08846">
        <ele>116</ele>
        <time>2019-10-13T14:02:17Z</time>
      </trkpt>
      <trkpt lat="44.09319" lon="4.08819">
        <ele>116</ele>
        <time>2019-10-13T14:02:21Z</time>
      </trkpt>
      <trkpt lat="44.09315" lon="4.08791">
        <ele>116</ele>
        <time>2019-10-13T14:02:25Z</time>
      </trkpt>
      <trkpt lat="44.09311" lon="4.08763">
        <ele>115</ele>
        <time>2019-10-13T14:02:29Z</time>
      </trkpt>
      <trkpt lat="44.09308" lon="4.08749">
        <ele>115</ele>
        <time>2019-10-13T14:02:31Z</time>
      </trkpt>
      <trkpt lat="44.09302" lon="4.08715">
        <ele>115</ele>
        <time>2019-10-13T14:02:36Z</time>
      </trkpt>
      <trkpt lat="44.09301" lon="4.08709">
        <ele>115</ele>
        <time>2019-10-13T14:02:37Z</time>
      </trkpt>
      <trkpt lat="44.09294" lon="4.08691">
        <ele>116</ele>
        <time>2019-10-13T14:02:41Z</time>
      </trkpt>
      <trkpt lat="44.0929" lon="4.08689">
        <ele>116</ele>
        <time>2019-10-13T14:02:44Z</time>
      </trkpt>
      <trkpt lat="44.0929" lon="4.08689">
        <ele>117</ele>
        <time>2019-10-13T14:02:48Z</time>
      </trkpt>
      <trkpt lat="44.0929" lon="4.08689">
        <ele>117</ele>
        <time>2019-10-13T14:02:52Z</time>
      </trkpt>
      <trkpt lat="44.09239" lon="4.08729">
        <ele>120</ele>
        <time>2019-10-13T14:10:30Z</time>
      </trkpt>
      <trkpt lat="44.09231" lon="4.08733">
        <ele>120</ele>
        <time>2019-10-13T14:10:32Z</time>
      </trkpt>
      <trkpt lat="44.09212" lon="4.08742">
        <ele>120</ele>
        <time>2019-10-13T14:10:37Z</time>
      </trkpt>
      <trkpt lat="44.09195" lon="4.0875">
        <ele>120</ele>
        <time>2019-10-13T14:10:41Z</time>
      </trkpt>
      <trkpt lat="44.09178" lon="4.08758">
        <ele>120</ele>
        <time>2019-10-13T14:10:45Z</time>
      </trkpt>
      <trkpt lat="44.09169" lon="4.08763">
        <ele>120</ele>
        <time>2019-10-13T14:10:47Z</time>
      </trkpt>
      <trkpt lat="44.09148" lon="4.08785">
        <ele>120</ele>
        <time>2019-10-13T14:10:53Z</time>
      </trkpt>
      <trkpt lat="44.0914" lon="4.08793">
        <ele>120</ele>
        <time>2019-10-13T14:10:55Z</time>
      </trkpt>
      <trkpt lat="44.09132" lon="4.08809">
        <ele>120</ele>
        <time>2019-10-13T14:10:58Z</time>
      </trkpt>
      <trkpt lat="44.09118" lon="4.08824">
        <ele>120</ele>
        <time>2019-10-13T14:11:02Z</time>
      </trkpt>
      <trkpt lat="44.09097" lon="4.08836">
        <ele>120</ele>
        <time>2019-10-13T14:11:07Z</time>
      </trkpt>
      <trkpt lat="44.09087" lon="4.08839">
        <ele>120</ele>
        <time>2019-10-13T14:11:09Z</time>
      </trkpt>
      <trkpt lat="44.09075" lon="4.08854">
        <ele>120</ele>
        <time>2019-10-13T14:11:13Z</time>
      </trkpt>
      <trkpt lat="44.09078" lon="4.08873">
        <ele>120</ele>
        <time>2019-10-13T14:11:16Z</time>
      </trkpt>
      <trkpt lat="44.0908" lon="4.08879">
        <ele>120</ele>
        <time>2019-10-13T14:11:17Z</time>
      </trkpt>
      <trkpt lat="44.09082" lon="4.08885">
        <ele>120</ele>
        <time>2019-10-13T14:11:18Z</time>
      </trkpt>
      <trkpt lat="44.09081" lon="4.08915">
        <ele>120</ele>
        <time>2019-10-13T14:11:22Z</time>
      </trkpt>
      <trkpt lat="44.09078" lon="4.08922">
        <ele>120</ele>
        <time>2019-10-13T14:11:23Z</time>
      </trkpt>
      <trkpt lat="44.09074" lon="4.08936">
        <ele>120</ele>
        <time>2019-10-13T14:11:25Z</time>
      </trkpt>
      <trkpt lat="44.09074" lon="4.08963">
        <ele>120</ele>
        <time>2019-10-13T14:11:30Z</time>
      </trkpt>
      <trkpt lat="44.09076" lon="4.08967">
        <ele>120</ele>
        <time>2019-10-13T14:11:31Z</time>
      </trkpt>
      <trkpt lat="44.09087" lon="4.08999">
        <ele>120</ele>
        <time>2019-10-13T14:11:37Z</time>
      </trkpt>
      <trkpt lat="44.09094" lon="4.09029">
        <ele>120</ele>
        <time>2019-10-13T14:11:42Z</time>
      </trkpt>
      <trkpt lat="44.091" lon="4.09053">
        <ele>120</ele>
        <time>2019-10-13T14:11:46Z</time>
      </trkpt>
      <trkpt lat="44.09103" lon="4.09066">
        <ele>120</ele>
        <time>2019-10-13T14:11:48Z</time>
      </trkpt>
      <trkpt lat="44.09105" lon="4.09099">
        <ele>120</ele>
        <time>2019-10-13T14:11:53Z</time>
      </trkpt>
      <trkpt lat="44.09105" lon="4.09125">
        <ele>120</ele>
        <time>2019-10-13T14:11:57Z</time>
      </trkpt>
      <trkpt lat="44.09105" lon="4.09132">
        <ele>120</ele>
        <time>2019-10-13T14:11:58Z</time>
      </trkpt>
      <trkpt lat="44.09101" lon="4.09143">
        <ele>120</ele>
        <time>2019-10-13T14:12:00Z</time>
      </trkpt>
      <trkpt lat="44.09077" lon="4.0916">
        <ele>120</ele>
        <time>2019-10-13T14:12:05Z</time>
      </trkpt>
      <trkpt lat="44.09073" lon="4.09164">
        <ele>120</ele>
        <time>2019-10-13T14:12:06Z</time>
      </trkpt>
      <trkpt lat="44.09065" lon="4.09171">
        <ele>120</ele>
        <time>2019-10-13T14:12:08Z</time>
      </trkpt>
      <trkpt lat="44.09041" lon="4.09185">
        <ele>120</ele>
        <time>2019-10-13T14:12:13Z</time>
      </trkpt>
      <trkpt lat="44.0902" lon="4.09195">
        <ele>120</ele>
        <time>2019-10-13T14:12:17Z</time>
      </trkpt>
      <trkpt lat="44.0901" lon="4.092">
        <ele>120</ele>
        <time>2019-10-13T14:12:19Z</time>
      </trkpt>
      <trkpt lat="44.08991" lon="4.09213">
        <ele>120</ele>
        <time>2019-10-13T14:12:23Z</time>
      </trkpt>
      <trkpt lat="44.08982" lon="4.09222">
        <ele>120</ele>
        <time>2019-10-13T14:12:25Z</time>
      </trkpt>
      <trkpt lat="44.08964" lon="4.09239">
        <ele>120</ele>
        <time>2019-10-13T14:12:29Z</time>
      </trkpt>
      <trkpt lat="44.08947" lon="4.09254">
        <ele>120</ele>
        <time>2019-10-13T14:12:33Z</time>
      </trkpt>
      <trkpt lat="44.08928" lon="4.09267">
        <ele>120</ele>
        <time>2019-10-13T14:12:37Z</time>
      </trkpt>
      <trkpt lat="44.08911" lon="4.09279">
        <ele>120</ele>
        <time>2019-10-13T14:12:41Z</time>
      </trkpt>
      <trkpt lat="44.08893" lon="4.09288">
        <ele>120</ele>
        <time>2019-10-13T14:12:45Z</time>
      </trkpt>
      <trkpt lat="44.08874" lon="4.09297">
        <ele>119</ele>
        <time>2019-10-13T14:12:49Z</time>
      </trkpt>
      <trkpt lat="44.08856" lon="4.09308">
        <ele>119</ele>
        <time>2019-10-13T14:12:53Z</time>
      </trkpt>
      <trkpt lat="44.08838" lon="4.0932">
        <ele>118</ele>
        <time>2019-10-13T14:12:57Z</time>
      </trkpt>
      <trkpt lat="44.0882" lon="4.09331">
        <ele>118</ele>
        <time>2019-10-13T14:13:01Z</time>
      </trkpt>
      <trkpt lat="44.08802" lon="4.09342">
        <ele>118</ele>
        <time>2019-10-13T14:13:05Z</time>
      </trkpt>
      <trkpt lat="44.08784" lon="4.09353">
        <ele>118</ele>
        <time>2019-10-13T14:13:09Z</time>
      </trkpt>
      <trkpt lat="44.08767" lon="4.09363">
        <ele>118</ele>
        <time>2019-10-13T14:13:13Z</time>
      </trkpt>
      <trkpt lat="44.08749" lon="4.09375">
        <ele>118</ele>
        <time>2019-10-13T14:13:17Z</time>
      </trkpt>
      <trkpt lat="44.08731" lon="4.09387">
        <ele>118</ele>
        <time>2019-10-13T14:13:21Z</time>
      </trkpt>
      <trkpt lat="44.08715" lon="4.09401">
        <ele>118</ele>
        <time>2019-10-13T14:13:25Z</time>
      </trkpt>
      <trkpt lat="44.08698" lon="4.09419">
        <ele>118</ele>
        <time>2019-10-13T14:13:30Z</time>
      </trkpt>
      <trkpt lat="44.08683" lon="4.09434">
        <ele>117</ele>
        <time>2019-10-13T14:13:35Z</time>
      </trkpt>
      <trkpt lat="44.08666" lon="4.09448">
        <ele>117</ele>
        <time>2019-10-13T14:13:40Z</time>
      </trkpt>
      <trkpt lat="44.08649" lon="4.09461">
        <ele>116</ele>
        <time>2019-10-13T14:13:46Z</time>
      </trkpt>
      <trkpt lat="44.08648" lon="4.09485">
        <ele>116</ele>
        <time>2019-10-13T14:13:52Z</time>
      </trkpt>
      <trkpt lat="44.08648" lon="4.0951">
        <ele>116</ele>
        <time>2019-10-13T14:13:57Z</time>
      </trkpt>
      <trkpt lat="44.08646" lon="4.09515">
        <ele>116</ele>
        <time>2019-10-13T14:13:58Z</time>
      </trkpt>
      <trkpt lat="44.08632" lon="4.09536">
        <ele>116</ele>
        <time>2019-10-13T14:14:03Z</time>
      </trkpt>
      <trkpt lat="44.08613" lon="4.09551">
        <ele>116</ele>
        <time>2019-10-13T14:14:08Z</time>
      </trkpt>
      <trkpt lat="44.08597" lon="4.09564">
        <ele>115</ele>
        <time>2019-10-13T14:14:12Z</time>
      </trkpt>
      <trkpt lat="44.0858" lon="4.09577">
        <ele>115</ele>
        <time>2019-10-13T14:14:16Z</time>
      </trkpt>
      <trkpt lat="44.08564" lon="4.0959">
        <ele>115</ele>
        <time>2019-10-13T14:14:20Z</time>
      </trkpt>
      <trkpt lat="44.08547" lon="4.09604">
        <ele>115</ele>
        <time>2019-10-13T14:14:24Z</time>
      </trkpt>
      <trkpt lat="44.0853" lon="4.09618">
        <ele>115</ele>
        <time>2019-10-13T14:14:28Z</time>
      </trkpt>
      <trkpt lat="44.08513" lon="4.09632">
        <ele>115</ele>
        <time>2019-10-13T14:14:32Z</time>
      </trkpt>
      <trkpt lat="44.08496" lon="4.09646">
        <ele>115</ele>
        <time>2019-10-13T14:14:36Z</time>
      </trkpt>
      <trkpt lat="44.08479" lon="4.0966">
        <ele>115</ele>
        <time>2019-10-13T14:14:40Z</time>
      </trkpt>
      <trkpt lat="44.08462" lon="4.09674">
        <ele>115</ele>
        <time>2019-10-13T14:14:44Z</time>
      </trkpt>
      <trkpt lat="44.08445" lon="4.09688">
        <ele>115</ele>
        <time>2019-10-13T14:14:48Z</time>
      </trkpt>
      <trkpt lat="44.08428" lon="4.09702">
        <ele>115</ele>
        <time>2019-10-13T14:14:52Z</time>
      </trkpt>
      <trkpt lat="44.0841" lon="4.09716">
        <ele>115</ele>
        <time>2019-10-13T14:14:56Z</time>
      </trkpt>
      <trkpt lat="44.08393" lon="4.09731">
        <ele>115</ele>
        <time>2019-10-13T14:15:00Z</time>
      </trkpt>
      <trkpt lat="44.08375" lon="4.09745">
        <ele>115</ele>
        <time>2019-10-13T14:15:04Z</time>
      </trkpt>
      <trkpt lat="44.08357" lon="4.09759">
        <ele>115</ele>
        <time>2019-10-13T14:15:08Z</time>
      </trkpt>
      <trkpt lat="44.08349" lon="4.09765">
        <ele>114</ele>
        <time>2019-10-13T14:15:10Z</time>
      </trkpt>
      <trkpt lat="44.08328" lon="4.09783">
        <ele>114</ele>
        <time>2019-10-13T14:15:15Z</time>
      </trkpt>
      <trkpt lat="44.08311" lon="4.09797">
        <ele>114</ele>
        <time>2019-10-13T14:15:19Z</time>
      </trkpt>
      <trkpt lat="44.08294" lon="4.09811">
        <ele>114</ele>
        <time>2019-10-13T14:15:23Z</time>
      </trkpt>
      <trkpt lat="44.08277" lon="4.09826">
        <ele>114</ele>
        <time>2019-10-13T14:15:27Z</time>
      </trkpt>
      <trkpt lat="44.0826" lon="4.0984">
        <ele>114</ele>
        <time>2019-10-13T14:15:31Z</time>
      </trkpt>
      <trkpt lat="44.08243" lon="4.09854">
        <ele>114</ele>
        <time>2019-10-13T14:15:35Z</time>
      </trkpt>
      <trkpt lat="44.08225" lon="4.09869">
        <ele>113</ele>
        <time>2019-10-13T14:15:39Z</time>
      </trkpt>
      <trkpt lat="44.08207" lon="4.09884">
        <ele>113</ele>
        <time>2019-10-13T14:15:43Z</time>
      </trkpt>
      <trkpt lat="44.08189" lon="4.09899">
        <ele>113</ele>
        <time>2019-10-13T14:15:47Z</time>
      </trkpt>
      <trkpt lat="44.08172" lon="4.09912">
        <ele>113</ele>
        <time>2019-10-13T14:15:51Z</time>
      </trkpt>
      <trkpt lat="44.08156" lon="4.09923">
        <ele>113</ele>
        <time>2019-10-13T14:15:55Z</time>
      </trkpt>
      <trkpt lat="44.08133" lon="4.0994">
        <ele>113</ele>
        <time>2019-10-13T14:16:00Z</time>
      </trkpt>
      <trkpt lat="44.08129" lon="4.09944">
        <ele>113</ele>
        <time>2019-10-13T14:16:01Z</time>
      </trkpt>
      <trkpt lat="44.08112" lon="4.09958">
        <ele>112</ele>
        <time>2019-10-13T14:16:05Z</time>
      </trkpt>
      <trkpt lat="44.08096" lon="4.0997">
        <ele>112</ele>
        <time>2019-10-13T14:16:09Z</time>
      </trkpt>
      <trkpt lat="44.0808" lon="4.09983">
        <ele>112</ele>
        <time>2019-10-13T14:16:13Z</time>
      </trkpt>
      <trkpt lat="44.08064" lon="4.09996">
        <ele>112</ele>
        <time>2019-10-13T14:16:17Z</time>
      </trkpt>
      <trkpt lat="44.08048" lon="4.10011">
        <ele>112</ele>
        <time>2019-10-13T14:16:21Z</time>
      </trkpt>
      <trkpt lat="44.08044" lon="4.10015">
        <ele>112</ele>
        <time>2019-10-13T14:16:22Z</time>
      </trkpt>
      <trkpt lat="44.08037" lon="4.10022">
        <ele>112</ele>
        <time>2019-10-13T14:16:24Z</time>
      </trkpt>
      <trkpt lat="44.08022" lon="4.10025">
        <ele>111</ele>
        <time>2019-10-13T14:16:28Z</time>
      </trkpt>
      <trkpt lat="44.08018" lon="4.10017">
        <ele>111</ele>
        <time>2019-10-13T14:16:30Z</time>
      </trkpt>
      <trkpt lat="44.08005" lon="4.09986">
        <ele>111</ele>
        <time>2019-10-13T14:16:36Z</time>
      </trkpt>
      <trkpt lat="44.07996" lon="4.09964">
        <ele>111</ele>
        <time>2019-10-13T14:16:40Z</time>
      </trkpt>
      <trkpt lat="44.07986" lon="4.09942">
        <ele>111</ele>
        <time>2019-10-13T14:16:44Z</time>
      </trkpt>
      <trkpt lat="44.07974" lon="4.09917">
        <ele>111</ele>
        <time>2019-10-13T14:16:49Z</time>
      </trkpt>
      <trkpt lat="44.07962" lon="4.09895">
        <ele>111</ele>
        <time>2019-10-13T14:16:55Z</time>
      </trkpt>
      <trkpt lat="44.07946" lon="4.09885">
        <ele>111</ele>
        <time>2019-10-13T14:17:02Z</time>
      </trkpt>
      <trkpt lat="44.07931" lon="4.09883">
        <ele>111</ele>
        <time>2019-10-13T14:17:09Z</time>
      </trkpt>
      <trkpt lat="44.07914" lon="4.09881">
        <ele>111</ele>
        <time>2019-10-13T14:17:17Z</time>
      </trkpt>
      <trkpt lat="44.07894" lon="4.09873">
        <ele>111</ele>
        <time>2019-10-13T14:17:26Z</time>
      </trkpt>
      <trkpt lat="44.07878" lon="4.09862">
        <ele>112</ele>
        <time>2019-10-13T14:17:34Z</time>
      </trkpt>
      <trkpt lat="44.07868" lon="4.09848">
        <ele>113</ele>
        <time>2019-10-13T14:17:40Z</time>
      </trkpt>
      <trkpt lat="44.07857" lon="4.09846">
        <ele>114</ele>
        <time>2019-10-13T14:17:44Z</time>
      </trkpt>
      <trkpt lat="44.07848" lon="4.09848">
        <ele>114</ele>
        <time>2019-10-13T14:17:47Z</time>
      </trkpt>
      <trkpt lat="44.07841" lon="4.0986">
        <ele>115</ele>
        <time>2019-10-13T14:17:52Z</time>
      </trkpt>
      <trkpt lat="44.0784" lon="4.09863">
        <ele>116</ele>
        <time>2019-10-13T14:18:00Z</time>
      </trkpt>
      <trkpt lat="44.07838" lon="4.09866">
        <ele>117</ele>
        <time>2019-10-13T14:18:10Z</time>
      </trkpt>
      <trkpt lat="44.07835" lon="4.09869">
        <ele>118</ele>
        <time>2019-10-13T14:18:16Z</time>
      </trkpt>
      <trkpt lat="44.07834" lon="4.0987">
        <ele>120</ele>
        <time>2019-10-13T14:18:26Z</time>
      </trkpt>
      <trkpt lat="44.07838" lon="4.09885">
        <ele>121</ele>
        <time>2019-10-13T14:18:30Z</time>
      </trkpt>
      <trkpt lat="44.0784" lon="4.09893">
        <ele>121</ele>
        <time>2019-10-13T14:18:32Z</time>
      </trkpt>
      <trkpt lat="44.07842" lon="4.09904">
        <ele>121</ele>
        <time>2019-10-13T14:18:34Z</time>
      </trkpt>
      <trkpt lat="44.07834" lon="4.09915">
        <ele>121</ele>
        <time>2019-10-13T14:18:38Z</time>
      </trkpt>
      <trkpt lat="44.07831" lon="4.09916">
        <ele>122</ele>
        <time>2019-10-13T14:18:39Z</time>
      </trkpt>
      <trkpt lat="44.07813" lon="4.09928">
        <ele>122</ele>
        <time>2019-10-13T14:18:45Z</time>
      </trkpt>
      <trkpt lat="44.07798" lon="4.09948">
        <ele>122</ele>
        <time>2019-10-13T14:18:50Z</time>
      </trkpt>
      <trkpt lat="44.07785" lon="4.09965">
        <ele>122</ele>
        <time>2019-10-13T14:18:54Z</time>
      </trkpt>
      <trkpt lat="44.07768" lon="4.09988">
        <ele>122</ele>
        <time>2019-10-13T14:19:00Z</time>
      </trkpt>
      <trkpt lat="44.07764" lon="4.09995">
        <ele>122</ele>
        <time>2019-10-13T14:19:01Z</time>
      </trkpt>
      <trkpt lat="44.07748" lon="4.10022">
        <ele>122</ele>
        <time>2019-10-13T14:19:07Z</time>
      </trkpt>
      <trkpt lat="44.07745" lon="4.10026">
        <ele>122</ele>
        <time>2019-10-13T14:19:08Z</time>
      </trkpt>
      <trkpt lat="44.0774" lon="4.10036">
        <ele>122</ele>
        <time>2019-10-13T14:19:11Z</time>
      </trkpt>
      <trkpt lat="44.07739" lon="4.10038">
        <ele>122</ele>
        <time>2019-10-13T14:19:12Z</time>
      </trkpt>
      <trkpt lat="44.07738" lon="4.10039">
        <ele>122</ele>
        <time>2019-10-13T14:19:13Z</time>
      </trkpt>
      <trkpt lat="44.07734" lon="4.10039">
        <ele>122</ele>
        <time>2019-10-13T14:19:16Z</time>
      </trkpt>
      <trkpt lat="44.07715" lon="4.10046">
        <ele>122</ele>
        <time>2019-10-13T14:19:23Z</time>
      </trkpt>
      <trkpt lat="44.07695" lon="4.1005">
        <ele>121</ele>
        <time>2019-10-13T14:19:29Z</time>
      </trkpt>
      <trkpt lat="44.07674" lon="4.10053">
        <ele>121</ele>
        <time>2019-10-13T14:19:35Z</time>
      </trkpt>
      <trkpt lat="44.07654" lon="4.10056">
        <ele>120</ele>
        <time>2019-10-13T14:19:40Z</time>
      </trkpt>
      <trkpt lat="44.07635" lon="4.10057">
        <ele>120</ele>
        <time>2019-10-13T14:19:45Z</time>
      </trkpt>
      <trkpt lat="44.07615" lon="4.10059">
        <ele>120</ele>
        <time>2019-10-13T14:19:50Z</time>
      </trkpt>
      <trkpt lat="44.07595" lon="4.10062">
        <ele>120</ele>
        <time>2019-10-13T14:19:55Z</time>
      </trkpt>
      <trkpt lat="44.07575" lon="4.10071">
        <ele>120</ele>
        <time>2019-10-13T14:20:00Z</time>
      </trkpt>
      <trkpt lat="44.07563" lon="4.10078">
        <ele>120</ele>
        <time>2019-10-13T14:20:03Z</time>
      </trkpt>
      <trkpt lat="44.07543" lon="4.10095">
        <ele>120</ele>
        <time>2019-10-13T14:20:08Z</time>
      </trkpt>
      <trkpt lat="44.0754" lon="4.10098">
        <ele>120</ele>
        <time>2019-10-13T14:20:09Z</time>
      </trkpt>
      <trkpt lat="44.0753" lon="4.10105">
        <ele>120</ele>
        <time>2019-10-13T14:20:12Z</time>
      </trkpt>
      <trkpt lat="44.07519" lon="4.10119">
        <ele>120</ele>
        <time>2019-10-13T14:20:17Z</time>
      </trkpt>
      <trkpt lat="44.07508" lon="4.10122">
        <ele>120</ele>
        <time>2019-10-13T14:20:22Z</time>
      </trkpt>
      <trkpt lat="44.07505" lon="4.10123">
        <ele>120</ele>
        <time>2019-10-13T14:20:23Z</time>
      </trkpt>
      <trkpt lat="44.07483" lon="4.10127">
        <ele>120</ele>
        <time>2019-10-13T14:20:29Z</time>
      </trkpt>
      <trkpt lat="44.07464" lon="4.10127">
        <ele>120</ele>
        <time>2019-10-13T14:20:34Z</time>
      </trkpt>
      <trkpt lat="44.07443" lon="4.10121">
        <ele>120</ele>
        <time>2019-10-13T14:20:39Z</time>
      </trkpt>
      <trkpt lat="44.07426" lon="4.10111">
        <ele>120</ele>
        <time>2019-10-13T14:20:44Z</time>
      </trkpt>
      <trkpt lat="44.0742" lon="4.10108">
        <ele>120</ele>
        <time>2019-10-13T14:20:46Z</time>
      </trkpt>
      <trkpt lat="44.07413" lon="4.1012">
        <ele>120</ele>
        <time>2019-10-13T14:20:50Z</time>
      </trkpt>
      <trkpt lat="44.07415" lon="4.10148">
        <ele>120</ele>
        <time>2019-10-13T14:20:54Z</time>
      </trkpt>
      <trkpt lat="44.07415" lon="4.10154">
        <ele>120</ele>
        <time>2019-10-13T14:20:55Z</time>
      </trkpt>
      <trkpt lat="44.07415" lon="4.10169">
        <ele>120</ele>
        <time>2019-10-13T14:20:57Z</time>
      </trkpt>
      <trkpt lat="44.07406" lon="4.10191">
        <ele>120</ele>
        <time>2019-10-13T14:21:01Z</time>
      </trkpt>
      <trkpt lat="44.07401" lon="4.10193">
        <ele>120</ele>
        <time>2019-10-13T14:21:02Z</time>
      </trkpt>
      <trkpt lat="44.07377" lon="4.10195">
        <ele>120</ele>
        <time>2019-10-13T14:21:07Z</time>
      </trkpt>
      <trkpt lat="44.07373" lon="4.10196">
        <ele>120</ele>
        <time>2019-10-13T14:21:08Z</time>
      </trkpt>
      <trkpt lat="44.07365" lon="4.10195">
        <ele>120</ele>
        <time>2019-10-13T14:21:10Z</time>
      </trkpt>
      <trkpt lat="44.0736" lon="4.10198">
        <ele>120</ele>
        <time>2019-10-13T14:21:14Z</time>
      </trkpt>
      <trkpt lat="44.07366" lon="4.10197">
        <ele>120</ele>
        <time>2019-10-13T14:21:17Z</time>
      </trkpt>
      <trkpt lat="44.07389" lon="4.10195">
        <ele>119</ele>
        <time>2019-10-13T14:21:23Z</time>
      </trkpt>
      <trkpt lat="44.0741" lon="4.10193">
        <ele>118</ele>
        <time>2019-10-13T14:21:28Z</time>
      </trkpt>
      <trkpt lat="44.07412" lon="4.10195">
        <ele>118</ele>
        <time>2019-10-13T14:21:29Z</time>
      </trkpt>
      <trkpt lat="44.07415" lon="4.10207">
        <ele>118</ele>
        <time>2019-10-13T14:21:32Z</time>
      </trkpt>
      <trkpt lat="44.07414" lon="4.10216">
        <ele>118</ele>
        <time>2019-10-13T14:21:34Z</time>
      </trkpt>
      <trkpt lat="44.07415" lon="4.10247">
        <ele>118</ele>
        <time>2019-10-13T14:21:40Z</time>
      </trkpt>
      <trkpt lat="44.07415" lon="4.10273">
        <ele>118</ele>
        <time>2019-10-13T14:21:46Z</time>
      </trkpt>
      <trkpt lat="44.07415" lon="4.103">
        <ele>117</ele>
        <time>2019-10-13T14:21:52Z</time>
      </trkpt>
      <trkpt lat="44.07415" lon="4.10327">
        <ele>117</ele>
        <time>2019-10-13T14:21:58Z</time>
      </trkpt>
      <trkpt lat="44.07417" lon="4.10354">
        <ele>116</ele>
        <time>2019-10-13T14:22:05Z</time>
      </trkpt>
      <trkpt lat="44.07416" lon="4.10378">
        <ele>116</ele>
        <time>2019-10-13T14:22:11Z</time>
      </trkpt>
      <trkpt lat="44.07417" lon="4.10404">
        <ele>116</ele>
        <time>2019-10-13T14:22:17Z</time>
      </trkpt>
      <trkpt lat="44.07417" lon="4.10426">
        <ele>116</ele>
        <time>2019-10-13T14:22:22Z</time>
      </trkpt>
      <trkpt lat="44.07418" lon="4.10451">
        <ele>116</ele>
        <time>2019-10-13T14:22:28Z</time>
      </trkpt>
      <trkpt lat="44.07418" lon="4.10472">
        <ele>116</ele>
        <time>2019-10-13T14:22:33Z</time>
      </trkpt>
      <trkpt lat="44.07418" lon="4.10501">
        <ele>116</ele>
        <time>2019-10-13T14:22:39Z</time>
      </trkpt>
      <trkpt lat="44.07418" lon="4.10527">
        <ele>116</ele>
        <time>2019-10-13T14:22:44Z</time>
      </trkpt>
      <trkpt lat="44.07418" lon="4.10553">
        <ele>116</ele>
        <time>2019-10-13T14:22:49Z</time>
      </trkpt>
      <trkpt lat="44.07419" lon="4.10589">
        <ele>116</ele>
        <time>2019-10-13T14:22:56Z</time>
      </trkpt>
      <trkpt lat="44.07419" lon="4.10615">
        <ele>116</ele>
        <time>2019-10-13T14:23:01Z</time>
      </trkpt>
      <trkpt lat="44.0742" lon="4.10643">
        <ele>116</ele>
        <time>2019-10-13T14:23:07Z</time>
      </trkpt>
      <trkpt lat="44.0742" lon="4.10656">
        <ele>116</ele>
        <time>2019-10-13T14:23:10Z</time>
      </trkpt>
      <trkpt lat="44.07417" lon="4.10672">
        <ele>116</ele>
        <time>2019-10-13T14:23:15Z</time>
      </trkpt>
      <trkpt lat="44.07417" lon="4.10674">
        <ele>116</ele>
        <time>2019-10-13T14:23:16Z</time>
      </trkpt>
      <trkpt lat="44.07418" lon="4.10674">
        <ele>116</ele>
        <time>2019-10-13T14:23:21Z</time>
      </trkpt>
      <trkpt lat="44.07417" lon="4.10676">
        <ele>116</ele>
        <time>2019-10-13T14:23:29Z</time>
      </trkpt>
      <trkpt lat="44.0742" lon="4.10695">
        <ele>116</ele>
        <time>2019-10-13T14:23:35Z</time>
      </trkpt>
      <trkpt lat="44.07431" lon="4.10715">
        <ele>116</ele>
        <time>2019-10-13T14:23:41Z</time>
      </trkpt>
      <trkpt lat="44.07445" lon="4.10726">
        <ele>115</ele>
        <time>2019-10-13T14:23:46Z</time>
      </trkpt>
      <trkpt lat="44.07459" lon="4.10743">
        <ele>115</ele>
        <time>2019-10-13T14:23:51Z</time>
      </trkpt>
      <trkpt lat="44.07471" lon="4.10761">
        <ele>114</ele>
        <time>2019-10-13T14:23:56Z</time>
      </trkpt>
      <trkpt lat="44.07496" lon="4.108">
        <ele>114</ele>
        <time>2019-10-13T14:24:06Z</time>
      </trkpt>
      <trkpt lat="44.07506" lon="4.10821">
        <ele>114</ele>
        <time>2019-10-13T14:24:11Z</time>
      </trkpt>
      <trkpt lat="44.0751" lon="4.10832">
        <ele>114</ele>
        <time>2019-10-13T14:24:14Z</time>
      </trkpt>
      <trkpt lat="44.07519" lon="4.10844">
        <ele>114</ele>
        <time>2019-10-13T14:24:18Z</time>
      </trkpt>
      <trkpt lat="44.07524" lon="4.10862">
        <ele>114</ele>
        <time>2019-10-13T14:24:22Z</time>
      </trkpt>
      <trkpt lat="44.07525" lon="4.10866">
        <ele>114</ele>
        <time>2019-10-13T14:24:23Z</time>
      </trkpt>
      <trkpt lat="44.07518" lon="4.10879">
        <ele>114</ele>
        <time>2019-10-13T14:24:27Z</time>
      </trkpt>
      <trkpt lat="44.07519" lon="4.10892">
        <ele>114</ele>
        <time>2019-10-13T14:24:30Z</time>
      </trkpt>
      <trkpt lat="44.07514" lon="4.10906">
        <ele>114</ele>
        <time>2019-10-13T14:24:34Z</time>
      </trkpt>
      <trkpt lat="44.07502" lon="4.10912">
        <ele>114</ele>
        <time>2019-10-13T14:24:38Z</time>
      </trkpt>
      <trkpt lat="44.07499" lon="4.10914">
        <ele>114</ele>
        <time>2019-10-13T14:24:39Z</time>
      </trkpt>
      <trkpt lat="44.07486" lon="4.10919">
        <ele>114</ele>
        <time>2019-10-13T14:24:43Z</time>
      </trkpt>
      <trkpt lat="44.07473" lon="4.10933">
        <ele>114</ele>
        <time>2019-10-13T14:24:48Z</time>
      </trkpt>
      <trkpt lat="44.07457" lon="4.10953">
        <ele>114</ele>
        <time>2019-10-13T14:24:54Z</time>
      </trkpt>
      <trkpt lat="44.07455" lon="4.10956">
        <ele>114</ele>
        <time>2019-10-13T14:24:55Z</time>
      </trkpt>
      <trkpt lat="44.07449" lon="4.10967">
        <ele>114</ele>
        <time>2019-10-13T14:24:58Z</time>
      </trkpt>
      <trkpt lat="44.07445" lon="4.10969">
        <ele>114</ele>
        <time>2019-10-13T14:24:59Z</time>
      </trkpt>
      <trkpt lat="44.07438" lon="4.10975">
        <ele>114</ele>
        <time>2019-10-13T14:25:01Z</time>
      </trkpt>
      <trkpt lat="44.07422" lon="4.10978">
        <ele>114</ele>
        <time>2019-10-13T14:25:06Z</time>
      </trkpt>
      <trkpt lat="44.07419" lon="4.10981">
        <ele>114</ele>
        <time>2019-10-13T14:25:07Z</time>
      </trkpt>
      <trkpt lat="44.07413" lon="4.10985">
        <ele>114</ele>
        <time>2019-10-13T14:25:09Z</time>
      </trkpt>
      <trkpt lat="44.074" lon="4.10988">
        <ele>114</ele>
        <time>2019-10-13T14:25:14Z</time>
      </trkpt>
      <trkpt lat="44.07397" lon="4.10991">
        <ele>114</ele>
        <time>2019-10-13T14:25:15Z</time>
      </trkpt>
      <trkpt lat="44.07394" lon="4.10993">
        <ele>114</ele>
        <time>2019-10-13T14:25:16Z</time>
      </trkpt>
      <trkpt lat="44.07385" lon="4.10999">
        <ele>114</ele>
        <time>2019-10-13T14:25:19Z</time>
      </trkpt>
      <trkpt lat="44.07376" lon="4.11002">
        <ele>114</ele>
        <time>2019-10-13T14:25:22Z</time>
      </trkpt>
      <trkpt lat="44.07368" lon="4.10995">
        <ele>114</ele>
        <time>2019-10-13T14:25:25Z</time>
      </trkpt>
      <trkpt lat="44.07359" lon="4.10997">
        <ele>114</ele>
        <time>2019-10-13T14:25:28Z</time>
      </trkpt>
      <trkpt lat="44.07344" lon="4.11016">
        <ele>114</ele>
        <time>2019-10-13T14:25:33Z</time>
      </trkpt>
      <trkpt lat="44.07337" lon="4.11025">
        <ele>114</ele>
        <time>2019-10-13T14:25:36Z</time>
      </trkpt>
      <trkpt lat="44.07324" lon="4.11028">
        <ele>114</ele>
        <time>2019-10-13T14:25:40Z</time>
      </trkpt>
      <trkpt lat="44.07309" lon="4.11026">
        <ele>114</ele>
        <time>2019-10-13T14:25:44Z</time>
      </trkpt>
      <trkpt lat="44.07295" lon="4.11025">
        <ele>114</ele>
        <time>2019-10-13T14:25:48Z</time>
      </trkpt>
      <trkpt lat="44.07292" lon="4.11023">
        <ele>114</ele>
        <time>2019-10-13T14:25:49Z</time>
      </trkpt>
      <trkpt lat="44.07286" lon="4.11017">
        <ele>114</ele>
        <time>2019-10-13T14:25:51Z</time>
      </trkpt>
      <trkpt lat="44.07275" lon="4.11019">
        <ele>114</ele>
        <time>2019-10-13T14:25:54Z</time>
      </trkpt>
      <trkpt lat="44.07258" lon="4.11025">
        <ele>114</ele>
        <time>2019-10-13T14:25:59Z</time>
      </trkpt>
      <trkpt lat="44.07255" lon="4.11028">
        <ele>115</ele>
        <time>2019-10-13T14:26:00Z</time>
      </trkpt>
      <trkpt lat="44.07233" lon="4.11037">
        <ele>115</ele>
        <time>2019-10-13T14:26:06Z</time>
      </trkpt>
      <trkpt lat="44.07215" lon="4.11039">
        <ele>115</ele>
        <time>2019-10-13T14:26:11Z</time>
      </trkpt>
      <trkpt lat="44.07198" lon="4.1104">
        <ele>116</ele>
        <time>2019-10-13T14:26:16Z</time>
      </trkpt>
      <trkpt lat="44.07185" lon="4.11033">
        <ele>116</ele>
        <time>2019-10-13T14:26:20Z</time>
      </trkpt>
      <trkpt lat="44.07183" lon="4.1103">
        <ele>116</ele>
        <time>2019-10-13T14:26:21Z</time>
      </trkpt>
      <trkpt lat="44.07179" lon="4.11018">
        <ele>116</ele>
        <time>2019-10-13T14:26:24Z</time>
      </trkpt>
      <trkpt lat="44.07173" lon="4.11011">
        <ele>116</ele>
        <time>2019-10-13T14:26:26Z</time>
      </trkpt>
      <trkpt lat="44.07156" lon="4.10996">
        <ele>116</ele>
        <time>2019-10-13T14:26:31Z</time>
      </trkpt>
      <trkpt lat="44.0714" lon="4.10987">
        <ele>116</ele>
        <time>2019-10-13T14:26:36Z</time>
      </trkpt>
      <trkpt lat="44.07127" lon="4.10981">
        <ele>116</ele>
        <time>2019-10-13T14:26:40Z</time>
      </trkpt>
      <trkpt lat="44.07116" lon="4.10989">
        <ele>116</ele>
        <time>2019-10-13T14:26:44Z</time>
      </trkpt>
      <trkpt lat="44.0711" lon="4.10982">
        <ele>116</ele>
        <time>2019-10-13T14:26:47Z</time>
      </trkpt>
      <trkpt lat="44.07109" lon="4.10978">
        <ele>116</ele>
        <time>2019-10-13T14:26:48Z</time>
      </trkpt>
      <trkpt lat="44.07107" lon="4.10974">
        <ele>116</ele>
        <time>2019-10-13T14:26:49Z</time>
      </trkpt>
      <trkpt lat="44.07094" lon="4.10957">
        <ele>116</ele>
        <time>2019-10-13T14:26:54Z</time>
      </trkpt>
      <trkpt lat="44.07078" lon="4.10956">
        <ele>116</ele>
        <time>2019-10-13T14:26:58Z</time>
      </trkpt>
      <trkpt lat="44.07075" lon="4.10956">
        <ele>116</ele>
        <time>2019-10-13T14:26:59Z</time>
      </trkpt>
      <trkpt lat="44.07065" lon="4.10948">
        <ele>116</ele>
        <time>2019-10-13T14:27:02Z</time>
      </trkpt>
      <trkpt lat="44.07053" lon="4.10947">
        <ele>116</ele>
        <time>2019-10-13T14:27:05Z</time>
      </trkpt>
      <trkpt lat="44.07029" lon="4.10953">
        <ele>116</ele>
        <time>2019-10-13T14:27:11Z</time>
      </trkpt>
      <trkpt lat="44.07016" lon="4.10962">
        <ele>116</ele>
        <time>2019-10-13T14:27:15Z</time>
      </trkpt>
      <trkpt lat="44.06995" lon="4.10958">
        <ele>116</ele>
        <time>2019-10-13T14:27:21Z</time>
      </trkpt>
      <trkpt lat="44.0698" lon="4.1095">
        <ele>116</ele>
        <time>2019-10-13T14:27:26Z</time>
      </trkpt>
      <trkpt lat="44.06966" lon="4.10939">
        <ele>116</ele>
        <time>2019-10-13T14:27:30Z</time>
      </trkpt>
      <trkpt lat="44.06949" lon="4.10923">
        <ele>116</ele>
        <time>2019-10-13T14:27:35Z</time>
      </trkpt>
      <trkpt lat="44.06932" lon="4.10909">
        <ele>116</ele>
        <time>2019-10-13T14:27:40Z</time>
      </trkpt>
      <trkpt lat="44.06915" lon="4.10895">
        <ele>116</ele>
        <time>2019-10-13T14:27:45Z</time>
      </trkpt>
      <trkpt lat="44.06903" lon="4.10881">
        <ele>116</ele>
        <time>2019-10-13T14:27:49Z</time>
      </trkpt>
      <trkpt lat="44.06902" lon="4.1087">
        <ele>116</ele>
        <time>2019-10-13T14:27:51Z</time>
      </trkpt>
      <trkpt lat="44.06892" lon="4.10853">
        <ele>116</ele>
        <time>2019-10-13T14:27:55Z</time>
      </trkpt>
      <trkpt lat="44.06889" lon="4.1085">
        <ele>116</ele>
        <time>2019-10-13T14:27:56Z</time>
      </trkpt>
      <trkpt lat="44.06881" lon="4.10846">
        <ele>116</ele>
        <time>2019-10-13T14:27:58Z</time>
      </trkpt>
      <trkpt lat="44.06868" lon="4.10835">
        <ele>116</ele>
        <time>2019-10-13T14:28:02Z</time>
      </trkpt>
      <trkpt lat="44.06864" lon="4.10835">
        <ele>116</ele>
        <time>2019-10-13T14:28:03Z</time>
      </trkpt>
      <trkpt lat="44.06846" lon="4.10829">
        <ele>116</ele>
        <time>2019-10-13T14:28:08Z</time>
      </trkpt>
      <trkpt lat="44.06832" lon="4.10814">
        <ele>116</ele>
        <time>2019-10-13T14:28:13Z</time>
      </trkpt>
      <trkpt lat="44.06816" lon="4.10799">
        <ele>116</ele>
        <time>2019-10-13T14:28:18Z</time>
      </trkpt>
      <trkpt lat="44.06802" lon="4.10781">
        <ele>116</ele>
        <time>2019-10-13T14:28:23Z</time>
      </trkpt>
      <trkpt lat="44.06799" lon="4.10778">
        <ele>116</ele>
        <time>2019-10-13T14:28:24Z</time>
      </trkpt>
      <trkpt lat="44.06786" lon="4.10773">
        <ele>116</ele>
        <time>2019-10-13T14:28:28Z</time>
      </trkpt>
      <trkpt lat="44.06779" lon="4.10763">
        <ele>116</ele>
        <time>2019-10-13T14:28:32Z</time>
      </trkpt>
      <trkpt lat="44.06777" lon="4.10761">
        <ele>116</ele>
        <time>2019-10-13T14:28:33Z</time>
      </trkpt>
      <trkpt lat="44.06764" lon="4.10749">
        <ele>116</ele>
        <time>2019-10-13T14:28:38Z</time>
      </trkpt>
      <trkpt lat="44.06746" lon="4.1074">
        <ele>116</ele>
        <time>2019-10-13T14:28:43Z</time>
      </trkpt>
      <trkpt lat="44.06732" lon="4.10733">
        <ele>116</ele>
        <time>2019-10-13T14:28:47Z</time>
      </trkpt>
      <trkpt lat="44.06717" lon="4.10724">
        <ele>116</ele>
        <time>2019-10-13T14:28:51Z</time>
      </trkpt>
      <trkpt lat="44.06705" lon="4.10716">
        <ele>116</ele>
        <time>2019-10-13T14:28:54Z</time>
      </trkpt>
      <trkpt lat="44.06688" lon="4.10685">
        <ele>116</ele>
        <time>2019-10-13T14:29:01Z</time>
      </trkpt>
      <trkpt lat="44.0668" lon="4.10669">
        <ele>116</ele>
        <time>2019-10-13T14:29:05Z</time>
      </trkpt>
      <trkpt lat="44.06669" lon="4.10654">
        <ele>116</ele>
        <time>2019-10-13T14:29:08Z</time>
      </trkpt>
      <trkpt lat="44.06664" lon="4.10646">
        <ele>116</ele>
        <time>2019-10-13T14:29:10Z</time>
      </trkpt>
      <trkpt lat="44.0665" lon="4.10621">
        <ele>116</ele>
        <time>2019-10-13T14:29:16Z</time>
      </trkpt>
      <trkpt lat="44.06632" lon="4.1061">
        <ele>116</ele>
        <time>2019-10-13T14:29:21Z</time>
      </trkpt>
      <trkpt lat="44.06618" lon="4.10606">
        <ele>115</ele>
        <time>2019-10-13T14:29:25Z</time>
      </trkpt>
      <trkpt lat="44.06612" lon="4.10603">
        <ele>115</ele>
        <time>2019-10-13T14:29:27Z</time>
      </trkpt>
      <trkpt lat="44.066" lon="4.10614">
        <ele>115</ele>
        <time>2019-10-13T14:29:31Z</time>
      </trkpt>
      <trkpt lat="44.06589" lon="4.1061">
        <ele>114</ele>
        <time>2019-10-13T14:29:34Z</time>
      </trkpt>
      <trkpt lat="44.06586" lon="4.10607">
        <ele>114</ele>
        <time>2019-10-13T14:29:35Z</time>
      </trkpt>
      <trkpt lat="44.0658" lon="4.10597">
        <ele>114</ele>
        <time>2019-10-13T14:29:38Z</time>
      </trkpt>
      <trkpt lat="44.06572" lon="4.10587">
        <ele>114</ele>
        <time>2019-10-13T14:29:42Z</time>
      </trkpt>
      <trkpt lat="44.06567" lon="4.10584">
        <ele>114</ele>
        <time>2019-10-13T14:29:44Z</time>
      </trkpt>
      <trkpt lat="44.06552" lon="4.10571">
        <ele>113</ele>
        <time>2019-10-13T14:29:49Z</time>
      </trkpt>
      <trkpt lat="44.06538" lon="4.10551">
        <ele>113</ele>
        <time>2019-10-13T14:29:54Z</time>
      </trkpt>
      <trkpt lat="44.06532" lon="4.10545">
        <ele>113</ele>
        <time>2019-10-13T14:29:56Z</time>
      </trkpt>
      <trkpt lat="44.06521" lon="4.10526">
        <ele>112</ele>
        <time>2019-10-13T14:30:01Z</time>
      </trkpt>
      <trkpt lat="44.06518" lon="4.10515">
        <ele>112</ele>
        <time>2019-10-13T14:30:03Z</time>
      </trkpt>
      <trkpt lat="44.06509" lon="4.1051">
        <ele>112</ele>
        <time>2019-10-13T14:30:06Z</time>
      </trkpt>
      <trkpt lat="44.06495" lon="4.10512">
        <ele>112</ele>
        <time>2019-10-13T14:30:10Z</time>
      </trkpt>
      <trkpt lat="44.06492" lon="4.1051">
        <ele>112</ele>
        <time>2019-10-13T14:30:11Z</time>
      </trkpt>
      <trkpt lat="44.06481" lon="4.10502">
        <ele>112</ele>
        <time>2019-10-13T14:30:14Z</time>
      </trkpt>
      <trkpt lat="44.06469" lon="4.10505">
        <ele>112</ele>
        <time>2019-10-13T14:30:19Z</time>
      </trkpt>
      <trkpt lat="44.06459" lon="4.10506">
        <ele>112</ele>
        <time>2019-10-13T14:30:22Z</time>
      </trkpt>
      <trkpt lat="44.06453" lon="4.10503">
        <ele>112</ele>
        <time>2019-10-13T14:30:26Z</time>
      </trkpt>
      <trkpt lat="44.06446" lon="4.10508">
        <ele>112</ele>
        <time>2019-10-13T14:30:29Z</time>
      </trkpt>
      <trkpt lat="44.06435" lon="4.10509">
        <ele>112</ele>
        <time>2019-10-13T14:30:32Z</time>
      </trkpt>
      <trkpt lat="44.06424" lon="4.10514">
        <ele>112</ele>
        <time>2019-10-13T14:30:36Z</time>
      </trkpt>
      <trkpt lat="44.06416" lon="4.10515">
        <ele>112</ele>
        <time>2019-10-13T14:30:40Z</time>
      </trkpt>
      <trkpt lat="44.06409" lon="4.10516">
        <ele>112</ele>
        <time>2019-10-13T14:30:43Z</time>
      </trkpt>
      <trkpt lat="44.06401" lon="4.10513">
        <ele>112</ele>
        <time>2019-10-13T14:30:46Z</time>
      </trkpt>
      <trkpt lat="44.06392" lon="4.10507">
        <ele>112</ele>
        <time>2019-10-13T14:30:50Z</time>
      </trkpt>
      <trkpt lat="44.06389" lon="4.10506">
        <ele>112</ele>
        <time>2019-10-13T14:30:51Z</time>
      </trkpt>
      <trkpt lat="44.06366" lon="4.10506">
        <ele>112</ele>
        <time>2019-10-13T14:30:57Z</time>
      </trkpt>
      <trkpt lat="44.06347" lon="4.10506">
        <ele>112</ele>
        <time>2019-10-13T14:31:01Z</time>
      </trkpt>
      <trkpt lat="44.06342" lon="4.10506">
        <ele>112</ele>
        <time>2019-10-13T14:31:02Z</time>
      </trkpt>
      <trkpt lat="44.06322" lon="4.10512">
        <ele>112</ele>
        <time>2019-10-13T14:31:06Z</time>
      </trkpt>
      <trkpt lat="44.06302" lon="4.10519">
        <ele>112</ele>
        <time>2019-10-13T14:31:11Z</time>
      </trkpt>
      <trkpt lat="44.06298" lon="4.10521">
        <ele>112</ele>
        <time>2019-10-13T14:31:12Z</time>
      </trkpt>
      <trkpt lat="44.06294" lon="4.10522">
        <ele>112</ele>
        <time>2019-10-13T14:31:13Z</time>
      </trkpt>
      <trkpt lat="44.06271" lon="4.10531">
        <ele>111</ele>
        <time>2019-10-13T14:31:19Z</time>
      </trkpt>
      <trkpt lat="44.06251" lon="4.10532">
        <ele>110</ele>
        <time>2019-10-13T14:31:24Z</time>
      </trkpt>
      <trkpt lat="44.06231" lon="4.10532">
        <ele>110</ele>
        <time>2019-10-13T14:31:29Z</time>
      </trkpt>
      <trkpt lat="44.0621" lon="4.10534">
        <ele>110</ele>
        <time>2019-10-13T14:31:34Z</time>
      </trkpt>
      <trkpt lat="44.06191" lon="4.10532">
        <ele>110</ele>
        <time>2019-10-13T14:31:39Z</time>
      </trkpt>
      <trkpt lat="44.06171" lon="4.1053">
        <ele>110</ele>
        <time>2019-10-13T14:31:44Z</time>
      </trkpt>
      <trkpt lat="44.06157" lon="4.10532">
        <ele>110</ele>
        <time>2019-10-13T14:31:48Z</time>
      </trkpt>
      <trkpt lat="44.06154" lon="4.10523">
        <ele>110</ele>
        <time>2019-10-13T14:31:53Z</time>
      </trkpt>
      <trkpt lat="44.06154" lon="4.1051">
        <ele>110</ele>
        <time>2019-10-13T14:31:56Z</time>
      </trkpt>
      <trkpt lat="44.06153" lon="4.10487">
        <ele>110</ele>
        <time>2019-10-13T14:32:01Z</time>
      </trkpt>
      <trkpt lat="44.06154" lon="4.10462">
        <ele>110</ele>
        <time>2019-10-13T14:32:08Z</time>
      </trkpt>
      <trkpt lat="44.06154" lon="4.10437">
        <ele>110</ele>
        <time>2019-10-13T14:32:14Z</time>
      </trkpt>
      <trkpt lat="44.0616" lon="4.1041">
        <ele>110</ele>
        <time>2019-10-13T14:32:20Z</time>
      </trkpt>
      <trkpt lat="44.0616" lon="4.10386">
        <ele>110</ele>
        <time>2019-10-13T14:32:25Z</time>
      </trkpt>
      <trkpt lat="44.06149" lon="4.10361">
        <ele>110</ele>
        <time>2019-10-13T14:32:31Z</time>
      </trkpt>
      <trkpt lat="44.0614" lon="4.10339">
        <ele>110</ele>
        <time>2019-10-13T14:32:37Z</time>
      </trkpt>
      <trkpt lat="44.06131" lon="4.10317">
        <ele>110</ele>
        <time>2019-10-13T14:32:44Z</time>
      </trkpt>
      <trkpt lat="44.06131" lon="4.10315">
        <ele>110</ele>
        <time>2019-10-13T14:32:50Z</time>
      </trkpt>
      <trkpt lat="44.06128" lon="4.10309">
        <ele>110</ele>
        <time>2019-10-13T14:32:56Z</time>
      </trkpt>
      <trkpt lat="44.06123" lon="4.10298">
        <ele>110</ele>
        <time>2019-10-13T14:32:59Z</time>
      </trkpt>
      <trkpt lat="44.0611" lon="4.10278">
        <ele>110</ele>
        <time>2019-10-13T14:33:05Z</time>
      </trkpt>
      <trkpt lat="44.06098" lon="4.10259">
        <ele>110</ele>
        <time>2019-10-13T14:33:10Z</time>
      </trkpt>
      <trkpt lat="44.0609" lon="4.10236">
        <ele>110</ele>
        <time>2019-10-13T14:33:15Z</time>
      </trkpt>
      <trkpt lat="44.06081" lon="4.10214">
        <ele>110</ele>
        <time>2019-10-13T14:33:20Z</time>
      </trkpt>
      <trkpt lat="44.06073" lon="4.10191">
        <ele>110</ele>
        <time>2019-10-13T14:33:25Z</time>
      </trkpt>
      <trkpt lat="44.0607" lon="4.10163">
        <ele>110</ele>
        <time>2019-10-13T14:33:31Z</time>
      </trkpt>
      <trkpt lat="44.06071" lon="4.10138">
        <ele>110</ele>
        <time>2019-10-13T14:33:37Z</time>
      </trkpt>
      <trkpt lat="44.06072" lon="4.10112">
        <ele>110</ele>
        <time>2019-10-13T14:33:43Z</time>
      </trkpt>
      <trkpt lat="44.06072" lon="4.10086">
        <ele>110</ele>
        <time>2019-10-13T14:33:49Z</time>
      </trkpt>
      <trkpt lat="44.06071" lon="4.10059">
        <ele>110</ele>
        <time>2019-10-13T14:33:55Z</time>
      </trkpt>
      <trkpt lat="44.06068" lon="4.10033">
        <ele>110</ele>
        <time>2019-10-13T14:34:01Z</time>
      </trkpt>
      <trkpt lat="44.0606" lon="4.10008">
        <ele>110</ele>
        <time>2019-10-13T14:34:07Z</time>
      </trkpt>
      <trkpt lat="44.06055" lon="4.09982">
        <ele>111</ele>
        <time>2019-10-13T14:34:13Z</time>
      </trkpt>
      <trkpt lat="44.06052" lon="4.09956">
        <ele>111</ele>
        <time>2019-10-13T14:34:19Z</time>
      </trkpt>
      <trkpt lat="44.06048" lon="4.09931">
        <ele>111</ele>
        <time>2019-10-13T14:34:25Z</time>
      </trkpt>
      <trkpt lat="44.06044" lon="4.09906">
        <ele>112</ele>
        <time>2019-10-13T14:34:31Z</time>
      </trkpt>
      <trkpt lat="44.0604" lon="4.09878">
        <ele>112</ele>
        <time>2019-10-13T14:34:38Z</time>
      </trkpt>
      <trkpt lat="44.06038" lon="4.0985">
        <ele>113</ele>
        <time>2019-10-13T14:34:46Z</time>
      </trkpt>
      <trkpt lat="44.06035" lon="4.09831">
        <ele>113</ele>
        <time>2019-10-13T14:34:52Z</time>
      </trkpt>
      <trkpt lat="44.06036" lon="4.09811">
        <ele>113</ele>
        <time>2019-10-13T14:34:58Z</time>
      </trkpt>
      <trkpt lat="44.0604" lon="4.09785">
        <ele>114</ele>
        <time>2019-10-13T14:35:06Z</time>
      </trkpt>
      <trkpt lat="44.06048" lon="4.0976">
        <ele>114</ele>
        <time>2019-10-13T14:35:14Z</time>
      </trkpt>
      <trkpt lat="44.06057" lon="4.09739">
        <ele>115</ele>
        <time>2019-10-13T14:35:22Z</time>
      </trkpt>
      <trkpt lat="44.06068" lon="4.09716">
        <ele>116</ele>
        <time>2019-10-13T14:35:30Z</time>
      </trkpt>
      <trkpt lat="44.0608" lon="4.09695">
        <ele>116</ele>
        <time>2019-10-13T14:35:38Z</time>
      </trkpt>
      <trkpt lat="44.06087" lon="4.09679">
        <ele>116</ele>
        <time>2019-10-13T14:35:44Z</time>
      </trkpt>
      <trkpt lat="44.06094" lon="4.09665">
        <ele>116</ele>
        <time>2019-10-13T14:35:50Z</time>
      </trkpt>
      <trkpt lat="44.06103" lon="4.09647">
        <ele>117</ele>
        <time>2019-10-13T14:35:57Z</time>
      </trkpt>
      <trkpt lat="44.06111" lon="4.09629">
        <ele>118</ele>
        <time>2019-10-13T14:36:04Z</time>
      </trkpt>
      <trkpt lat="44.06116" lon="4.09617">
        <ele>119</ele>
        <time>2019-10-13T14:36:09Z</time>
      </trkpt>
      <trkpt lat="44.06122" lon="4.09604">
        <ele>119</ele>
        <time>2019-10-13T14:36:14Z</time>
      </trkpt>
      <trkpt lat="44.06129" lon="4.09592">
        <ele>120</ele>
        <time>2019-10-13T14:36:19Z</time>
      </trkpt>
      <trkpt lat="44.06136" lon="4.0958">
        <ele>121</ele>
        <time>2019-10-13T14:36:24Z</time>
      </trkpt>
      <trkpt lat="44.06147" lon="4.09562">
        <ele>123</ele>
        <time>2019-10-13T14:36:31Z</time>
      </trkpt>
      <trkpt lat="44.0615" lon="4.09547">
        <ele>124</ele>
        <time>2019-10-13T14:36:36Z</time>
      </trkpt>
      <trkpt lat="44.06146" lon="4.09528">
        <ele>125</ele>
        <time>2019-10-13T14:36:40Z</time>
      </trkpt>
      <trkpt lat="44.06136" lon="4.09504">
        <ele>125</ele>
        <time>2019-10-13T14:36:44Z</time>
      </trkpt>
      <trkpt lat="44.06124" lon="4.09481">
        <ele>126</ele>
        <time>2019-10-13T14:36:47Z</time>
      </trkpt>
      <trkpt lat="44.06119" lon="4.09472">
        <ele>126</ele>
        <time>2019-10-13T14:36:48Z</time>
      </trkpt>
      <trkpt lat="44.06105" lon="4.09441">
        <ele>127</ele>
        <time>2019-10-13T14:36:51Z</time>
      </trkpt>
      <trkpt lat="44.06091" lon="4.09406">
        <ele>127</ele>
        <time>2019-10-13T14:36:54Z</time>
      </trkpt>
      <trkpt lat="44.06082" lon="4.09383">
        <ele>128</ele>
        <time>2019-10-13T14:36:56Z</time>
      </trkpt>
      <trkpt lat="44.06071" lon="4.09355">
        <ele>128</ele>
        <time>2019-10-13T14:36:59Z</time>
      </trkpt>
      <trkpt lat="44.06067" lon="4.0934">
        <ele>128</ele>
        <time>2019-10-13T14:37:01Z</time>
      </trkpt>
      <trkpt lat="44.0607" lon="4.09325">
        <ele>128</ele>
        <time>2019-10-13T14:37:03Z</time>
      </trkpt>
      <trkpt lat="44.06085" lon="4.09313">
        <ele>128</ele>
        <time>2019-10-13T14:37:06Z</time>
      </trkpt>
      <trkpt lat="44.0609" lon="4.0931">
        <ele>128</ele>
        <time>2019-10-13T14:37:07Z</time>
      </trkpt>
      <trkpt lat="44.06108" lon="4.09301">
        <ele>128</ele>
        <time>2019-10-13T14:37:11Z</time>
      </trkpt>
      <trkpt lat="44.06121" lon="4.09294">
        <ele>128</ele>
        <time>2019-10-13T14:37:14Z</time>
      </trkpt>
      <trkpt lat="44.06128" lon="4.0929">
        <ele>128</ele>
        <time>2019-10-13T14:37:16Z</time>
      </trkpt>
      <trkpt lat="44.06135" lon="4.09286">
        <ele>127</ele>
        <time>2019-10-13T14:37:18Z</time>
      </trkpt>
      <trkpt lat="44.06154" lon="4.09279">
        <ele>127</ele>
        <time>2019-10-13T14:37:23Z</time>
      </trkpt>
      <trkpt lat="44.06176" lon="4.09268">
        <ele>127</ele>
        <time>2019-10-13T14:37:29Z</time>
      </trkpt>
      <trkpt lat="44.06189" lon="4.09271">
        <ele>127</ele>
        <time>2019-10-13T14:37:33Z</time>
      </trkpt>
      <trkpt lat="44.06195" lon="4.09284">
        <ele>126</ele>
        <time>2019-10-13T14:37:37Z</time>
      </trkpt>
      <trkpt lat="44.06194" lon="4.09293">
        <ele>125</ele>
        <time>2019-10-13T14:37:41Z</time>
      </trkpt>
      <trkpt lat="44.06193" lon="4.09293">
        <ele>125</ele>
        <time>2019-10-13T14:37:43Z</time>
      </trkpt>
      <trkpt lat="44.06193" lon="4.09294">
        <ele>125</ele>
        <time>2019-10-13T14:37:52Z</time>
      </trkpt>
      <trkpt lat="44.06196" lon="4.09291">
        <ele>128</ele>
        <time>2019-10-13T14:38:40Z</time>
      </trkpt>
    </trkseg>
  </trk>
</gpx>